[[{"header":{"parameterUnit":"m.s-1","parameterCategory":1,"la1":30.6,"la2":29.2853,"lo1":-89.7004,"lo2":-87.6739,"dy":0.0162,"dx":0.0183,"nx":112,"ny":82,"refTime":"2023-09-07T06:00:00:Z","depth":0,"parameterNumber":2,"parameterNumberName":"U-component_of_WINDS"},"data":[0.0,0.0,0.0,0.0,0.0,0.0,0.0,0.0,0.0,0.0,0.0,0.0,0.0,0.0,0.0,0.0,0.0,0.0,0.0,0.0,0.0,0.0,0.0,0.0,0.0,0.0,0.0,0.0,0.0,0.0,0.0,0.0,0.0,0.0,0.0,0.0,0.0,0.0,0.0,0.0,0.0,0.0,0.0,0.0,0.0,0.0,0.0,0.0,0.0,0.0,0.0,0.0,0.0,0.0,0.0,0.0,0.0,0.0,0.0,0.0,0.0,0.0,0.0,0.0,0.0,0.0,0.0,0.0,0.0,0.0,0.0,0.0,0.0,0.0,0.0,0.0,0.0,0.0,0.0,0.0,0.0,0.0,0.0,0.0,0.0,0.0,0.0,0.0,0.0,0.0,0.0,1.61,1.5396,1.4787,1.4391,1.2825,1.2207,1.2914,0.0,0.0,0.0,0.0,0.0,0.0,0.0,0.0,0.0,0.0,0.0,0.0,0.0,0.0,0.0,0.0,0.0,0.0,0.0,0.0,0.0,0.0,0.0,0.0,0.0,0.0,0.0,0.0,0.0,0.0,0.0,0.0,0.0,0.0,0.0,0.0,0.0,0.0,0.0,0.0,0.0,0.0,0.0,0.0,0.0,0.0,0.0,0.0,0.0,0.0,0.0,0.0,0.0,0.0,0.0,0.0,0.0,0.0,0.0,0.0,0.0,0.0,0.0,0.0,0.0,0.0,0.0,0.0,0.0,0.0,0.0,0.0,0.0,0.0,0.0,0.0,0.0,0.0,0.0,0.0,0.0,0.0,0.0,0.0,0.0,0.0,0.0,0.0,0.0,0.0,0.0,0.0,0.0,0.0,0.0,0.0,0.0,0.0,0.0,0.0,0.0,0.0,0.0,0.0,1.5267,1.4346,1.3094,1.2091,1.1451,1.0624,1.0332,1.0916,0.0,0.0,0.0,0.0,0.0,0.0,0.0,0.0,0.0,0.0,0.0,0.0,0.0,0.0,0.0,0.0,0.0,0.0,0.0,0.0,0.0,0.0,0.0,0.0,0.0,0.0,0.0,0.0,0.0,0.0,0.0,0.0,0.0,0.0,0.0,0.0,0.0,0.0,0.0,0.0,0.0,0.0,0.0,0.0,0.0,0.0,0.0,0.0,0.0,0.0,0.0,0.0,0.0,0.0,0.0,0.0,0.0,0.0,0.0,0.0,0.0,0.0,0.0,0.0,0.0,0.0,0.0,0.0,0.0,0.0,0.0,0.0,0.0,0.0,0.0,0.0,0.0,0.0,0.0,0.0,0.0,0.0,0.0,0.0,0.0,0.0,0.0,0.0,0.0,0.0,0.0,0.0,0.0,0.0,0.0,0.0,0.0,0.0,0.0,0.0,0.0,0.0,0.0,1.3013,1.299,1.2398,1.1247,1.0557,1.0819,0.9404,0.8956,0.9868,1.0273,0.0,0.0,0.0,0.0,0.0,0.0,0.0,0.0,0.0,0.0,0.0,0.0,0.0,0.0,0.0,0.0,0.0,0.0,0.0,0.0,0.0,0.0,0.0,0.0,0.0,0.0,0.0,0.0,0.0,0.0,0.0,0.0,0.0,0.0,0.0,0.0,0.0,0.0,0.0,0.0,0.0,0.0,0.0,0.0,0.0,0.0,0.0,0.0,0.0,0.0,0.0,0.0,0.0,0.0,0.0,0.0,0.0,0.0,0.0,0.0,0.0,0.0,0.0,0.0,0.0,0.0,0.0,0.0,0.0,0.0,0.0,0.0,0.0,0.0,0.0,0.0,0.0,0.0,0.0,0.0,0.0,0.0,0.0,0.0,0.0,0.0,0.0,0.0,0.0,0.0,0.0,0.0,0.0,0.0,0.0,0.0,0.0,0.0,0.0,0.0,0.0,0.0,1.0489,1.0455,1.0534,0.9574,0.9148,0.98,0.8263,0.7686,0.8719,0.8315,0.0,0.0,0.0,0.0,0.0,0.0,0.0,0.0,0.0,0.0,0.0,0.0,0.0,0.0,0.0,0.0,0.0,0.0,0.0,0.0,0.0,0.0,0.0,0.0,0.0,0.0,0.0,0.0,0.0,0.0,0.0,0.0,0.0,0.0,0.0,0.0,0.0,0.0,0.0,0.0,0.0,0.0,0.0,0.0,0.0,0.0,0.0,0.0,0.0,0.0,0.0,0.0,0.0,0.0,0.0,0.0,0.0,0.0,0.0,0.0,0.0,0.0,0.0,0.0,0.0,0.0,0.0,0.0,0.0,0.0,0.0,0.0,0.0,0.0,0.0,0.0,0.0,0.0,0.0,0.0,0.0,0.0,0.0,0.0,0.0,0.0,0.0,0.0,0.0,0.0,0.0,0.0,0.0,0.0,0.0,0.0,0.0,0.0,0.0,0.0,0.0,0.0,0.9111,0.8286,0.9022,0.7952,0.7222,0.7003,0.6461,0.6281,0.6581,0.6997,0.0,0.0,0.0,0.0,0.0,0.0,0.0,0.0,0.0,0.0,0.0,0.0,0.0,0.0,0.0,0.0,0.0,0.0,0.0,0.0,0.0,0.0,0.0,0.0,0.0,0.0,0.0,0.0,0.0,0.0,0.0,0.0,0.0,0.0,0.0,0.0,0.0,0.0,0.0,0.0,0.0,0.0,0.0,0.0,0.0,0.0,0.0,0.0,0.0,0.0,0.0,0.0,0.0,0.0,0.0,0.0,0.0,0.0,0.0,0.0,0.0,0.0,0.0,0.0,0.0,0.0,0.0,0.0,0.0,0.0,0.0,0.0,0.0,0.0,0.0,0.0,0.0,0.0,0.0,0.0,0.0,0.0,0.0,0.0,0.0,0.0,0.0,0.0,0.0,0.0,0.0,0.0,0.0,0.0,0.0,0.0,0.0,0.0,0.0,0.0,0.0,0.0,0.809,0.77,0.0,0.7207,0.6851,0.6461,0.6095,0.5972,0.6262,0.0,0.0,0.0,0.0,0.0,0.0,0.0,0.0,0.0,0.0,0.0,0.0,0.0,0.0,0.0,0.0,0.0,0.0,0.0,0.0,0.0,0.0,0.0,0.0,0.0,0.0,0.0,0.0,0.0,0.0,0.0,0.0,0.0,0.0,0.0,0.0,0.0,0.0,0.0,0.0,0.0,0.0,0.0,0.0,0.0,0.0,0.0,0.0,0.0,0.0,0.0,0.0,0.0,0.0,0.0,0.0,0.0,0.0,0.0,0.0,0.0,0.0,0.0,0.0,0.0,0.0,0.0,0.0,0.0,0.0,0.0,0.0,0.0,0.0,0.0,0.0,0.0,0.0,0.0,0.0,0.0,0.0,0.0,0.0,0.0,0.0,0.0,0.0,0.0,0.0,0.0,0.0,0.0,0.0,0.0,0.0,0.0,0.0,0.0,0.0,0.0,0.0,0.7479,0.7263,0.7055,0.0,0.6712,0.6593,0.6288,0.5939,0.5765,0.5844,0.0,0.0,0.0,0.0,0.0,0.0,0.0,0.0,0.0,0.0,0.0,0.0,0.0,0.0,0.0,0.0,0.0,0.0,0.0,0.0,0.0,0.0,0.0,0.0,0.0,0.0,0.0,0.0,0.0,0.0,0.0,0.0,0.0,0.0,0.0,0.0,0.0,0.0,0.0,0.0,0.0,0.0,0.0,0.0,0.0,0.0,0.0,0.0,0.0,0.0,0.0,0.0,0.0,0.0,0.0,0.0,0.0,0.0,0.0,0.0,0.0,0.0,0.0,0.0,0.0,0.0,0.0,0.0,0.0,0.0,0.0,0.0,0.0,0.0,0.0,0.0,0.0,0.0,0.0,0.0,0.0,0.0,0.0,0.0,0.0,0.0,0.0,0.0,0.0,0.0,0.0,0.0,0.0,0.0,0.0,0.0,0.0,0.0,0.0,0.0,0.0,0.0,0.726,0.6537,0.6196,0.6641,0.643,0.6254,0.6254,0.5844,0.5457,0.0,0.0,0.0,0.0,0.0,0.0,0.0,0.0,0.0,0.0,0.0,0.0,0.0,0.0,0.0,0.0,0.0,0.0,0.0,0.0,0.0,0.0,0.0,0.0,0.0,0.0,0.0,0.0,0.0,0.0,0.0,0.0,0.0,0.0,0.0,0.0,0.0,0.0,0.0,0.0,0.0,0.0,0.0,0.0,0.0,0.0,0.0,0.0,0.0,0.0,0.0,0.0,0.0,0.0,0.0,0.0,0.0,0.0,0.0,0.0,0.0,0.0,0.0,0.0,0.0,0.0,0.0,0.0,0.0,0.0,0.0,0.0,0.0,0.0,0.0,0.0,0.0,0.0,0.0,0.0,0.0,0.0,0.0,0.0,0.0,0.0,0.0,0.0,0.0,0.0,0.0,0.0,0.0,0.0,0.0,0.0,0.0,0.0,0.0,0.0,0.0,0.0,0.0,0.6169,0.5946,0.5918,0.6051,0.5989,0.5898,0.5796,0.5569,0.5301,0.4999,0.0,0.0,0.0,0.0,0.0,0.0,0.0,0.0,0.0,0.0,0.0,0.0,0.0,0.0,0.0,0.0,0.0,0.0,0.0,0.0,0.0,0.0,0.0,0.0,0.0,0.0,0.0,0.0,0.0,0.0,0.0,0.0,0.0,0.0,0.0,0.0,0.0,0.0,0.0,0.0,0.0,0.0,0.0,0.0,0.0,0.0,0.0,0.0,0.0,0.0,0.0,0.0,0.0,0.0,0.0,0.0,0.0,0.0,0.0,0.0,0.0,0.0,0.0,0.0,0.0,0.0,0.0,0.0,0.0,0.0,0.0,0.0,0.0,0.0,0.0,0.0,0.0,0.0,0.0,0.0,0.0,0.0,0.0,0.0,0.0,0.0,0.0,0.0,0.0,0.0,0.0,0.0,0.0,0.0,0.0,0.0,0.0,0.0,0.0,0.0,0.0,0.0,0.5638,0.5671,0.5816,0.5878,0.5837,0.5768,0.5682,0.5531,0.5339,0.5106,0.0,0.0,0.0,0.0,0.0,0.0,0.0,0.0,0.0,0.0,0.0,0.0,0.0,0.0,0.0,0.0,0.0,0.0,0.0,0.0,0.0,0.0,0.0,0.0,0.0,0.0,0.0,0.0,0.0,0.0,0.0,0.0,0.0,0.0,0.0,0.0,0.0,0.0,0.0,0.0,0.0,0.0,0.0,0.0,0.0,0.0,0.0,0.0,0.0,0.0,0.0,0.0,0.0,0.0,0.0,0.0,0.0,0.0,0.0,0.0,0.0,0.0,0.0,0.0,0.0,0.0,0.0,0.0,0.0,0.0,0.0,0.0,0.0,0.0,0.0,0.0,0.0,0.0,0.0,0.0,0.0,0.0,0.0,0.0,0.0,0.0,0.0,0.0,0.0,0.0,0.0,0.0,0.0,0.0,0.0,0.0,0.0,0.0,0.0,0.0,0.0,0.0,0.5552,0.5648,0.5706,0.5691,0.5601,0.553,0.553,0.5267,0.5134,0.5128,0.0,0.0,0.0,0.0,0.0,0.0,0.0,0.0,0.0,0.0,0.0,0.0,0.0,0.0,0.0,0.0,0.0,0.0,0.0,0.0,0.0,0.0,0.0,0.0,0.0,0.0,0.0,0.0,0.0,0.0,0.0,0.0,0.0,0.0,0.0,0.0,0.0,0.0,0.0,0.0,0.0,0.0,0.0,0.0,0.0,0.0,0.0,0.0,0.0,0.0,0.0,0.0,0.0,0.0,0.0,0.0,0.0,0.0,0.0,0.0,-0.9454,0.0,0.0,0.0,0.0,0.0,0.0,0.0,0.0,0.0,0.0,0.0,0.0,0.0,0.0,0.0,0.0,0.0,0.0,0.0,0.0,0.0,0.0,0.0,0.0,0.0,0.0,0.0,0.0,0.0,0.0,0.0,0.0,0.0,0.0,0.0,0.0,0.0,0.0,0.0,0.0,0.0,0.542,0.5426,0.4956,0.3542,0.3391,0.3381,0.3381,0.3295,0.3247,0.329,0.0,0.0,0.0,0.0,0.0,0.0,0.0,0.0,0.0,0.0,0.0,0.0,0.0,0.0,0.0,0.0,0.0,0.0,0.0,0.0,0.0,0.0,0.0,0.0,0.0,0.0,0.0,0.0,0.0,0.0,0.0,0.0,0.0,0.0,0.0,0.0,0.0,0.0,0.0,0.0,0.0,0.0,0.0,0.0,0.0,0.0,0.0,0.0,0.0,0.0,0.0,0.0,0.0,0.0,0.0,0.0,0.0,0.0,0.0,0.0,0.0,-1.0015,0.0,0.0,0.0,0.0,0.0,0.0,0.0,0.0,0.0,0.0,0.0,0.0,0.0,0.0,0.0,0.0,0.0,0.0,0.0,0.0,0.0,0.0,0.0,0.0,0.0,0.0,0.0,0.0,0.0,0.0,0.0,0.0,0.0,0.0,0.0,0.0,0.0,0.0,0.0,0.0,0.5386,0.5393,0.5052,0.4102,0.2417,0.141,0.141,0.141,0.1402,0.1382,0.1406,0.0,0.0,0.0,0.0,0.0,0.0,0.0,0.0,0.0,0.0,0.0,0.0,0.0,0.0,0.0,0.0,0.0,0.0,0.0,0.0,0.0,0.0,0.0,0.0,0.0,0.0,0.0,0.0,0.0,0.0,0.0,0.0,0.0,0.0,0.0,0.0,0.0,0.0,0.0,0.0,0.0,0.0,0.0,0.0,0.0,0.0,0.0,0.0,0.0,0.0,0.0,0.0,0.0,0.0,-1.6971,-1.7051,-1.5989,-1.5627,-1.5721,-1.3494,-1.2059,-1.1206,0.0,0.0,0.0,0.0,0.0,0.0,0.0,0.0,0.0,0.0,0.0,0.0,0.0,0.0,0.0,0.0,0.0,0.0,0.0,0.0,0.0,0.0,0.0,0.0,0.0,-0.0,0.0437,0.0,0.0,0.0,0.0,0.0,0.0,0.0,0.0,0.0,0.0,0.0,0.0,0.5333,0.5406,0.5138,0.4523,0.1751,-0.0,-0.0,-0.0,-0.0,-0.0,-0.0,-0.0,0.0,0.0,0.0,0.0,0.0,0.0,0.0,0.0,0.0,0.0,0.0,0.0,0.0,0.0,0.0,0.0,0.0,0.0,0.0,0.0,0.0,0.0,0.0,0.0,0.0,0.0,0.0,0.0,0.0,0.0,0.0,0.0,-0.6516,-0.9122,0.0,0.0,0.0,0.0,0.0,0.0,0.0,0.0,0.0,0.0,0.0,0.0,0.0,0.0,-1.9321,-2.0445,-2.0567,-1.9661,-2.0101,-1.9595,-1.8334,-1.8206,-1.7577,-1.6567,-1.5847,0.0,-1.3721,-1.2649,0.0,0.0,0.0,0.0,0.0,0.0,0.0,0.0,0.0,0.0,0.0,0.0,0.0,0.0,0.0,0.0,0.0,0.0,0.0,0.0,0.0,0.0,-0.0,-0.0,-0.0,0.0075,0.0,0.0368,0.043,0.0698,0.0,0.0,0.0,0.0,0.0,0.0,0.0,0.0,0.5202,0.541,0.4182,0.1078,0.027,-0.0,-0.0,-0.0,-0.0,-0.0,-0.0,-0.0,-0.0,0.0187,0.0,0.0,0.0,0.0,0.0,0.0,0.0,0.0,0.0,0.0,0.0,0.0,0.0,0.0,0.0,0.0,0.0,0.0,0.0,0.0,0.0,0.0,0.0,0.0,0.0,0.0,0.0,0.0,0.0,-0.7779,-1.1068,-1.1914,-1.2088,-1.2681,0.0,0.0,0.0,0.0,0.0,0.0,0.0,0.0,0.0,-2.1428,-2.168,-2.1729,-2.1518,-2.225,-2.2479,-2.2269,-2.2683,-2.2513,-2.1807,-2.1541,-2.0803,-1.971,-1.9023,-1.7997,-1.6519,-1.4072,-1.2941,-1.2774,0.0,0.0,0.0,0.0,0.0,-1.0521,-0.9192,0.0,0.0,0.0,0.0,0.0,0.0,0.0,0.0,0.0,0.0,0.0,0.0,0.0,0.0,-0.0535,-0.0,-0.0,-0.0,-0.0,-0.0,0.0,0.0636,0.1186,0.1171,0.0,0.0,0.0,0.0,0.0,0.229,0.2357,0.1751,0.0202,-0.0,-0.0,-0.0,-0.0,-0.0,-0.0,-0.0,-0.0,-0.0,-0.0,0.0623,0.0,0.0,0.0,0.0,0.0,0.0,0.0,0.0,0.0,0.0,0.0,0.0,0.0,0.0,0.0,0.0,0.0,0.0,0.0,0.0,0.0,0.0,0.0,0.0,0.0,0.0,0.0,0.0,-1.2302,-1.3517,-1.3872,-1.4179,-1.486,0.0,0.0,0.0,0.0,0.0,0.0,-2.2096,-2.2523,-2.2996,-2.3591,-2.3774,-2.3839,-2.38,-2.4366,-2.4609,-2.4572,-2.4981,-2.4869,-2.4243,-2.3958,-2.313,-2.1985,-2.1155,-2.0001,-1.854,-1.5628,-1.4294,-1.4018,-1.3405,-1.3199,-1.3211,-1.2242,-1.1899,-1.1711,-1.0001,-0.9327,-0.9075,-0.7502,0.0,-0.6593,-0.5947,0.0,0.0,0.0,0.0,-0.5748,-0.5792,-0.5969,-0.5424,-0.2335,-0.0783,-0.0314,-0.1413,-0.1649,-0.1318,0.0,-0.0,-0.0,-0.0,0.0,0.0,0.0,0.0,-0.0,-0.0,-0.0,-0.0,-0.0,-0.0,-0.0,-0.0,-0.0,-0.0,-0.0,-0.0,-0.0,-0.0,-0.0,-0.0,-0.0,0.0,0.0,0.0,0.0,0.0,0.0,0.0,0.0,0.0,0.0,0.0,0.0,0.0,0.0,0.0,0.0,0.0,0.0,0.0,0.0,0.0,0.0,0.0,0.0,0.0,0.0,0.0,0.0,0.0,-1.4974,-1.5729,0.0,0.0,0.0,0.0,-2.0501,-2.1594,-2.2711,-2.3816,-2.3904,-2.4406,-2.5407,-2.605,-2.659,-2.7072,-2.8063,-2.7889,-2.6352,-2.6925,-2.6093,-2.4189,-2.4167,-2.3362,-2.1985,-2.1155,-2.0186,-1.9107,-1.7357,-1.6129,-1.5249,-1.4035,-1.3847,-1.4048,-1.2664,-1.2243,-1.2121,-1.029,-0.9539,-0.9139,-0.8226,-0.7372,-0.6719,-0.6654,-0.6075,0.0,0.0,-0.5481,-0.5627,-0.5776,-0.5798,-0.5885,-0.5944,-0.2901,-0.1099,-0.5129,-0.6009,-0.4774,0.0,-0.0,-0.0,-0.0,0.0,-0.0,-0.0,-0.0,-0.0,-0.0,-0.0,-0.0,-0.0,-0.0,-0.0,-0.0,-0.0,-0.0,-0.0,-0.0,-0.0,-0.0,-0.0,-0.0,-0.0,0.0128,0.0,0.0,0.0,0.0,0.0,0.0,0.0,0.0,0.0,0.0,0.0,0.0,0.0,0.0,0.0,0.0,0.0,0.0,0.0,0.0,0.0,0.0,0.0,0.0,0.0,0.0,0.0,0.0,-1.7734,-1.8762,0.0,0.0,-2.1126,-2.1506,-2.1707,-2.2761,-2.3866,-2.4971,-2.5021,-2.5862,-2.7682,-2.7256,-2.7419,-2.8335,-2.8386,-2.8076,-2.7496,-2.7755,-2.7225,-2.6215,-2.6215,-2.5157,-2.339,-2.3119,-2.1754,-1.9655,-1.9042,-1.8006,-1.6626,-1.5871,-1.5679,-1.5652,-1.3998,-1.3292,-1.29,-1.1166,-1.0341,-0.9977,-0.9139,-0.7897,-0.6719,-0.6719,-0.6075,-0.5449,-0.5481,-0.5613,-0.5762,-0.5911,-0.5996,-0.5896,-0.5157,-0.383,-0.2971,-0.3997,-0.5347,-0.5786,-0.4033,-0.2685,-0.1763,-0.1746,-0.1765,-0.1725,-0.1725,-0.1712,-0.1769,-0.1769,-0.1755,-0.1744,-0.1744,-0.0671,-0.0,-0.0,-0.0,-0.0,-0.0,-0.0,-0.0,-0.0,-0.0,-0.0,-0.0,-0.0,0.1019,0.0,0.0,0.0,0.0,0.0,0.0,0.0,0.0,0.0,0.0,0.0,0.0,0.0,0.0,0.0,0.0,0.0,0.0,0.0,0.0,0.0,0.0,0.0,0.0,0.0,0.0,-1.8394,-1.9605,-2.0611,-2.1533,-2.248,-2.2761,-2.3025,-2.3389,-2.4117,-2.5096,-2.6377,-2.6264,-2.6929,-2.8599,-2.7946,-2.7908,-2.8637,-2.8285,-2.8009,-2.7821,-2.7821,-2.7544,-2.6992,-2.6804,-2.5807,-2.4208,-2.3851,-2.2264,-1.9891,-1.9745,-1.8879,-1.7549,-1.7119,-1.7041,-1.6944,-1.5309,-1.4567,-1.4182,-1.2152,-1.1118,-1.0498,-0.9919,-0.8742,-0.7567,-0.7567,-0.6793,-0.5841,-0.5947,-0.5856,-0.5823,-0.5925,-0.6108,-0.6028,-0.516,-0.4927,-0.4761,-0.4178,-0.5186,-0.609,-0.5864,-0.4675,-0.3747,-0.364,-0.3602,-0.3586,-0.3586,-0.3628,-0.3605,-0.3605,-0.3643,-0.3623,-0.3623,-0.2546,-0.1339,-0.0134,-0.0,-0.0,-0.0,-0.0,-0.0,-0.0,-0.0,-0.0,-0.0,-0.0,0.0471,0.1475,0.0,0.0,0.0,0.0,0.0,0.0,0.0,0.0,0.0,0.0,0.0,0.0,0.0,0.0,0.0,0.0,0.0,0.0,0.0,0.0,0.0,0.0,0.0,-1.6665,-1.7203,-1.8359,-2.0409,-2.1095,-2.1874,-2.3144,-2.3791,-2.4556,-2.5573,-2.5649,-2.6352,-2.7996,-2.7557,-2.7519,-2.8084,-2.8072,-2.8059,-2.8084,-2.8059,-2.7783,-2.7256,-2.7256,-2.6979,-2.6508,-2.5862,-2.5105,-2.4148,-2.318,-2.1638,-1.9918,-1.9488,-1.8787,-1.7969,-1.7559,-1.7656,-1.7813,-1.6413,-1.5981,-1.5655,-1.3217,-1.1568,-1.0631,-1.0624,-0.9977,-0.9274,-0.9274,-0.8091,-0.6719,-0.6654,-0.6245,-0.5793,-0.5793,-0.6027,-0.6264,-0.6264,-0.6271,-0.6234,-0.6074,-0.5966,-0.5989,-0.5827,-0.5792,-0.5712,-0.5425,-0.5397,-0.5394,-0.5394,-0.5419,0.0,-0.5401,-0.5416,-0.5393,-0.5393,-0.5396,-0.3964,-0.0469,-0.0134,-0.0066,-0.0,-0.0,-0.0,-0.0,-0.0,-0.0,-0.0,-0.0,-0.0,-0.0,0.0,0.0,0.0,0.0,0.0,0.0,0.0,0.0,0.0,0.0,0.0,0.0,0.0,0.0,0.0,0.0,0.0,0.0,0.0,0.0,0.0,0.0,-1.6665,-1.6665,-1.9128,-2.1226,-2.2252,-2.4281,-2.5873,-2.6634,-2.6879,-2.6929,-2.6829,-2.6816,-2.7017,-2.7494,-2.6979,-2.7118,-2.8072,-2.7331,-2.7105,-2.7507,-2.7105,-2.6841,-2.6747,-2.6747,-2.6603,-2.6508,-2.5862,-2.5253,-2.4591,-2.3899,-2.2436,-2.0391,-2.0324,-1.9365,-1.7998,-1.7881,-1.791,-1.7852,-1.6793,-1.5394,-1.3837,-1.1983,-1.1197,-1.0835,-1.0628,-0.9977,-0.9204,-0.8549,-0.7567,-0.6588,-0.5947,-0.5698,-0.5647,-0.5647,-0.5789,-0.5932,-0.5932,-0.5935,-0.5925,-0.5878,-0.5867,-0.5827,-0.5677,-0.5688,-0.5637,-0.5524,-0.5497,-0.5426,-0.5426,-0.5393,0.0,-0.5433,-0.5396,-0.5369,-0.5369,-0.5379,-0.4973,-0.4023,-0.2744,-0.1378,-0.0063,-0.0,-0.0,-0.0,-0.0,-0.0,-0.0,-0.0,-0.0,0.0,0.0,0.0,0.0,0.0,0.0,0.0,0.0,0.0,0.0,0.0,0.0,0.0,0.0,0.0,0.0,0.0,0.0,0.0,0.0,0.0,0.0,-1.7705,-1.8512,-1.8704,-2.0562,-2.2626,-2.4394,-2.6009,-2.7285,-2.7999,-2.7896,-2.7821,-2.7959,-2.7544,-2.7494,-2.7946,-2.7231,-2.7105,-2.7745,-2.6917,-2.6615,-2.6929,-2.6684,-2.6533,-2.6533,-2.6533,-2.6395,-2.6076,-2.5523,-2.4983,0.0,-2.3492,-2.2163,-2.059,-2.0204,-1.9233,0.0,0.0,0.0,0.0,0.0,-1.5801,-1.4044,-1.2576,-1.1732,-1.1283,-1.0742,-1.0238,-0.9722,-0.9256,-0.8479,-0.7637,-0.6728,-0.6336,-0.6062,-0.5728,-0.5694,-0.58,-0.58,-0.58,-0.5786,-0.5725,-0.5711,-0.5671,-0.5521,0.0,0.0,-0.5494,-0.542,-0.5428,-0.5428,-0.5428,-0.5428,-0.5428,-0.5428,-0.5428,-0.5428,-0.5432,-0.5372,-0.5379,-0.4428,0.0,0.0,0.0,-0.0,-0.0,-0.0,0.0,0.0,0.0,-0.0,-0.0,0.0,0.0,0.0,0.2138,0.2555,0.0,0.0,0.0,0.0,0.0,0.0,0.0,0.0,0.0,0.0,0.0,0.0,0.0,0.0,0.0,0.0,-1.9328,-2.1254,-2.2174,-2.2271,-2.3383,-2.6368,-2.6761,-2.7271,-2.8211,-2.7858,-2.7946,-2.8863,-2.7959,-2.7808,-2.8787,0.0,0.0,0.0,0.0,-2.6533,-2.6533,-2.6533,-2.6533,-2.6533,-2.6533,-2.6151,-2.5573,-2.5059,-2.4519,-2.3904,-2.2627,-2.1553,-2.0655,-1.9824,-1.8844,-1.8008,-1.8008,-1.8008,-1.7969,-1.7455,-1.6553,0.0,0.0,0.0,0.0,-1.0877,-1.0624,-1.0561,-1.0498,-0.9913,-0.9139,-0.8221,-0.7442,-0.6703,-0.5902,-0.5727,-0.5752,-0.5752,-0.5752,-0.5718,-0.5593,-0.5562,-0.5521,-0.5456,-0.5428,-0.5428,-0.5428,-0.5428,-0.5428,-0.5428,-0.5428,-0.5428,-0.5428,-0.5428,-0.5428,-0.5428,0.0,0.0,-0.5376,-0.5376,-0.5384,-0.5371,-0.1993,-0.0,-0.0,-0.0,-0.0,-0.0,-0.0,-0.0,-0.0,-0.0,-0.0,-0.0,-0.0,-0.0,0.0,0.0,0.0,0.0,0.0,0.0,0.0,0.0,0.0,0.0,0.0,0.0,0.0,0.0,0.0,-1.9613,-2.0828,-2.2589,-2.5937,-2.6335,-2.6606,-2.7222,-2.7971,-2.8712,-2.9415,-2.9377,-2.9202,-2.895,-2.8323,-2.8047,-2.8247,-2.7218,0.0,-2.7268,-2.6753,-2.6533,-2.6533,-2.6533,-2.6533,-2.6533,0.0,0.0,-2.5573,-2.5059,-2.4519,-2.3966,-2.3193,-2.2384,-2.1553,-2.0719,-1.9431,-1.8008,-1.8008,-1.8008,-1.793,-1.7055,-1.6342,-1.5535,-1.3651,-1.2649,-1.1931,-1.0946,-1.0624,-1.0498,-0.9786,-0.9466,0.0,-0.8221,-0.74,-0.6709,-0.6515,-0.6015,-0.5447,-0.5447,-0.5447,-0.544,-0.5413,-0.5473,-0.5463,-0.5432,-0.5428,-0.5428,-0.5428,-0.5428,-0.5428,-0.5428,-0.5428,-0.5428,-0.5428,-0.5428,-0.5428,-0.5428,-0.5428,-0.5428,-0.5432,-0.5432,-0.5373,-0.5424,-0.1992,-0.0,-0.0,-0.0,-0.0,-0.0,-0.0,-0.0,-0.0,-0.0,-0.0,-0.0,-0.0,-0.0,0.0,0.0,0.0,0.0,0.0,0.0,0.0,0.0,0.0,0.0,0.0,-1.3011,0.0,0.0,-1.8637,-2.086,-2.2882,-2.4998,-2.7222,-2.7888,-2.8206,-2.8206,-2.8859,-2.9365,-2.9365,-2.9365,-2.9365,-2.9365,-2.8837,-2.8649,-2.8925,-2.7896,-2.7406,-2.7682,-2.6892,-2.6533,-2.6533,-2.6533,-2.6382,-2.6025,-2.6025,-2.5598,-2.4782,-2.4531,-2.4104,-2.3491,-2.2813,-2.2261,-2.1815,-2.0462,-1.9431,-1.8596,-1.8134,-1.8008,-1.791,-1.7273,-1.6712,-1.6039,-1.4461,-1.3324,-1.2429,-1.1527,-1.0926,-1.0498,-1.011,-0.9977,-0.9786,-0.8877,-0.8027,-0.7242,-0.6785,-0.6075,-0.5428,-0.5428,-0.5428,-0.5428,-0.5428,-0.5428,-0.5428,-0.5428,-0.5423,-0.5477,-0.5477,-0.5535,-0.5532,-0.5452,-0.5428,-0.5428,-0.5428,-0.5428,-0.5428,-0.5428,-0.5428,-0.5428,-0.5428,-0.5428,-0.5401,-0.5401,-0.2821,-0.0913,-0.0064,-0.0,-0.0,-0.0,-0.0,-0.0,-0.0,-0.0,-0.0,-0.0,-0.0,-0.0,0.0,0.0,0.0,0.0,0.0,0.0,0.0,0.0,-0.8333,-1.2051,-1.2959,-1.397,-1.6732,-1.8745,-2.0514,-2.1951,-2.4751,-2.7031,-2.7661,-2.8447,-2.885,-2.8637,-2.9114,-2.9327,-2.8963,-2.8925,-2.9164,-2.9741,-2.9151,-2.9063,-2.9754,-2.8511,-2.7883,-2.8097,-2.703,-2.6533,-2.6533,-2.6352,-2.605,-2.5598,-2.5485,-2.4933,-2.4004,-2.4004,-2.3678,-2.3078,-2.2445,-2.2063,-2.1753,-2.0204,-1.9431,-1.9233,-1.8327,-1.7959,-1.7852,-1.7598,-1.7236,-1.666,-1.5448,-1.4162,-1.2977,-1.2104,-1.1288,-1.0624,-1.0624,-1.0624,-1.0434,-0.9722,-0.8807,-0.7832,-0.7111,-0.6207,-0.5428,-0.5428,-0.5428,-0.5435,-0.5399,-0.5473,-0.5473,-0.5473,-0.5528,-0.5623,-0.5596,-0.5708,-0.5711,-0.5447,-0.543,-0.5426,-0.5435,-0.5456,-0.5463,-0.5432,-0.5428,-0.5428,-0.5428,-0.5428,-0.5432,-0.5379,-0.4023,-0.2275,-0.0067,-0.0,-0.0,-0.0,-0.0,-0.0,-0.0,-0.0,-0.0,-0.0,-0.0,-0.0,0.4919,0.2445,-0.0112,-0.1497,-0.3319,-0.5085,0.0,0.0,-0.8678,-1.0862,-1.2164,-1.3672,-1.6213,-1.8006,-2.0172,-2.3601,-2.5564,-2.7107,-2.8524,-2.885,-2.8561,-2.7582,-2.7959,-2.8461,-2.8888,-2.8925,-2.9164,-2.9741,-2.88,-2.8662,-2.9729,-2.7795,-2.7092,-2.8072,-2.703,-2.6533,-2.6533,-2.595,-2.5661,-2.5586,-2.5134,-2.4594,-2.4004,-2.4004,-2.3678,-2.3065,-2.3005,-2.2567,-2.1815,-2.0846,-2.0009,-1.9233,-1.8327,-1.7783,-1.749,-1.7822,-1.7676,-1.7106,-1.5864,-1.4617,-1.3359,-1.2173,-1.1288,-1.0624,-1.0624,-1.0624,-1.0561,-1.0498,-0.9256,-0.7962,-0.7897,-0.6666,-0.5428,-0.5428,-0.5428,-0.5466,-0.5535,-0.5562,-0.5562,-0.5562,-0.5681,-0.5739,-0.561,-0.5708,-0.5745,-0.5589,-0.5671,-0.5657,-0.5463,-0.5481,-0.5511,-0.5442,-0.5428,-0.5428,-0.5428,-0.5428,-0.5432,-0.5379,-0.5243,-0.3551,-0.0134,-0.0,-0.0,-0.0,-0.0,-0.0,-0.0,-0.0,-0.0,-0.0,-0.0,-0.0,0.4912,0.3564,0.0,0.0,-0.3229,-0.5638,-0.6602,-0.7461,-0.8663,-1.0757,-1.213,-1.3648,-1.6234,-1.8497,-2.0907,0.0,-2.5742,-2.7347,-2.8287,-2.7896,-2.7193,-2.6402,-2.6239,-2.6666,-2.7858,-2.7971,-2.8335,-2.9227,-2.885,-2.8787,-2.9264,-2.8097,-2.7482,-2.762,-2.6866,-2.6533,-2.6533,-2.5887,-2.5435,-2.5146,-2.4607,-2.4042,-2.3502,-2.3502,-2.3364,-2.3078,-2.3078,-2.2628,-2.1815,-2.0974,-2.0074,-1.9233,-1.8327,-1.79,-1.7773,-1.7949,-1.7422,-1.6621,-1.63,-1.4926,-1.3145,-1.2683,-1.1663,-1.0624,-1.0624,-1.0624,-1.0624,-1.0624,-0.9326,-0.7992,-0.8123,-0.6747,-0.5452,-0.5474,-0.5426,-0.5446,-0.5443,-0.5457,-0.5457,-0.5457,-0.5644,-0.5783,-0.5725,-0.5911,-0.602,-0.5867,-0.582,-0.5755,-0.5633,-0.5599,-0.5532,-0.5446,-0.5428,-0.5428,-0.5428,-0.5428,-0.5428,-0.5369,-0.5376,-0.47,-0.3213,-0.1138,-0.0,-0.0,-0.0,-0.0,-0.0,-0.0,-0.0,-0.0,-0.0,-0.0,0.4849,0.0,0.0,0.0867,-0.287,-0.5905,-0.6474,-0.7342,-0.8551,-1.0238,-1.1791,-1.3557,-1.5816,-1.836,-2.0866,-2.3122,-2.5362,-2.6968,-2.7595,-2.6829,-2.6013,-2.5448,-2.4644,-2.4782,-2.644,-2.6879,-2.7507,-2.8612,-2.8561,-2.8536,-2.8687,-2.8034,-2.7544,-2.7293,-2.6753,-2.6533,-2.6533,-2.5737,-2.5197,-2.4808,-2.4104,-2.354,-2.3078,-2.3078,-2.3078,-2.3078,-2.3078,-2.2763,-2.2125,-2.1037,-2.0204,-1.9562,-1.8462,-1.7939,-1.7842,-1.7842,-1.7236,-1.6455,-1.666,-1.5284,-1.3447,-1.3103,-1.2089,-1.0863,-1.0688,-1.0624,-1.0624,-1.0624,-0.9326,-0.8002,-0.8097,-0.6768,-0.5456,-0.5501,-0.5443,-0.5439,-0.5416,-0.5423,-0.5437,-0.5477,-0.5688,-0.5864,-0.5864,-0.6084,-0.6224,-0.6108,-0.6,-0.5898,-0.5813,-0.5711,-0.5589,-0.544,-0.5423,-0.5406,-0.5432,-0.5428,-0.5428,-0.5428,-0.5369,-0.5376,-0.5379,-0.2878,-0.1004,-0.0,-0.0,-0.0,-0.0,-0.0,-0.0,-0.0,-0.0,-0.0,0.4643,0.0,0.3998,0.1968,-0.2199,-0.5816,-0.5759,-0.7146,-0.8409,-0.8648,-1.0904,-1.3276,-1.4492,-1.6745,-1.9427,-2.2621,-2.4296,-2.5523,-2.6433,-2.6,-2.5435,-2.4908,-2.3389,-2.305,0.0,-2.5862,-2.6942,-2.8047,-2.7632,-2.757,-2.8109,-2.7105,-2.6753,-2.7268,-2.6753,-2.6533,-2.6533,-2.5385,-2.4845,-2.4808,-2.3629,-2.309,-2.3078,-2.3078,-2.3078,-2.3078,-2.3078,-2.3078,-2.2944,-2.129,-2.059,-2.0398,-1.8654,-1.7764,-1.7402,-1.7402,-1.7373,-1.7285,-1.6875,-1.5855,-1.4665,-1.343,-1.2451,-1.1648,-1.0863,-1.0624,-1.0624,-1.0624,-0.9326,-0.8027,-0.8032,-0.6732,-0.5428,-0.5432,-0.5432,-0.547,-0.5552,-0.5583,-0.5623,-0.5762,-0.5915,-0.6023,-0.6023,-0.6156,-0.6335,-0.6254,-0.6251,-0.6139,-0.584,-0.5796,-0.5739,-0.5599,-0.5583,-0.5521,-0.5439,-0.5428,-0.5428,-0.5428,-0.5428,-0.5432,-0.5379,-0.5309,-0.3618,-0.0067,-0.0,-0.0,-0.0,-0.0,-0.0,-0.0,-0.0,-0.0,0.5529,0.0,0.4517,0.2116,-0.0832,-0.3528,-0.5176,-0.6423,-0.7391,-0.7782,-0.918,-1.0933,-1.2919,-1.4827,-1.7139,-2.0537,-2.258,-2.422,-2.5707,-2.5724,-2.5272,-2.4381,-2.3778,0.0,0.0,0.0,0.0,-2.6879,-2.6841,-2.6979,-2.7532,-2.7205,-2.6917,-2.6741,-2.6553,-2.6533,-2.6533,-2.5711,-2.5159,-2.4808,-2.3616,-2.3078,-2.3078,-2.3078,-2.3078,-2.3078,-2.3078,-2.2823,-2.2199,-2.1037,-2.0268,-1.9628,-1.8462,-1.7754,-1.7422,-1.7695,-1.7246,-1.6484,-1.6338,-1.5124,-1.3595,-1.3111,-1.2089,-1.0926,-1.0681,-1.0624,-1.0624,-1.0624,-0.9779,-0.8716,-0.8281,-0.7215,-0.6168,-0.562,-0.5437,-0.5442,-0.5426,-0.5518,-0.5603,-0.565,-0.5861,-0.603,-0.603,-0.6159,-0.6338,-0.6338,-0.6338,-0.6186,-0.5979,-0.5952,-0.5895,-0.5745,-0.5732,-0.5708,-0.5657,-0.5566,-0.5511,-0.5511,-0.5416,-0.5428,-0.5432,-0.5376,-0.4837,-0.3625,-0.1205,-0.0,-0.0,-0.0,-0.0,-0.0,-0.0,-0.0,0.6331,0.5836,0.5029,0.3453,0.0914,-0.1888,-0.4571,-0.5602,-0.6282,-0.7225,-0.8182,-0.9562,-1.1912,-1.3415,-1.5444,-1.9015,-2.0815,-2.2575,-2.4728,-2.4845,-2.4607,-2.433,-2.3941,0.0,0.0,0.0,0.0,-2.6,-2.6408,-2.6615,-2.6967,-2.6979,-2.6829,-2.6533,-2.6533,-2.6533,-2.6533,-2.5699,-2.4946,-2.4217,-2.3829,-2.3466,-2.3078,-2.3351,-2.3265,-2.3078,-2.3078,-2.2823,-2.2249,-2.1101,-2.0268,-1.9628,-1.8462,-1.7842,-1.7607,-1.7568,-1.7021,-1.6299,-1.6299,-1.5041,-1.3364,-1.307,-1.2089,-1.0989,-1.0688,-1.0624,-1.0624,-1.0624,-0.9977,-0.9133,-0.8374,-0.7516,-0.6605,-0.5832,-0.5589,-0.5518,-0.5518,-0.5596,-0.5681,-0.5735,-0.5898,-0.6047,-0.6101,-0.6196,-0.6338,-0.6338,-0.6338,-0.6224,-0.6125,-0.6112,-0.6054,-0.5898,-0.5881,-0.5861,-0.5806,-0.5718,-0.5644,-0.5593,-0.5498,-0.5416,-0.5428,-0.5369,-0.5379,-0.5396,-0.2479,-0.0671,-0.0,-0.0,-0.0,-0.0,-0.0,-0.0,0.6905,0.6127,0.5534,0.5721,0.2927,-0.0734,-0.4015,-0.4782,-0.5277,-0.6894,-0.7913,-0.9189,0.0,0.0,-1.43,-1.7909,-1.931,-2.0869,-2.3654,-2.3591,-2.374,0.0,0.0,0.0,0.0,0.0,0.0,-2.5473,0.0,-2.6471,-2.6533,-2.6533,-2.6533,-2.6533,-2.6533,-2.6533,-2.6533,-2.5372,-2.428,-2.3178,-2.428,-2.4217,-2.3201,-2.3753,-2.3678,-2.3078,-2.3078,-2.3078,-2.2884,-2.129,-2.059,-2.0333,-1.8633,-1.7959,-1.7842,-1.6967,-1.6636,-1.667,-1.6626,-1.5572,-1.4094,-1.3252,-1.2451,-1.1648,-1.0863,-1.0624,-1.0624,-1.0624,-0.9989,-0.9215,-0.8446,-0.7627,-0.679,-0.6051,-0.5871,-0.58,-0.58,-0.581,-0.5857,-0.6,-0.6037,-0.6088,-0.6237,-0.6338,-0.6338,-0.6338,-0.6338,-0.6338,-0.6338,-0.6338,-0.6203,-0.6057,-0.604,-0.5983,-0.5837,-0.5817,-0.5752,-0.561,-0.5593,-0.5521,-0.5435,-0.5428,-0.5372,-0.5396,-0.3623,-0.1811,-0.0,-0.0,-0.0,-0.0,-0.0,-0.0,0.8167,0.7478,0.6717,0.5772,0.35,0.0852,-0.1783,-0.3657,-0.5176,-0.6505,-0.6975,-0.7948,0.0,0.0,0.0,-1.6652,-1.9126,0.0,-2.3857,-2.5358,0.0,-2.6628,0.0,-2.6,-2.5448,-2.5523,0.0,0.0,-2.5372,-2.5598,-2.6483,-2.6533,-2.6533,-2.6533,-2.6533,-2.6533,-2.6533,-2.5372,-2.4682,-2.4393,-2.4268,-2.4054,-2.3791,-2.3929,-2.3678,-2.3078,-2.3078,-2.2763,-2.2125,-2.1037,-2.0204,-1.9465,-1.8111,-1.7344,-1.6967,-1.6753,-1.6318,-1.5791,-1.6123,-1.5378,-1.4094,-1.3252,-1.2451,-1.1648,-1.0863,-1.0624,-1.0624,-1.0624,-1.0586,-1.0371,-0.9565,-0.8759,-0.7925,-0.7128,-0.6365,-0.58,-0.58,-0.5891,-0.5983,-0.6023,-0.6122,-0.6213,-0.6254,-0.6338,-0.6338,-0.6338,-0.6338,-0.6338,-0.6338,-0.6338,-0.6244,-0.6207,-0.6203,-0.6186,-0.6149,-0.6037,-0.5908,-0.5755,-0.5647,-0.5521,-0.5435,-0.5428,-0.5372,-0.5396,-0.3623,-0.1811,-0.0,-0.0,-0.0,-0.0,-0.0,-0.0,0.8771,0.8061,0.7192,0.5737,0.4341,0.2508,-0.0772,-0.3129,-0.5035,-0.6346,-0.6588,0.0,-1.0297,0.0,0.0,0.0,0.0,0.0,-2.2936,-2.4633,-2.6025,0.0,-2.7494,0.0,-2.6427,-2.6414,-2.6395,0.0,-2.5711,-2.5812,-2.6496,-2.6533,-2.6533,-2.6533,-2.6533,-2.6339,-2.6088,-2.5724,-2.5297,-2.482,-2.4745,-2.4456,-2.4004,-2.4004,-2.3678,-2.3078,0.0,-2.2823,-2.2298,-2.0859,-2.0012,-1.9415,-1.7976,-1.7119,-1.6694,-1.6943,-1.6582,-1.5996,-1.6045,-1.5657,-1.481,-1.3424,-1.2553,-1.1862,-1.0999,-1.0835,-1.0942,-1.0942,-1.1056,-1.1007,-1.023,-0.9735,-0.9051,-0.7695,-0.7037,-0.6566,-0.5988,-0.6023,-0.6132,-0.6132,-0.6203,-0.6338,-0.6338,-0.6338,-0.6338,-0.6338,-0.6338,-0.6338,-0.6338,-0.6338,-0.6338,-0.6338,-0.6338,-0.6338,-0.6338,-0.6179,-0.6064,-0.5911,-0.5766,-0.5616,-0.5467,-0.5463,-0.5372,-0.5396,-0.3623,-0.1811,-0.0,-0.0,-0.0,-0.0,-0.0,-0.0,0.9114,0.8208,0.7228,0.5839,0.5192,0.3796,-0.0355,-0.3085,-0.5152,-0.6322,0.0,-0.7688,-1.034,-1.1542,-1.2805,-1.484,0.0,-1.836,-2.1569,-2.3048,-2.4723,-2.7222,-2.7996,-2.8084,-2.7457,-2.6967,-2.6615,-2.6533,-2.6533,-2.6533,-2.6533,-2.6533,-2.6496,-2.6352,-2.6276,-2.5963,-2.5385,-2.595,-2.5724,-2.472,-2.5247,-2.4971,-2.4004,-2.4004,-2.3678,-2.3078,0.0,0.0,-2.2652,-2.0742,-1.9879,-1.9503,-1.796,-1.7148,-1.6855,-1.7109,-1.6973,-1.6582,-1.6133,-1.5916,-1.5537,-1.3596,-1.268,-1.2193,-1.1311,-1.1196,-1.1423,-1.1423,-1.1456,-1.1329,-1.0783,-1.0503,-1.0008,-0.8157,-0.7793,-0.7503,-0.6286,-0.6149,-0.6338,-0.6338,-0.6338,-0.6338,-0.6338,-0.6338,-0.6338,-0.6338,-0.6338,-0.6338,-0.6338,-0.6338,-0.6338,-0.6338,-0.6338,-0.6338,-0.6338,-0.6338,-0.6186,-0.601,-0.5895,-0.5749,-0.5566,-0.545,-0.5393,-0.5396,-0.3623,-0.1814,-0.0,-0.0,-0.0,-0.0,-0.0,-0.0,0.9586,0.8607,0.7421,0.6216,0.5403,0.399,0.0532,-0.3359,0.0,0.0,-0.7534,-0.8835,-1.0501,-1.1705,-1.2984,-1.4596,0.0,0.0,0.0,0.0,-2.5981,0.0,0.0,0.0,0.0,0.0,0.0,0.0,0.0,0.0,-2.6533,-2.6533,-2.6239,-2.5762,-2.5335,-2.4845,-2.428,-2.482,-2.4782,-2.4155,-2.4695,-2.4619,-2.4004,-2.4004,-2.3678,-2.3078,0.0,0.0,-2.1026,-2.0628,-1.963,-1.8245,-1.7642,-1.7334,-1.7187,-1.6533,-1.624,-1.6113,-1.5674,-1.5105,-1.4363,-1.3329,-1.3062,-1.29,-1.1442,-1.1196,-1.1423,-1.1423,-1.1603,-1.1804,-1.1637,-1.1155,-1.0444,-0.9144,-0.8314,-0.7503,-0.6286,-0.6149,-0.6338,-0.6338,-0.6338,-0.6338,-0.6338,-0.6338,-0.6338,-0.6338,-0.6338,-0.6338,-0.6338,-0.6338,-0.6338,-0.6338,-0.6338,-0.6338,-0.6338,-0.6338,-0.6142,-0.5861,-0.5935,-0.5813,-0.5416,-0.5498,-0.5501,-0.5396,-0.3623,-0.1831,-0.0,-0.0,-0.0,-0.0,-0.0,-0.0,0.9554,0.837,0.7025,0.6179,0.495,0.3294,0.0608,0.0,0.0,0.0,-0.7741,-0.9148,-1.0551,-1.1748,0.0,0.0,0.0,0.0,0.0,0.0,0.0,0.0,0.0,0.0,0.0,0.0,0.0,0.0,0.0,0.0,-2.6546,-2.6176,-2.5762,-2.5209,-2.4946,-2.482,-2.4833,-2.482,-2.482,-2.482,-2.4531,-2.4255,-2.3991,-2.369,-2.3389,-2.3053,-2.2824,0.0,-2.0862,-1.9905,-1.8776,-1.7653,-1.6957,-1.6689,-1.667,-1.6484,-1.6406,-1.6377,-1.6172,-1.5524,-1.4631,-1.3823,-1.33,-1.2828,-1.1805,-1.165,-1.1884,-1.1884,-1.1877,-1.1904,-1.2058,-1.1715,-1.1004,-0.9494,-0.7934,-0.6742,-0.6222,-0.6207,-0.6338,-0.6338,-0.6338,-0.6338,-0.6338,-0.6338,-0.6338,-0.6338,-0.6338,-0.6338,-0.6338,-0.6338,-0.6338,-0.6338,-0.6338,-0.6338,-0.6338,-0.6338,-0.6196,-0.6051,-0.5959,-0.5817,-0.5599,-0.5511,-0.5484,-0.5576,-0.3701,-0.1804,-0.0,-0.0,-0.0,-0.0,-0.0,-0.0,0.9413,0.8137,0.6647,0.629,0.4375,0.2045,-0.0,-0.3727,0.0,0.0,-0.7947,-0.9511,-1.061,0.0,-1.2963,0.0,-1.4844,0.0,0.0,0.0,0.0,0.0,0.0,0.0,0.0,0.0,0.0,0.0,0.0,0.0,-2.6546,-2.5912,-2.541,-2.4996,-2.4883,-2.4958,-2.5247,-2.4971,-2.4908,-2.5059,-2.4343,-2.3929,-2.3791,-2.3226,-2.283,-2.2673,-2.2126,0.0,0.0,-1.8983,-1.7958,-1.7199,-1.6496,-1.626,-1.6377,-1.6641,-1.6665,-1.6719,-1.6621,-1.593,-1.4969,-1.4294,-1.3483,-1.2665,-1.2079,-1.2031,-1.2225,-1.2285,-1.2051,-1.1857,-1.2211,-1.1939,-1.1078,-0.9238,-0.7381,-0.6071,-0.6227,-0.6338,-0.6338,-0.6338,-0.6338,-0.6338,-0.6338,-0.6338,-0.6338,-0.6338,-0.6338,-0.6338,-0.6338,-0.6338,-0.6338,-0.6338,-0.6338,-0.6338,-0.6338,-0.6338,-0.6247,-0.6213,-0.6017,-0.5857,-0.5762,-0.5562,-0.5555,-0.5628,-0.4155,-0.2249,-0.0,-0.0,-0.0,-0.0,-0.0,-0.0,0.9301,0.8151,0.6894,0.6953,0.391,0.034,-0.1565,0.0,-0.7177,-0.6707,-0.8731,-1.0661,-1.0762,-1.1927,-1.3194,-1.4229,-1.4456,-1.5715,0.0,0.0,0.0,0.0,0.0,0.0,0.0,0.0,0.0,0.0,0.0,0.0,0.0,-2.5912,-2.5573,-2.5523,-2.5071,-2.4607,-2.4155,-2.4594,-2.433,-2.3364,-2.3803,-2.3715,-2.3128,-2.2636,-2.2021,-2.1308,0.0,0.0,0.0,-1.8086,-1.7564,-1.6796,-1.667,-1.6914,-1.7217,-1.6865,-1.6665,-1.668,-1.626,-1.5368,-1.4257,-1.4005,-1.3512,-1.295,-1.2141,-1.1891,-1.1964,-1.2225,-1.1897,-1.1597,-1.2158,-1.1411,-1.0103,-0.8316,-0.6953,-0.6071,-0.6227,-0.6338,-0.6338,-0.6338,-0.6338,-0.6338,-0.6338,-0.6338,-0.6338,-0.6338,-0.6338,-0.6338,-0.6338,-0.6338,-0.6338,-0.6338,-0.6338,-0.6338,-0.6338,-0.6338,-0.62,-0.6061,-0.6156,-0.6034,-0.5627,-0.5705,-0.5647,-0.5406,-0.5403,-0.3659,-0.0,-0.0,-0.0,-0.0,-0.0,-0.0,0.9118,0.7998,0.6798,0.7032,0.3919,-0.0,-0.2889,0.0,-0.7231,-0.6701,-0.8835,-1.0813,-1.0813,-1.2267,-1.3699,-1.4439,-1.4795,0.0,-1.8384,0.0,0.0,0.0,0.0,0.0,0.0,0.0,0.0,0.0,0.0,0.0,0.0,-2.4933,-2.4469,-2.413,-2.3916,-2.3866,-2.4004,-2.3866,-2.3753,-2.3653,-2.354,-2.3188,-2.2636,-2.241,-2.1948,-2.1313,0.0,0.0,0.0,-1.7445,-1.6634,-1.5937,-1.5937,-1.6367,-1.6934,-1.6494,-1.6494,-1.6709,-1.6523,-1.5281,-1.3718,-1.3925,-1.3118,-1.2082,-1.2168,-1.2131,-1.2118,-1.2058,-1.1877,-1.175,-1.1984,-1.09,-0.9409,-0.8143,-0.6969,-0.6186,-0.6247,-0.6329,-0.6386,-0.6386,-0.6386,-0.6386,-0.6386,-0.6318,-0.6338,-0.6338,-0.6338,-0.6338,-0.6338,-0.6338,-0.6338,-0.6338,-0.6338,-0.6338,-0.6338,-0.6338,-0.6234,-0.6173,-0.6139,-0.604,-0.5864,-0.5761,-0.5738,-0.5783,-0.5581,-0.4944,-0.3817,-0.1207,-0.0,-0.0,-0.0,-0.0,0.8325,0.7533,0.6669,0.6949,0.3926,-0.0068,0.0,0.0,-0.7052,-0.6701,-0.8835,-1.0813,-1.0813,-1.2434,-1.4003,-1.4606,-1.5071,-1.5998,-1.7725,0.0,0.0,0.0,0.0,0.0,0.0,0.0,0.0,0.0,0.0,0.0,0.0,-2.4054,-2.3703,-2.364,-2.3566,-2.3753,-2.4004,-2.359,-2.3502,-2.374,-2.3265,-2.2849,-2.2297,-2.2146,-2.1643,-2.0859,0.0,0.0,0.0,-1.6903,-1.6093,-1.541,-1.541,-1.5947,-1.6699,-1.6377,-1.6543,-1.6904,-1.6777,-1.5468,-1.3832,-1.3907,-1.2874,-1.1716,-1.1962,-1.2044,-1.2017,-1.1904,-1.1931,-1.1906,-1.1527,-1.0381,-0.9069,-0.8012,-0.7022,-0.6338,-0.6338,-0.6339,-0.641,-0.641,-0.6444,-0.6458,-0.6417,-0.6363,-0.6308,-0.6268,-0.6338,-0.6338,-0.6338,-0.6338,-0.6338,-0.6338,-0.6338,-0.6338,-0.6338,-0.6338,-0.6338,-0.6338,-0.6162,-0.6081,-0.6037,-0.5952,-0.5632,-0.5001,-0.4718,-0.5095,-0.6025,-0.3011,-0.1074,-0.0,-0.0,-0.0,0.6945,0.6641,0.6357,0.661,0.3765,-0.0065,0.0,-0.5608,-0.6588,-0.6588,-0.8835,-1.0813,-1.0813,-1.2434,-1.4003,-1.4606,-1.5197,-1.6013,-1.7255,0.0,0.0,0.0,0.0,0.0,0.0,0.0,0.0,0.0,0.0,0.0,0.0,-2.3452,-2.3591,-2.477,-2.4808,-2.4544,-2.4004,-2.3991,-2.3703,-2.3078,-2.3078,-2.2849,-2.2297,-2.1744,-2.0847,0.0,0.0,0.0,0.0,-1.6492,-1.6093,-1.541,-1.541,-1.5947,-1.6665,-1.6728,-1.7002,-1.7314,-1.6885,-1.5927,-1.4746,-1.3735,-1.2836,-1.2058,-1.154,-1.143,-1.1496,-1.179,-1.2078,-1.2004,-1.0761,-0.9865,-0.9069,-0.8012,-0.7022,-0.6338,-0.6338,-0.6264,-0.6342,-0.6342,-0.6376,-0.6427,-0.6288,-0.638,-0.6424,-0.6281,-0.6338,-0.6338,-0.6338,-0.6338,-0.6338,-0.6338,-0.6338,-0.6338,-0.6338,-0.6338,-0.6338,-0.6338,-0.6271,-0.6207,-0.5976,-0.6225,-0.517,-0.2761,-0.2759,-0.3614,-0.5406,-0.5347,-0.3523,-0.0,-0.0,-0.0,0.6879,0.5571,0.3901,0.2963,0.0905,-0.1736,-0.4736,-0.6023,-0.6853,-0.7847,-0.9511,-1.0965,-1.1416,-1.311,-1.4468,-1.4652,-1.5567,-1.6343,0.0,0.0,0.0,0.0,0.0,0.0,0.0,0.0,0.0,0.0,0.0,0.0,0.0,0.0,-2.2912,-2.3653,-2.3301,-2.3025,-2.2849,-2.2472,-2.2196,-2.2008,-2.2008,-2.1719,-2.1179,-2.1004,0.0,0.0,0.0,0.0,0.0,-1.5979,-1.5584,-1.541,-1.541,-1.5762,-1.6279,-1.6279,-1.6562,-1.6811,-1.5792,-1.4854,-1.3811,-1.2688,-1.1748,-1.1085,-1.0931,-1.1256,-1.179,-1.2084,-1.2091,-1.1808,-1.0936,-0.9985,-0.9069,-0.8012,-0.7022,-0.6338,-0.6338,-0.6335,-0.6407,-0.6407,-0.6525,-0.6614,-0.6569,-0.6512,-0.6458,-0.6413,-0.6322,-0.6295,-0.6393,-0.6322,-0.6298,-0.6393,-0.6318,-0.6338,-0.6338,-0.6338,-0.6264,-0.6274,-0.6278,-0.5622,-0.4097,-0.5526,-0.5912,-0.516,-0.2301,-0.1154,-0.1708,-0.1694,-0.115,-0.0,-0.0,-0.0,0.6107,0.4173,0.1798,0.0948,-0.0614,0.0,-0.482,-0.603,-0.6902,-0.8041,-0.9607,-1.1057,-1.2003,-1.3548,-1.4789,-1.5005,-1.5876,-1.6522,0.0,0.0,0.0,0.0,0.0,0.0,0.0,0.0,0.0,0.0,0.0,0.0,0.0,0.0,-2.2159,-2.2498,-2.2184,-2.1995,-2.1995,-2.1656,-2.1493,-2.1493,-2.1493,-2.1204,-2.0718,-2.0718,0.0,0.0,0.0,0.0,0.0,-1.5979,-1.5642,-1.541,-1.541,-1.5684,-1.6125,-1.6125,-1.6348,-1.6544,-1.5647,-1.4551,-1.3479,-1.2561,-1.1476,-1.0665,-1.0822,-1.1269,-1.1764,-1.2058,-1.2091,-1.1847,-1.1045,-1.004,-0.9069,-0.8012,-0.7022,-0.6338,-0.6338,-0.6329,-0.6393,-0.6393,-0.6512,-0.6614,-0.6614,-0.6583,-0.6559,-0.6559,-0.6481,-0.6437,-0.6468,-0.6393,-0.6356,-0.6393,-0.6322,-0.6271,-0.6274,-0.6271,-0.6274,-0.6285,-0.6295,-0.574,-0.4392,-0.4088,-0.3936,-0.3936,-0.1335,-0.0,-0.0,-0.0,-0.0,-0.0,-0.0,-0.0,0.0,0.2439,0.0243,0.0061,0.0,0.0,-0.4265,-0.5686,0.0,-0.7664,-0.9438,-1.1299,-1.2619,-1.3924,-1.4971,-1.5499,-1.6095,0.0,0.0,0.0,0.0,0.0,0.0,0.0,0.0,0.0,0.0,0.0,0.0,0.0,0.0,0.0,-2.143,-2.143,-2.1393,-2.1393,-2.143,-2.1393,-2.1368,-2.1368,-2.1368,-2.1104,-2.0655,-2.0655,0.0,0.0,0.0,0.0,0.0,-1.6436,-1.6036,-1.541,-1.541,-1.5664,-1.6076,-1.6076,-1.6299,-1.6558,-1.604,-1.4896,-1.3479,-1.3001,-1.1802,-1.0688,-1.1229,-1.141,-1.149,-1.181,-1.2091,-1.1996,-1.1013,-0.9965,-0.8993,-0.8008,-0.703,-0.6278,-0.6278,-0.6285,-0.6291,-0.6291,-0.6407,-0.6505,-0.6505,-0.6624,-0.6715,-0.6715,-0.6709,-0.6654,-0.6522,-0.6495,-0.6447,-0.6339,-0.6159,-0.6152,-0.6315,-0.6142,-0.6136,-0.6295,-0.6329,-0.6182,-0.5849,-0.2121,-0.0,-0.0,-0.0,-0.0,-0.0,-0.0,-0.0,-0.0,-0.0,-0.0,0.1738,0.0,-0.0454,-0.2792,-0.4014,-0.4927,0.0,-0.6792,-0.7919,-0.9666,-1.0822,-1.1917,-1.3321,-1.4584,-1.541,-1.5588,-1.6095,0.0,0.0,0.0,0.0,0.0,0.0,0.0,0.0,0.0,0.0,0.0,0.0,0.0,0.0,0.0,-2.092,-2.092,-2.0426,-2.0413,-2.0853,-2.0426,-2.02,-2.02,-2.02,-2.0125,-2.0012,-2.0012,0.0,0.0,0.0,0.0,-1.5642,-1.5642,-1.5584,-1.541,-1.541,-1.5478,-1.5566,-1.5566,-1.584,-1.603,-1.4301,-1.3678,-1.3353,-1.1703,-1.1022,-1.0915,-1.1056,-1.1249,-1.1536,-1.2051,-1.1717,-1.1087,-1.0858,-0.9513,-0.8084,-0.7859,-0.7114,-0.6424,-0.6424,-0.6515,-0.6597,-0.6597,-0.6719,-0.682,-0.682,-0.6851,-0.6875,-0.6875,-0.6776,-0.6732,-0.6736,-0.6656,-0.6625,-0.6632,-0.4926,-0.4515,-0.6173,-0.4756,-0.4554,-0.6169,-0.6275,-0.4821,-0.165,-0.055,-0.0,-0.0,-0.0,-0.0,-0.0,-0.0,-0.0,-0.0,-0.0,-0.0,0.0831,-0.1679,-0.3736,-0.4871,-0.5682,-0.6317,-0.6554,-0.7182,-0.8184,-0.9915,-1.1056,-1.2104,-1.3558,-1.4549,-1.5276,0.0,-1.5644,0.0,0.0,0.0,0.0,0.0,0.0,0.0,0.0,0.0,0.0,0.0,0.0,0.0,0.0,0.0,-2.0275,-2.0275,-1.9962,-1.9949,-2.0263,-1.9962,-1.9798,-1.9798,-1.9798,-1.9798,-1.9798,-1.9798,0.0,0.0,0.0,0.0,-1.5137,-1.5332,-1.5293,-1.5146,-1.5342,-1.541,-1.541,-1.541,-1.5321,-1.5055,-1.3925,-1.3186,-1.2508,-1.1038,-1.0755,-1.1015,-1.1149,-1.1047,-1.0974,-1.1348,-1.1144,-1.0559,-0.9658,-0.8613,-0.7706,-0.7249,-0.6783,-0.6376,-0.6376,-0.6491,-0.6597,-0.6597,-0.6719,-0.6848,-0.6837,-0.6847,-0.6956,-0.695,-0.6887,-0.6929,-0.6959,-0.5931,-0.5532,-0.6444,-0.5352,-0.5017,-0.6224,-0.5275,-0.4275,-0.3467,-0.3423,-0.2389,-0.0079,-0.0,-0.0,-0.0,-0.0,-0.0,-0.0,-0.0,-0.0,-0.0,-0.0,-0.0,0.0829,-0.346,-0.684,-0.6018,-0.6462,-0.6987,-0.6797,-0.7396,-0.8389,0.0,0.0,0.0,0.0,-1.4514,0.0,0.0,0.0,0.0,0.0,0.0,0.0,0.0,0.0,0.0,0.0,0.0,0.0,0.0,0.0,0.0,0.0,0.0,0.0,-1.9798,-1.9798,-1.9798,-1.9798,-1.9798,-1.9798,-1.9798,-1.9798,-1.9798,-1.9798,-1.9798,-1.8943,0.0,0.0,0.0,-1.4805,-1.5098,-1.5088,-1.4902,-1.5127,-1.5293,-1.54,-1.5342,-1.4817,-1.4154,-1.3906,-1.287,-1.1531,-1.0807,-1.0788,-1.1102,-1.1349,-1.0943,-1.046,-1.0248,-1.0324,-0.9959,-0.8237,-0.7706,-0.7326,-0.649,-0.6355,-0.6291,-0.6291,-0.6424,-0.6542,-0.6542,-0.6668,-0.6817,-0.6867,-0.6618,-0.6573,-0.6989,-0.6818,-0.6688,-0.7034,-0.5331,-0.4477,-0.525,-0.5298,-0.5322,-0.5368,-0.5356,-0.38,-0.0236,-0.0,-0.0,-0.0,-0.0,-0.0,-0.0,-0.0,-0.0,-0.0,-0.0,-0.0,-0.0,-0.0,-0.0,0.0829,-0.2435,-0.5045,-0.5483,-0.6119,-0.6846,-0.7408,-0.8554,-0.9843,0.0,0.0,0.0,0.0,-1.5466,0.0,0.0,0.0,0.0,0.0,0.0,0.0,0.0,0.0,0.0,0.0,0.0,0.0,0.0,0.0,0.0,0.0,0.0,0.0,-1.9798,-1.9798,-1.9798,-1.9798,-1.9798,-1.9798,-1.9798,-1.9798,-1.9798,-1.9798,-1.9798,-1.8803,0.0,0.0,-1.6235,-1.4756,-1.4453,-1.4717,-1.5254,-1.459,-1.4775,-1.5371,-1.501,-1.4581,-1.4025,-1.2618,-1.1531,-1.0744,-1.0624,-1.0922,-1.1369,-1.141,-1.1075,-1.0576,-0.9691,-0.8888,-0.8156,-0.7859,-0.7176,-0.649,-0.6338,-0.6352,-0.6441,-0.6441,-0.6661,-0.6858,-0.6858,-0.699,-0.7021,-0.7048,-0.5427,-0.4807,-0.6824,-0.5371,-0.4828,-0.6828,-0.6824,-0.5092,-0.1329,-0.0958,-0.094,-0.1002,-0.0986,-0.0725,-0.0079,-0.0,-0.0,-0.0,-0.0,-0.0,-0.0,-0.0,-0.0,-0.0,-0.0,-0.0,-0.0,-0.0,-0.0,0.0829,-0.2186,-0.4668,-0.5348,-0.6803,-0.8062,-0.7764,-0.8521,-0.9607,0.0,0.0,0.0,0.0,0.0,0.0,0.0,0.0,0.0,0.0,0.0,0.0,0.0,0.0,0.0,0.0,0.0,0.0,0.0,0.0,0.0,0.0,0.0,0.0,0.0,-1.9798,-1.966,-1.9384,-1.9384,-1.9522,-1.9798,-1.9191,-1.889,-1.8878,-1.8229,-1.7393,-1.6428,0.0,-1.5645,-1.4434,-1.4473,-1.4443,-1.4365,-1.4145,-1.4521,-1.4964,-1.4167,-1.3459,-1.2749,-1.1531,-1.0926,-1.0624,-1.0624,-1.0842,-1.1081,-1.0679,-1.0207,-0.9569,-0.8732,-0.8161,-0.7706,-0.7099,-0.6644,-0.6338,-0.6338,-0.6312,-0.638,-0.6458,-0.6658,-0.6759,-0.6837,-0.6984,-0.7098,-0.7111,-0.5193,-0.3484,-0.3315,-0.4574,-0.4938,-0.3414,-0.3235,-0.2415,-0.0265,-0.0,-0.0,-0.0,-0.0,-0.0,-0.0,-0.0,-0.0,-0.0,-0.0,-0.0,-0.0,-0.0,-0.0,-0.0,-0.0,-0.0,-0.0,-0.0,-0.0,0.0828,-0.2223,-0.4657,-0.5332,-0.7131,-0.8571,-0.7967,-0.8517,-0.952,0.0,0.0,0.0,0.0,0.0,0.0,0.0,0.0,0.0,0.0,0.0,0.0,0.0,0.0,0.0,0.0,0.0,0.0,0.0,0.0,0.0,0.0,0.0,0.0,0.0,-1.9623,-1.9371,-1.8844,-1.8783,-1.9032,-1.9422,-1.8547,-1.8039,-1.7864,-1.7023,-1.622,-1.5616,-1.5616,-1.4952,-1.4004,-1.4248,-1.4072,-1.362,-1.357,-1.3762,-1.3914,-1.2941,-1.2202,-1.1606,-1.0843,-1.0624,-1.0561,-1.0364,-1.0497,-1.0558,-0.9799,-0.9043,-0.833,-0.7882,-0.7563,-0.7198,-0.6479,-0.6234,-0.6217,-0.6251,-0.6264,-0.6295,-0.6403,-0.6563,-0.6472,-0.5999,-0.6586,-0.7074,-0.7128,-0.4665,-0.2147,-0.0269,-0.3145,-0.4137,-0.0449,-0.0,-0.0,-0.0,-0.0,-0.0,-0.0,-0.0,-0.0,-0.0,-0.0,-0.0,-0.0,-0.0,-0.0,-0.0,-0.0,-0.0,-0.0,-0.0,-0.0,-0.0,-0.0,-0.0,0.0828,-0.2225,-0.4668,-0.5336,-0.6159,-0.7051,-0.7979,-0.924,0.0,-1.1852,0.0,0.0,0.0,0.0,0.0,0.0,0.0,0.0,0.0,0.0,0.0,0.0,0.0,0.0,0.0,0.0,0.0,0.0,0.0,0.0,0.0,0.0,0.0,0.0,0.0,-1.8819,-1.8267,-1.8267,-1.8279,-1.8317,-1.8232,-1.7907,-1.7326,-1.7253,-1.6336,-1.4705,-1.4705,-1.4255,-1.3525,-1.3164,-1.3437,-1.3898,-1.2499,-1.1893,-1.1684,-1.1476,-1.1368,-1.1294,-1.0767,-1.0624,-1.0498,-0.9658,-0.9575,-0.965,-0.8783,-0.7979,-0.741,-0.7535,-0.6853,-0.6153,-0.63,-0.6156,-0.6084,-0.6227,-0.6271,-0.6281,-0.6291,-0.6503,-0.6,-0.3764,-0.5414,-0.7061,-0.7111,-0.3325,-0.018,-0.0,-0.027,-0.0359,-0.0,-0.0,-0.0,-0.0,-0.0,-0.0,-0.0,-0.0,-0.0,-0.0,-0.0,-0.0,-0.0,-0.0,-0.0,-0.0,-0.0,-0.0,-0.0,-0.0,-0.0,-0.0,-0.0,-0.0,0.1835,-0.1726,-0.4727,-0.5521,-0.682,0.0,0.0,-0.9693,-1.1153,-1.1553,-1.252,0.0,0.0,0.0,0.0,0.0,0.0,0.0,0.0,0.0,0.0,0.0,0.0,0.0,0.0,0.0,0.0,0.0,0.0,0.0,0.0,0.0,0.0,0.0,0.0,-1.8254,-1.7702,-1.7689,-1.7513,-1.7162,-1.6738,-1.6407,-1.6143,-1.5066,-1.4328,-1.3942,-1.3942,-1.374,-1.3496,-1.334,-1.3301,-1.3289,-1.2545,-1.1618,-1.0818,-1.1148,-1.0981,-1.0504,-0.9939,-0.9786,-0.9658,-0.8742,-0.8544,-0.8509,-0.7711,-0.7258,-0.6941,-0.6558,-0.6108,-0.5833,-0.6173,-0.6224,-0.62,-0.6257,-0.6281,-0.5911,-0.4624,-0.5419,-0.628,-0.5726,-0.398,-0.2716,-0.2685,-0.1168,-0.0,-0.0,-0.0,-0.0,-0.0,-0.0,-0.0,-0.0,-0.0,-0.0,-0.0,-0.0,-0.0,-0.0,-0.0,-0.0,-0.0,-0.0,-0.0,-0.0,-0.0,-0.0,-0.0,-0.0,-0.0,-0.0,-0.0,-0.0,0.2397,-0.0723,-0.3413,-0.4666,0.0,0.0,-0.867,-1.0207,-1.1639,-1.1755,-1.3148,0.0,0.0,0.0,0.0,0.0,0.0,0.0,0.0,0.0,0.0,0.0,0.0,0.0,0.0,0.0,0.0,0.0,0.0,0.0,0.0,0.0,0.0,0.0,0.0,0.0,-1.6819,-1.6819,-1.6532,-1.5932,-1.5267,-1.506,-1.5191,-1.3793,-1.3224,-1.3311,-1.3311,-1.3311,-1.3311,-1.3311,-1.2876,-1.2184,-1.179,-1.0894,-0.9908,-1.0436,-1.0168,-0.9525,-0.9238,-0.9,-0.8748,-0.7897,-0.7567,-0.7466,-0.668,-0.6451,-0.6351,-0.5902,-0.5664,-0.5671,-0.6105,-0.6167,-0.6084,-0.6183,-0.5742,-0.5079,-0.4316,-0.4185,-0.4408,-0.4749,-0.2228,-0.0,-0.0,-0.0,-0.0,-0.0,-0.0,-0.0,-0.0,-0.0,-0.0,-0.0,-0.0,-0.0,-0.0,-0.0,-0.0,-0.0,-0.0,-0.0,-0.0,-0.0,-0.0,-0.0,-0.0,-0.0,-0.0,-0.0,-0.0,-0.0,-0.0,-0.0,0.2329,0.0778,-0.05,0.0,0.0,0.0,-0.9532,-1.0918,-1.2125,-1.2813,0.0,-1.6188,0.0,0.0,0.0,0.0,0.0,0.0,0.0,0.0,0.0,0.0,0.0,0.0,0.0,0.0,0.0,0.0,0.0,0.0,0.0,0.0,0.0,0.0,0.0,0.0,-1.5632,-1.5632,-1.532,-1.4698,-1.4097,-1.4097,-1.4652,-1.405,-1.3467,-1.2881,-1.2881,-1.2881,-1.2881,-1.2881,-1.2049,-1.0712,-1.0064,-0.9413,-0.8844,-0.9077,-0.884,-0.8451,-0.8702,-0.8463,-0.7832,-0.6981,-0.6719,-0.6523,-0.5686,-0.5428,-0.5459,-0.5545,-0.5589,-0.5693,-0.5922,-0.5775,-0.5664,-0.5899,-0.4528,-0.3654,-0.5811,-0.2987,-0.0,-0.0,-0.0,-0.0,-0.0,-0.0,-0.0,-0.0,-0.0,-0.0,-0.0,-0.0,-0.0,-0.0,-0.0,-0.0,0.0082,0.008,0.0079,-0.0,-0.0,-0.0,0.0079,-0.0,-0.0,-0.0,0.0079,0.0079,0.0079,0.0079,-0.0,-0.0,-0.0,-0.0,0.4222,0.0278,0.0,-0.2847,0.0,0.0,0.0,-1.1785,0.0,0.0,0.0,0.0,0.0,0.0,0.0,0.0,0.0,0.0,0.0,0.0,0.0,0.0,0.0,0.0,0.0,0.0,0.0,0.0,0.0,0.0,0.0,0.0,0.0,0.0,0.0,0.0,-1.6238,-1.6238,-1.592,-1.532,-1.4732,-1.4283,-1.405,-1.342,-1.3065,-1.2881,-1.2881,-1.2618,-1.208,-1.1633,-1.0872,-1.0064,-0.9865,-0.9413,-0.8844,-0.9077,-0.884,-0.8333,-0.7976,-0.7516,-0.6915,-0.6075,-0.5815,-0.5752,-0.5495,-0.5428,-0.5439,-0.5426,-0.5443,-0.5454,-0.5576,-0.458,-0.3993,-0.5775,-0.3513,-0.1061,-0.1757,-0.0853,-0.0,-0.0,-0.0,-0.0,-0.0,-0.0,-0.0,-0.0,-0.0,-0.0,-0.0,-0.0,-0.0,-0.0,-0.0,0.1168,0.4168,0.4393,0.3773,0.2267,0.2189,0.282,0.4332,0.157,-0.0,-0.0,0.2907,0.4413,0.4413,0.2899,0.2189,0.2111,0.0705,0.0783,0.4255,0.05,0.0,-0.3422,-0.6625,-1.013,-1.2045,0.0,0.0,0.0,0.0,0.0,0.0,0.0,0.0,0.0,0.0,0.0,0.0,0.0,0.0,0.0,0.0,0.0,0.0,0.0,0.0,0.0,0.0,0.0,0.0,0.0,0.0,0.0,0.0,0.0,-1.6139,-1.592,-1.5466,-1.4858,-1.4283,-1.3789,-1.342,-1.3065,-1.2881,-1.2881,-1.2608,-1.2187,-1.1715,-1.0762,-1.0167,-0.9762,-0.9517,-0.8995,-0.8394,-0.8559,-0.8055,-0.7295,-0.6957,-0.6515,-0.5971,-0.5462,-0.5311,-0.5428,-0.5432,-0.5369,-0.5369,-0.5382,-0.4906,-0.4498,-0.5192,-0.4579,-0.4149,-0.5573,-0.4005,-0.1772,-0.0302,-0.0,-0.0,-0.0,-0.0,-0.0,-0.0,0.1355,0.2494,0.2491,0.1922,0.1683,0.2394,0.1772,0.1225,0.1273,0.1253,0.23,0.4828,0.5801,0.5749,0.4465,0.4382,0.494,0.623,0.3847,0.2115,0.1251,0.3765,0.5433,0.6315,0.5023,0.4382,0.4304,0.3052,0.2737,0.3192,0.1108,0.0,-0.4109,-0.7624,0.0,-1.44,-1.5583,-1.6126,0.0,0.0,0.0,0.0,0.0,0.0,0.0,0.0,0.0,0.0,0.0,0.0,0.0,0.0,0.0,0.0,0.0,0.0,0.0,0.0,0.0,0.0,0.0,0.0,0.0,0.0,0.0,-1.5588,-1.5017,-1.4376,0.0,-1.3238,-1.292,-1.2774,-1.2774,-1.2774,-1.2676,-1.1931,-1.1616,-1.1516,-1.0269,-0.9658,-0.9555,-0.8956,-0.8262,-0.7616,-0.7616,-0.6834,-0.5772,-0.5772,-0.5468,-0.5111,-0.5114,-0.5216,-0.5345,-0.5422,-0.5299,-0.5176,-0.5326,-0.4233,-0.3353,-0.4998,-0.5416,-0.5241,-0.4596,-0.4633,-0.3916,-0.0298,0.0527,0.0456,0.0312,0.0319,0.0243,0.0243,0.3481,0.6089,0.6254,0.4704,0.4239,0.6088,0.459,0.3398,0.3417,0.3399,0.3367,0.3366,0.5174,0.6295,0.6291,0.6291,0.6288,0.6278,0.6288,0.5416,0.3437,0.3359,0.4382,0.6295,0.6291,0.6291,0.6291,0.6295,0.5254,0.4494,0.1015,0.0,0.0,-0.7763,-1.1218,-1.358,-1.5551,0.0,0.0,0.0,0.0,0.0,0.0,0.0,0.0,0.0,0.0,0.0,0.0,0.0,0.0,0.0,0.0,0.0,0.0,0.0,0.0,0.0,0.0,0.0,0.0,0.0,0.0,0.0,-1.572,-1.5588,-1.5017,-1.4376,0.0,-1.3684,-1.3054,-1.203,-1.203,-1.1724,-1.1225,-1.0517,-1.021,-1.0167,-0.9361,-0.8685,-0.8143,-0.799,-0.7509,-0.6858,-0.6858,-0.6392,-0.5772,-0.5772,-0.5395,-0.4965,-0.504,-0.514,-0.5196,-0.5342,-0.4424,-0.3553,-0.4995,-0.5135,-0.4931,-0.5299,-0.5373,-0.3996,0.1758,0.0896,-0.0141,0.3489,0.4215,0.3856,0.2652,0.2446,0.2471,0.2443,0.3222,0.4362,0.6053,0.4552,0.4055,0.6288,0.6027,0.5618,0.563,0.5612,0.5636,0.5575,0.6041,0.6278,0.6271,0.6268,0.6268,0.6264,0.6285,0.6051,0.564,0.564,0.5802,0.6281,0.6274,0.6268,0.6268,0.6278,0.6035,0.6743,0.0,0.0,-0.6054,0.0,-1.2604,-1.4508,-1.6558,0.0,0.0,0.0,0.0,0.0,0.0,0.0,0.0,0.0,0.0,0.0,0.0,0.0,0.0,0.0,0.0,0.0,0.0,0.0,0.0,0.0,0.0,0.0,0.0,0.0,0.0,-1.5908,-1.5588,-1.5588,-1.4687,-1.4097,-1.3768,-1.314,-1.215,-1.0864,-1.1166,-1.1116,-1.0762,-1.0115,-0.9814,-0.971,-0.8679,-0.8049,-0.767,-0.7289,-0.6745,-0.6091,-0.6091,-0.5665,-0.5197,-0.52,-0.5035,-0.4823,-0.483,-0.4433,-0.4159,-0.5133,-0.472,-0.3828,-0.3035,-0.28,-0.2424,-0.0672,-0.0202,0.0537,0.3429,0.3334,0.2832,0.3913,0.4756,0.5225,0.451,0.4543,0.4654,0.4616,0.4592,0.4986,0.6116,0.5369,0.5194,0.6378,0.6456,0.6394,0.6331,0.6314,0.628,0.6278,0.6271,0.6268,0.6338,0.6338,0.6338,0.6338,0.6274,0.6278,0.6271,0.6271,0.6271,0.6271,0.6264,0.6338,0.6338,0.6268,0.6268,0.6942,0.0,-0.3049,-0.8166,-1.1481,0.0,-1.5587,0.0,0.0,0.0,0.0,0.0,0.0,0.0,0.0,0.0,0.0,0.0,0.0,0.0,0.0,0.0,0.0,0.0,0.0,0.0,0.0,0.0,0.0,0.0,0.0,0.0,-1.6522,-1.6522,-1.582,-1.5454,-1.5454,-1.4236,-1.3579,-1.3426,-1.2101,-1.0864,-0.9814,-1.0261,-1.0466,-1.0415,-0.9865,-0.9562,-0.9347,-0.8196,-0.7557,-0.7283,-0.6637,-0.5982,-0.5324,-0.5328,-0.4952,-0.4522,-0.4477,-0.4449,-0.4375,-0.4445,-0.3819,-0.3179,-0.418,-0.4034,-0.2906,0.0065,0.0725,0.1144,0.418,0.5135,0.4995,0.3553,0.4306,0.5023,0.352,0.4309,0.5457,0.5747,0.6081,0.6301,0.6234,0.6264,0.6322,0.6294,0.6371,0.6441,0.6298,0.6364,0.639,0.6352,0.6338,0.6338,0.6338,0.6338,0.6338,0.6567,0.6567,0.6644,0.6795,0.6795,0.6795,0.6795,0.649,0.6338,0.6338,0.6338,0.6338,0.6338,0.6338,0.6338,-0.0536,0.0,-0.9158,0.0,-1.1427,-1.3243,0.0,0.0,0.0,0.0,0.0,0.0,0.0,0.0,0.0,0.0,0.0,0.0,0.0,0.0,0.0,0.0,0.0,0.0,0.0,0.0,0.0,0.0,0.0,0.0,0.0,-1.7034,-1.6522,-1.6522,-1.5421,-1.4835,-1.4835,-1.361,-1.2696,-1.2061,-1.0712,-0.9961,-0.9762,-0.9309,-0.9061,-0.9061,-0.8956,-0.858,-0.7984,-0.7777,-0.6956,-0.576,-0.5706,-0.5218,-0.4625,-0.4636,-0.4584,-0.448,-0.449,-0.3649,-0.2755,-0.4076,-0.441,-0.3806,-0.1423,0.1481,0.4081,0.4543,0.3558,0.2479,0.2948,0.4233,0.5326,0.5109,0.5243,0.5319,0.5062,0.5205,0.5494,0.5783,0.6061,0.6213,0.6088,0.6183,0.6281,0.6295,0.6291,0.6291,0.6291,0.6291,0.6281,0.6342,0.6338,0.6338,0.6338,0.6338,0.6641,0.7557,0.7629,0.8012,0.8846,0.8922,0.8922,0.8922,0.7173,0.6338,0.6338,0.6338,0.6338,0.6338,0.6338,0.6338,-0.5083,-0.8705,-1.1469,0.0,-1.184,-1.4026,-1.4582,0.0,0.0,0.0,0.0,0.0,0.0,0.0,0.0,0.0,0.0,0.0,0.0,0.0,0.0,0.0,0.0,0.0,0.0,0.0,0.0,0.0,0.0,0.0,-1.7229,-1.6752,-1.6337,-1.6008,-1.5152,-1.4514,-1.419,-1.3334,-1.2353,-1.1216,-1.0261,-0.9614,-0.9211,-0.8527,-0.8209,-0.8209,-0.8209,-0.7777,-0.7074,-0.6632,-0.6086,-0.5487,-0.5066,-0.4743,-0.4473,-0.4484,-0.3974,-0.3352,-0.4216,-0.4048,-0.3309,-0.23,-0.0847,0.08,0.212,0.3182,0.4099,0.513,0.4825,0.4231,0.4225,0.4837,0.5382,0.5372,0.5369,0.5369,0.5369,0.5369,0.5454,0.5745,0.5983,0.6115,0.604,0.6091,0.6108,0.6017,0.6078,0.6132,0.6132,0.6736,0.6945,0.6338,0.7326,0.7783,0.7173,0.7629,0.8161,0.8613,0.8618,0.8841,0.9296,0.9296,0.9296,0.9296,0.8466,0.8008,0.8008,0.8008,0.8008,0.8008,0.8008,0.7706,0.0,0.0,-1.3203,-1.1023,-1.2609,-1.4698,0.0,0.0,0.0,0.0,0.0,0.0,0.0,0.0,0.0,0.0,0.0,0.0,0.0,0.0,0.0,0.0,0.0,0.0,0.0,0.0,0.0,0.0,0.0,0.0,-1.671,-1.6552,-1.6281,-1.582,-1.5107,-1.4411,-1.3805,-1.2677,-1.1592,-1.0517,-0.9703,-0.8988,-0.848,-0.7777,-0.7348,-0.7246,-0.7348,-0.7015,-0.6258,-0.5823,-0.5441,-0.5167,-0.4695,-0.4255,-0.3971,-0.4383,-0.3758,-0.2852,-0.32,-0.286,-0.1847,0.0392,0.2411,0.3993,0.4392,0.3914,0.3535,0.4938,0.5329,0.5335,0.5365,0.5568,0.5697,0.5428,0.5557,0.5686,0.5428,0.5459,0.5471,0.5654,0.584,0.6033,0.6211,0.6236,0.6295,0.6456,0.6546,0.6625,0.6625,0.7439,0.7782,0.703,0.8358,0.8993,0.8237,0.8841,0.9448,0.9669,0.9669,0.982,1.0045,1.0045,1.0045,1.0045,1.0045,0.9825,0.9296,0.9296,0.9296,0.9296,0.9296,0.8922,0.0,-1.4224,0.0,-1.3182,-1.3679,0.0,0.0,0.0,0.0,0.0,0.0,0.0,0.0,0.0,0.0,0.0,0.0,0.0,0.0,0.0,0.0,0.0,0.0,0.0,0.0,0.0,0.0,0.0,0.0,0.0,-1.7271,-1.6795,-1.6479,-1.6466,-1.5287,-1.44,-1.3705,-1.124,-0.9917,-0.9814,-0.8455,-0.7777,-0.7723,-0.702,-0.6436,-0.6018,-0.649,-0.6253,-0.5597,-0.5786,-0.536,-0.4536,-0.449,-0.3583,-0.2512,-0.3937,-0.4455,-0.3996,-0.1177,0.1625,0.4054,0.4225,0.3365,0.2569,0.4042,0.4602,0.4752,0.5022,0.5102,0.5179,0.5325,0.6013,0.6396,0.5624,0.6009,0.6396,0.5557,0.5477,0.5538,0.5476,0.5616,0.6047,0.6725,0.6979,0.73,0.8122,0.8272,0.8277,0.8277,0.8533,0.8739,0.8665,0.9011,0.9301,0.9221,0.9296,0.9744,1.064,1.0714,1.1162,1.2077,1.215,1.215,1.215,1.215,1.1174,0.9296,0.9296,0.9296,0.9296,0.9296,0.9296,0.0,0.0,0.0,-1.5387,-1.5745,0.0,0.0,0.0,0.0,0.0,0.0,0.0,0.0,0.0,0.0,0.0,0.0,0.0,0.0,0.0,0.0,0.0,0.0,0.0,0.0,0.0,0.0,0.0,0.0,0.0,-1.6232,-1.6039,-1.5386,-1.4171,-1.3716,-1.2956,-1.1828,-1.0018,-0.911,-0.9058,-0.7646,-0.702,-0.6966,-0.6253,-0.5887,-0.5854,-0.5462,-0.5077,-0.4864,-0.4986,-0.4193,-0.3128,-0.4101,-0.4163,-0.3254,0.0056,0.1285,0.1285,0.1397,0.2124,0.3193,0.416,0.415,0.3802,0.4314,0.4585,0.4824,0.5405,0.5734,0.6085,0.6591,0.715,0.7437,0.7116,0.7312,0.7437,0.7116,0.6647,0.6509,0.71,0.7291,0.7431,0.77,0.7751,0.7888,0.8081,0.8248,0.8275,0.8275,0.915,0.9596,0.8865,1.0262,1.0944,1.034,1.087,1.1397,1.1768,1.1768,1.1922,1.2298,1.2305,1.2305,1.2305,1.2305,1.1929,1.1248,1.1248,1.1248,1.1248,1.1248,1.087,-1.4315,0.0,0.0,0.0,0.0,0.0,0.0,0.0,0.0,0.0,0.0,0.0,0.0,0.0,0.0,0.0,0.0,0.0,0.0,0.0,0.0,0.0,0.0,0.0,0.0,0.0,0.0,0.0,0.0,0.0,-1.5632,-1.541,-1.4516,-1.287,-1.2561,-1.167,-1.0136,-0.8947,-0.8218,-0.8,-0.6907,-0.6381,-0.6327,-0.5504,-0.4725,-0.3886,-0.3284,-0.3294,-0.3755,-0.4271,-0.3872,-0.2854,-0.1845,-0.1454,-0.1062,0.2462,0.4051,0.4337,0.3304,0.2961,0.3128,0.4147,0.4484,0.4529,0.4746,0.4927,0.5129,0.5923,0.6406,0.6798,0.736,0.7731,0.8091,0.8355,0.8221,0.8091,0.835,0.7767,0.7349,0.8021,0.8117,0.8251,0.8522,0.8589,0.8667,0.8829,0.8946,0.8986,0.8986,1.003,1.0491,0.9768,1.1247,1.1996,1.1391,1.1922,1.2305,1.2305,1.2305,1.2305,1.2305,1.2305,1.2305,1.2305,1.2305,1.2305,1.2305,1.2305,1.2305,1.2305,1.2305,1.1922,0.0,0.0,0.0,0.0,0.0,0.0,0.0,0.0,0.0,0.0,0.0,0.0,0.0,0.0,0.0,0.0,0.0,0.0,0.0,0.0,0.0,0.0,0.0,0.0,0.0,0.0,0.0,0.0,0.0,-1.5543,-1.5531,-1.4915,-1.3971,-1.2715,-1.1957,-1.0646,-0.8678,-0.7972,-0.7295,-0.6588,-0.6064,-0.58,-0.5686,-0.4761,-0.2792,-0.0,0.0056,-0.0723,-0.212,-0.3652,-0.4284,-0.3711,0.2127,0.4455,0.434,0.2796,0.3244,0.4553,0.4553,0.4543,0.4588,0.4588,0.4581,0.468,0.5324,0.5538,0.5745,0.6665,0.7112,0.7395,0.7506,0.7795,0.8285,0.9139,0.8742,0.835,0.9204,0.8678,0.8091,0.8091,0.8091,0.8355,0.9204,0.9338,0.9594,1.0498,1.0624,1.0624,1.0624,1.1062,1.1423,1.1423,1.1951,1.2305,1.2305,1.2305,1.2305,1.2305,1.2305,1.2305,1.2305,1.2305,1.2305,1.2305,1.2305,1.2305,1.2305,1.2305,1.2305,1.2305,1.2305,1.2305,-1.453,0.0,0.0,0.0,0.0,0.0,0.0,0.0,0.0,0.0,0.0,0.0,0.0,0.0,0.0,0.0,0.0,0.0,0.0,0.0,0.0,0.0,0.0,0.0,0.0,0.0,0.0,0.0,-1.5062,-1.4538,-1.3611,-1.2064,-1.0772,-0.9841,-0.9193,-0.8265,-0.7219,-0.6647,-0.6282,-0.6064,-0.5258,-0.3735,-0.1604,-0.1386,-0.0777,0.0055,0.0777,0.1668,0.2512,0.1003,0.0334,0.0501,0.2178,0.353,0.4442,0.403,0.4581,0.547,0.5289,0.5555,0.5996,0.5996,0.6046,0.6046,0.6258,0.6312,0.6485,0.7258,0.7728,0.8195,0.9126,0.9637,1.0091,1.0899,1.0947,1.0815,1.108,1.0947,1.0571,0.9964,0.9907,0.9977,1.0174,1.0238,1.0301,1.0561,1.0624,1.0624,1.0624,1.1062,1.1423,1.1423,1.1951,1.2305,1.2305,1.2305,1.2305,1.2305,1.2305,1.2305,1.2305,1.2305,1.2305,1.2305,1.2305,1.2305,1.2305,1.2305,1.2305,1.2305,1.2305,1.2305,0.0,0.0,0.0,0.0,0.0,0.0,0.0,-1.659,0.0,0.0,0.0,0.0,0.0,0.0,0.0,0.0,0.0,0.0,0.0,0.0,0.0,0.0,0.0,0.0,0.0,0.0,0.0,0.0,-1.3162,-1.2445,-1.1163,-0.9987,-0.9162,-0.8732,-0.8328,-0.7645,-0.6628,-0.5324,-0.4262,-0.3434,-0.2892,-0.1722,0.0055,0.1277,0.2109,0.2489,0.3101,0.4113,0.5301,0.4388,0.3671,0.3186,0.3566,0.4294,0.5093,0.4967,0.5454,0.6168,0.5987,0.6258,0.6588,0.6588,0.6588,0.6691,0.732,0.7481,0.7694,0.8698,0.9376,0.9939,1.0805,1.1304,1.1725,1.2205,1.2328,1.2328,1.2328,1.2328,1.1958,1.0807,1.0863,1.1108,1.1108,1.1351,1.16,1.16,1.16,1.16,1.16,1.2159,1.2557,1.2557,1.313,1.352,1.352,1.352,1.352,1.352,1.352,1.352,1.352,1.352,1.352,1.352,1.352,1.352,1.352,1.2732,1.2305,1.2305,1.2305,1.2305,0.0,0.0,0.0,0.0,0.0,0.0,-1.4733,-1.4586,0.0,0.0,0.0,0.0,0.0,0.0,0.0,0.0,0.0,0.0,0.0,0.0,0.0,0.0,0.0,0.0,0.0,0.0,-1.2964,-1.1683,-1.088,-0.9957,-0.8743,-0.8528,-0.8351,-0.8068,-0.7955,-0.7257,-0.5876,-0.3589,-0.1486,0.0332,0.0608,0.0774,0.094,0.3624,0.5258,0.5964,0.5964,0.6223,0.6588,0.6745,0.6,0.4823,0.5635,0.5964,0.5959,0.5714,0.6091,0.6696,0.6696,0.6804,0.6961,0.6961,0.7009,0.732,0.8574,0.894,0.92,1.045,1.1333,1.1977,1.2266,1.2652,1.3009,1.313,1.313,1.313,1.313,1.313,1.2704,1.1178,1.1413,1.195,1.195,1.2512,1.3009,1.3009,1.3009,1.3009,1.3009,1.3636,1.4082,1.4082,1.4734,1.5234,1.5234,1.5234,1.5234,1.5234,1.5234,1.5234,1.5234,1.5234,1.5234,1.5234,1.5234,1.5234,1.5234,1.3448,1.2592,1.2592,1.2592,1.2592,0.0,0.0,0.0,0.0,0.0,0.0,-1.4584,-1.4675,-1.471,0.0,0.0,0.0,0.0,0.0,0.0,0.0,0.0,0.0,0.0,0.0,0.0,0.0,0.0,0.0,0.0,0.0,-1.1829,-1.1557,-1.0008,-0.8996,-0.8692,-0.7628,-0.6117,-0.412,-0.3232,-0.2304,-0.1325,-0.0055,0.1152,0.2367,0.4361,0.5538,0.5982,0.6564,0.6678,0.6485,0.6485,0.6539,0.6696,0.7847,0.7475,0.6213,0.6376,0.6485,0.6431,0.6421,0.6853,0.7509,0.7509,0.8243,0.9176,0.9176,0.9533,1.0033,1.0297,1.0399,1.045,1.0712,1.1333,1.1911,1.1985,1.2505,1.3191,1.3786,1.3974,1.3974,1.3974,1.3974,1.3666,1.2704,1.2642,1.2765,1.2765,1.2887,1.3009,1.3009,1.3009,1.3009,1.3009,1.3636,1.4082,1.4082,1.4734,1.5234,1.5234,1.5234,1.5234,1.5234,1.5234,1.5234,1.5234,1.5234,1.5234,1.5234,1.5234,1.5234,1.5234,1.4807,1.4665,1.4665,1.4665,1.4665,0.0,0.0,0.0,-1.1847,0.0,0.0,0.0,-1.2686,-1.3127,0.0,0.0,0.0,0.0,0.0,0.0,0.0,0.0,0.0,0.0,0.0,0.0,0.0,0.0,0.0,0.0,0.0,-0.9671,-0.6034,-0.4549,-0.3809,-0.3809,-0.3509,-0.2754,-0.1489,-0.0,0.1538,0.3269,0.445,0.5317,0.5828,0.7074,0.7788,0.8072,0.8072,0.8059,0.814,0.814,0.8351,0.8731,0.9459,0.9356,0.8626,0.79,0.7635,0.7635,0.7635,0.8324,0.9273,0.9273,0.9688,1.0312,1.0312,1.0517,1.0864,1.1216,1.1707,1.213,1.213,1.2707,1.3367,1.3367,1.3753,1.4332,1.4688,1.4805,1.4805,1.4805,1.4805,1.4688,1.4273,1.4213,1.4094,1.3674,1.3906,1.4213,1.4213,1.4213,1.4213,1.4213,1.4727,1.5097,1.5097,1.5818,1.6296,1.6296,1.6477,1.6585,1.6585,1.6585,1.6585,1.6585,1.6585,1.6585,1.6585,1.6585,1.6585,1.6585,1.6585,1.6088,1.5234,1.5234,1.5234,0.0,0.0,0.0,0.0,0.0,-1.1428,0.0,0.0,0.0,-1.0855,0.0,0.0,0.0,0.0,0.0,0.0,0.0,0.0,0.0,0.0,0.0,0.0,0.0,0.0,0.0,0.0,-0.5543,0.1567,0.2605,0.2828,0.2553,0.2019,0.1753,0.1921,0.3452,0.5175,0.6975,0.8246,0.8877,0.8877,0.9037,0.9188,0.9284,0.9137,0.9548,1.0269,1.0038,1.0316,1.0956,1.1015,1.0914,1.0712,0.9563,0.9096,0.9096,0.9096,0.982,1.0813,1.0813,1.0864,1.1015,1.1015,1.1074,1.1325,1.1832,1.2719,1.3571,1.3571,1.43,1.5089,1.5089,1.5471,1.5796,1.5796,1.5796,1.5796,1.5633,1.5748,1.5748,1.5468,1.5633,1.5507,1.4569,1.4991,1.541,1.541,1.541,1.541,1.541,1.5791,1.6125,1.6125,1.6855,1.7383,1.7383,1.7773,1.8008,1.8008,1.8008,1.8008,1.8008,1.8008,1.8008,1.8008,1.8008,1.8008,1.8008,1.8008,1.7226,1.5728,1.5728,1.5728,0.0,0.0,0.0,0.0,-0.8515,0.0,0.0,0.0,-1.0097,-1.0704,0.0,0.0,0.0,0.0,0.0,0.0,0.0,0.0,0.0,0.0,0.0,0.0,0.0,0.0,0.0,0.0,0.0,0.9098,0.9624,0.9134,0.7893,0.7781,0.8075,0.8935,0.9173,0.9033,0.8482,0.9224,0.9592,0.9592,1.023,1.083,1.1338,1.083,1.1197,1.232,1.1173,1.104,1.1612,1.1648,1.1366,1.0762,1.061,1.0551,1.0551,1.0551,1.0661,1.0813,1.0813,1.1166,1.1665,1.1665,1.2138,1.2676,1.2774,1.322,1.3757,1.3757,1.487,1.6063,1.6063,1.6674,1.7357,1.7357,1.7357,1.7191,1.6539,1.6866,1.6968,1.5633,1.6472,1.6912,1.5517,1.5352,1.541,1.541,1.541,1.541,1.541,1.5791,1.6125,1.6125,1.6855,1.7383,1.7383,1.7773,1.8008,1.8008,1.8008,1.8008,1.8008,1.8008,1.8008,1.8008,1.8008,1.8008,1.8008,1.8008,1.7872,1.7657,1.7657,1.7657,0.0,0.0,0.0,0.0,0.0,0.0,0.0,0.0,-0.9211,0.0,0.0,0.0,0.0,0.0,0.0,0.0,0.0,0.0,0.0,0.0,0.0,0.0,0.0,0.0,0.0,0.0,0.0,0.0,0.0,1.1783,1.0902,1.0426,1.0268,1.0338,1.1053,1.1086,1.0366,1.1801,1.234,1.2009,1.2734,1.3195,1.3423,1.3185,1.3365,1.3835,1.328,1.3185,1.3423,1.349,1.3301,1.3042,1.3042,1.2609,1.1935,1.1935,1.2425,1.3042,1.3042,1.3243,1.349,1.349,1.3711,1.3931,1.3931,1.429,1.4686,1.4686,1.5334,1.6142,1.6472,1.6852,1.7221,1.7511,1.7578,1.7523,1.7202,1.7357,1.7413,1.68,1.7191,1.7401,1.68,1.6687,1.6687,1.6687,1.6687,1.6687,1.6687,1.6477,1.6321,1.6321,1.6723,1.7002,1.7002,1.7627,1.8008,1.8008,1.8008,1.8008,1.8008,1.8008,1.8008,1.8008,1.8008,1.8008,1.8008,1.8008,1.8008,1.8008,1.8008,1.8008,-0.3721,0.0,0.0,0.0,0.0,0.0,0.0,0.0,0.0,0.0,0.0,0.0,0.0,0.0,0.0,0.0,0.0,0.0,0.0,0.0,0.0,0.0,0.0,0.0,0.0,0.0,0.0,0.0,1.4295,1.3994,1.351,1.2981,1.251,1.2111,1.3006,1.3278,1.2876,1.4135,1.4677,1.4438,1.4778,1.5073,1.5374,1.5184,1.5241,1.5398,1.5241,1.5073,1.4971,1.5073,1.4982,1.4698,1.4858,1.4459,1.3742,1.3433,1.3924,1.4698,1.4698,1.4698,1.4698,1.4698,1.4698,1.4698,1.4698,1.5037,1.5402,1.5402,1.5873,1.6535,1.7042,1.7272,1.7554,1.8063,1.8221,1.8167,1.7961,1.807,1.8058,1.7688,1.7961,1.8124,1.7961,1.7731,1.7578,1.7578,1.7578,1.7578,1.7578,1.7146,1.681,1.681,1.714,1.7388,1.7388,1.8212,1.8721,1.8721,1.8721,1.8721,1.8721,1.8721,1.8721,1.8721,1.8721,1.8596,1.8327,1.8327,1.8202,1.8008,1.8008,1.8008,0.0,0.0,0.0,-0.176,0.0,0.0,0.0,0.0,-0.4608,0.0,0.0,0.0,0.0,0.0,0.231,0.388,0.0,0.0,0.0,0.0,0.0,0.0,0.0,0.0,0.0,0.0,0.0,1.5849,1.6404,1.6589,1.6216,1.6131,1.6131,1.6088,1.6143,1.6186,1.6143,1.5688,1.5731,1.6198,1.5688,1.6059,1.7083,1.6532,1.6599,1.7175,1.6545,1.6003,1.562,1.6077,1.5656,1.4744,1.5262,1.5823,1.6164,1.5039,1.4652,1.4698,1.4698,1.4698,1.4698,1.4698,1.4698,1.4698,1.4698,1.5107,1.5611,1.5611,1.6435,1.748,1.8044,1.8521,1.9046,1.9622,1.9747,1.9527,1.8821,1.9202,1.9319,1.7907,1.8768,1.9475,1.8768,1.807,1.7578,1.7578,1.7578,1.7578,1.7578,1.7578,1.7578,1.7578,1.846,1.9052,1.9052,1.9957,2.0526,2.0526,2.0526,2.0526,2.0526,2.0526,2.0526,2.0526,2.0526,2.0074,1.9243,1.9243,1.8854,1.8008,1.8008,1.8008,0.0,0.0,0.0364,-0.1752,0.0,0.0,0.0,0.0,0.0,0.0,0.0,0.0,0.0,0.0,0.8249,1.0985,1.2912,1.4642,0.0,0.0,0.0,0.0,0.0,0.0,0.0,0.0,0.0,1.7343,1.8184,1.8536,0.0,1.8009,1.7851,1.7505,1.7825,1.7851,1.7505,1.7666,1.7666,1.7505,1.7301,1.7396,1.7786,1.7599,1.7612,1.7827,1.7612,1.7396,1.7259,1.7437,1.7274,1.6957,1.7151,1.7328,1.7341,1.5872,1.5752,1.6361,1.5996,1.5876,1.5876,1.5876,1.5876,1.5876,1.5876,1.602,1.6194,1.6194,1.6791,1.7501,1.8066,1.8618,1.9158,1.9673,1.9798,1.9747,1.9475,1.9631,1.9643,1.915,1.9475,1.9695,1.9475,1.9202,1.9044,1.9044,1.9044,1.9044,1.9044,1.8608,1.834,1.834,1.8453,1.8695,1.9078,2.0019,2.059,2.059,2.059,2.059,2.059,2.059,2.059,2.059,2.059,2.0462,2.0139,2.0139,2.0009,1.9694,1.9694,1.911,0.2185,0.279,0.0,-0.0187,0.1047,0.0,0.0459,0.0,0.0,0.0,0.0,0.0,0.0,0.0,1.2304,1.4784,1.5028,1.588,0.0,1.9919,0.0,0.0,0.0,0.0,0.0,0.0,1.9836,1.9328,1.9978,2.0177,0.0,0.0,1.9498,1.9156,1.9477,1.9405,1.8873,1.9051,1.8991,1.865,1.8496,1.8496,1.865,1.865,1.8574,1.8419,1.8574,1.8458,1.8145,1.8496,1.8458,1.8145,1.8302,1.838,1.8249,1.697,1.6941,1.7544,1.7188,1.7076,1.7076,1.7076,1.6951,1.6837,1.6993,1.6951,1.6795,1.6795,1.7377,1.8046,1.8194,1.8786,1.9379,1.9497,1.966,1.9748,1.9572,1.9673,1.9798,1.9798,1.9798,1.9798,1.9798,1.9798,1.9798,1.9798,1.9798,1.9798,1.9798,1.9371,1.9097,1.9097,1.9136,1.9457,2.0158,2.0988,2.1479,2.1479,2.1479,2.1479,2.1479,2.1479,2.1315,2.0941,2.1292,2.1167,2.0437,2.0865,2.091,2.059,2.059,2.0009]},{"header":{"parameterUnit":"m.s-1","parameterCategory":1,"la1":30.6,"la2":29.2853,"lo1":-89.7004,"lo2":-87.6739,"dy":0.0162,"dx":0.0183,"nx":112,"ny":82,"refTime":"2023-09-07T06:00:00:Z","depth":0,"parameterNumber":3,"parameterNumberName":"V-component_of_WINDS"},"data":[0.0,0.0,0.0,0.0,0.0,0.0,0.0,0.0,0.0,0.0,0.0,0.0,0.0,0.0,0.0,0.0,0.0,0.0,0.0,0.0,0.0,0.0,0.0,0.0,0.0,0.0,0.0,0.0,0.0,0.0,0.0,0.0,0.0,0.0,0.0,0.0,0.0,0.0,0.0,0.0,0.0,0.0,0.0,0.0,0.0,0.0,0.0,0.0,0.0,0.0,0.0,0.0,0.0,0.0,0.0,0.0,0.0,0.0,0.0,0.0,0.0,0.0,0.0,0.0,0.0,0.0,0.0,0.0,0.0,0.0,0.0,0.0,0.0,0.0,0.0,0.0,0.0,0.0,0.0,0.0,0.0,0.0,0.0,0.0,0.0,0.0,0.0,0.0,0.0,0.0,0.0,-3.3565,-3.8837,-4.1756,-4.0922,-3.9472,-3.6221,-3.061,0.0,0.0,0.0,0.0,0.0,0.0,0.0,0.0,0.0,0.0,0.0,0.0,0.0,0.0,0.0,0.0,0.0,0.0,0.0,0.0,0.0,0.0,0.0,0.0,0.0,0.0,0.0,0.0,0.0,0.0,0.0,0.0,0.0,0.0,0.0,0.0,0.0,0.0,0.0,0.0,0.0,0.0,0.0,0.0,0.0,0.0,0.0,0.0,0.0,0.0,0.0,0.0,0.0,0.0,0.0,0.0,0.0,0.0,0.0,0.0,0.0,0.0,0.0,0.0,0.0,0.0,0.0,0.0,0.0,0.0,0.0,0.0,0.0,0.0,0.0,0.0,0.0,0.0,0.0,0.0,0.0,0.0,0.0,0.0,0.0,0.0,0.0,0.0,0.0,0.0,0.0,0.0,0.0,0.0,0.0,0.0,0.0,0.0,0.0,0.0,0.0,0.0,0.0,0.0,-3.2188,-3.713,-4.0905,-4.2168,-3.9934,-3.7671,-3.4604,-3.0404,0.0,0.0,0.0,0.0,0.0,0.0,0.0,0.0,0.0,0.0,0.0,0.0,0.0,0.0,0.0,0.0,0.0,0.0,0.0,0.0,0.0,0.0,0.0,0.0,0.0,0.0,0.0,0.0,0.0,0.0,0.0,0.0,0.0,0.0,0.0,0.0,0.0,0.0,0.0,0.0,0.0,0.0,0.0,0.0,0.0,0.0,0.0,0.0,0.0,0.0,0.0,0.0,0.0,0.0,0.0,0.0,0.0,0.0,0.0,0.0,0.0,0.0,0.0,0.0,0.0,0.0,0.0,0.0,0.0,0.0,0.0,0.0,0.0,0.0,0.0,0.0,0.0,0.0,0.0,0.0,0.0,0.0,0.0,0.0,0.0,0.0,0.0,0.0,0.0,0.0,0.0,0.0,0.0,0.0,0.0,0.0,0.0,0.0,0.0,0.0,0.0,0.0,0.0,-3.2617,-3.5449,-3.9322,-4.1612,-4.1954,-3.9684,-3.7028,-3.4017,-3.0597,-2.8809,0.0,0.0,0.0,0.0,0.0,0.0,0.0,0.0,0.0,0.0,0.0,0.0,0.0,0.0,0.0,0.0,0.0,0.0,0.0,0.0,0.0,0.0,0.0,0.0,0.0,0.0,0.0,0.0,0.0,0.0,0.0,0.0,0.0,0.0,0.0,0.0,0.0,0.0,0.0,0.0,0.0,0.0,0.0,0.0,0.0,0.0,0.0,0.0,0.0,0.0,0.0,0.0,0.0,0.0,0.0,0.0,0.0,0.0,0.0,0.0,0.0,0.0,0.0,0.0,0.0,0.0,0.0,0.0,0.0,0.0,0.0,0.0,0.0,0.0,0.0,0.0,0.0,0.0,0.0,0.0,0.0,0.0,0.0,0.0,0.0,0.0,0.0,0.0,0.0,0.0,0.0,0.0,0.0,0.0,0.0,0.0,0.0,0.0,0.0,0.0,0.0,0.0,-3.5698,-3.7698,-4.0367,-4.1468,-4.1264,-3.9304,-3.6518,-3.3625,-3.0659,-2.8296,0.0,0.0,0.0,0.0,0.0,0.0,0.0,0.0,0.0,0.0,0.0,0.0,0.0,0.0,0.0,0.0,0.0,0.0,0.0,0.0,0.0,0.0,0.0,0.0,0.0,0.0,0.0,0.0,0.0,0.0,0.0,0.0,0.0,0.0,0.0,0.0,0.0,0.0,0.0,0.0,0.0,0.0,0.0,0.0,0.0,0.0,0.0,0.0,0.0,0.0,0.0,0.0,0.0,0.0,0.0,0.0,0.0,0.0,0.0,0.0,0.0,0.0,0.0,0.0,0.0,0.0,0.0,0.0,0.0,0.0,0.0,0.0,0.0,0.0,0.0,0.0,0.0,0.0,0.0,0.0,0.0,0.0,0.0,0.0,0.0,0.0,0.0,0.0,0.0,0.0,0.0,0.0,0.0,0.0,0.0,0.0,0.0,0.0,0.0,0.0,0.0,0.0,-3.555,-3.7374,-3.9871,-4.0436,-3.9938,-3.8251,-3.5729,-3.3081,-3.0309,-2.8328,0.0,0.0,0.0,0.0,0.0,0.0,0.0,0.0,0.0,0.0,0.0,0.0,0.0,0.0,0.0,0.0,0.0,0.0,0.0,0.0,0.0,0.0,0.0,0.0,0.0,0.0,0.0,0.0,0.0,0.0,0.0,0.0,0.0,0.0,0.0,0.0,0.0,0.0,0.0,0.0,0.0,0.0,0.0,0.0,0.0,0.0,0.0,0.0,0.0,0.0,0.0,0.0,0.0,0.0,0.0,0.0,0.0,0.0,0.0,0.0,0.0,0.0,0.0,0.0,0.0,0.0,0.0,0.0,0.0,0.0,0.0,0.0,0.0,0.0,0.0,0.0,0.0,0.0,0.0,0.0,0.0,0.0,0.0,0.0,0.0,0.0,0.0,0.0,0.0,0.0,0.0,0.0,0.0,0.0,0.0,0.0,0.0,0.0,0.0,0.0,0.0,0.0,-3.5396,-3.702,0.0,-3.9365,-3.8854,-3.6642,-3.4564,-3.2225,-2.9459,0.0,0.0,0.0,0.0,0.0,0.0,0.0,0.0,0.0,0.0,0.0,0.0,0.0,0.0,0.0,0.0,0.0,0.0,0.0,0.0,0.0,0.0,0.0,0.0,0.0,0.0,0.0,0.0,0.0,0.0,0.0,0.0,0.0,0.0,0.0,0.0,0.0,0.0,0.0,0.0,0.0,0.0,0.0,0.0,0.0,0.0,0.0,0.0,0.0,0.0,0.0,0.0,0.0,0.0,0.0,0.0,0.0,0.0,0.0,0.0,0.0,0.0,0.0,0.0,0.0,0.0,0.0,0.0,0.0,0.0,0.0,0.0,0.0,0.0,0.0,0.0,0.0,0.0,0.0,0.0,0.0,0.0,0.0,0.0,0.0,0.0,0.0,0.0,0.0,0.0,0.0,0.0,0.0,0.0,0.0,0.0,0.0,0.0,0.0,0.0,0.0,0.0,-3.3391,-3.4917,-3.6293,0.0,-3.8065,-3.7392,-3.5661,-3.368,-3.1488,-2.9047,0.0,0.0,0.0,0.0,0.0,0.0,0.0,0.0,0.0,0.0,0.0,0.0,0.0,0.0,0.0,0.0,0.0,0.0,0.0,0.0,0.0,0.0,0.0,0.0,0.0,0.0,0.0,0.0,0.0,0.0,0.0,0.0,0.0,0.0,0.0,0.0,0.0,0.0,0.0,0.0,0.0,0.0,0.0,0.0,0.0,0.0,0.0,0.0,0.0,0.0,0.0,0.0,0.0,0.0,0.0,0.0,0.0,0.0,0.0,0.0,0.0,0.0,0.0,0.0,0.0,0.0,0.0,0.0,0.0,0.0,0.0,0.0,0.0,0.0,0.0,0.0,0.0,0.0,0.0,0.0,0.0,0.0,0.0,0.0,0.0,0.0,0.0,0.0,0.0,0.0,0.0,0.0,0.0,0.0,0.0,0.0,0.0,0.0,0.0,0.0,0.0,0.0,-3.344,-3.4026,-3.5141,-3.7661,-3.6469,-3.5468,-3.5468,-3.3141,-3.0948,0.0,0.0,0.0,0.0,0.0,0.0,0.0,0.0,0.0,0.0,0.0,0.0,0.0,0.0,0.0,0.0,0.0,0.0,0.0,0.0,0.0,0.0,0.0,0.0,0.0,0.0,0.0,0.0,0.0,0.0,0.0,0.0,0.0,0.0,0.0,0.0,0.0,0.0,0.0,0.0,0.0,0.0,0.0,0.0,0.0,0.0,0.0,0.0,0.0,0.0,0.0,0.0,0.0,0.0,0.0,0.0,0.0,0.0,0.0,0.0,0.0,0.0,0.0,0.0,0.0,0.0,0.0,0.0,0.0,0.0,0.0,0.0,0.0,0.0,0.0,0.0,0.0,0.0,0.0,0.0,0.0,0.0,0.0,0.0,0.0,0.0,0.0,0.0,0.0,0.0,0.0,0.0,0.0,0.0,0.0,0.0,0.0,0.0,0.0,0.0,0.0,0.0,0.0,-3.2108,-3.2885,-3.3564,-3.4314,-3.3968,-3.3449,-3.2872,-3.1583,-3.0063,-2.8352,0.0,0.0,0.0,0.0,0.0,0.0,0.0,0.0,0.0,0.0,0.0,0.0,0.0,0.0,0.0,0.0,0.0,0.0,0.0,0.0,0.0,0.0,0.0,0.0,0.0,0.0,0.0,0.0,0.0,0.0,0.0,0.0,0.0,0.0,0.0,0.0,0.0,0.0,0.0,0.0,0.0,0.0,0.0,0.0,0.0,0.0,0.0,0.0,0.0,0.0,0.0,0.0,0.0,0.0,0.0,0.0,0.0,0.0,0.0,0.0,0.0,0.0,0.0,0.0,0.0,0.0,0.0,0.0,0.0,0.0,0.0,0.0,0.0,0.0,0.0,0.0,0.0,0.0,0.0,0.0,0.0,0.0,0.0,0.0,0.0,0.0,0.0,0.0,0.0,0.0,0.0,0.0,0.0,0.0,0.0,0.0,0.0,0.0,0.0,0.0,0.0,0.0,-3.1571,-3.216,-3.2571,-3.2917,-3.2686,-3.2301,-3.1821,-3.0975,-2.9898,-2.8591,0.0,0.0,0.0,0.0,0.0,0.0,0.0,0.0,0.0,0.0,0.0,0.0,0.0,0.0,0.0,0.0,0.0,0.0,0.0,0.0,0.0,0.0,0.0,0.0,0.0,0.0,0.0,0.0,0.0,0.0,0.0,0.0,0.0,0.0,0.0,0.0,0.0,0.0,0.0,0.0,0.0,0.0,0.0,0.0,0.0,0.0,0.0,0.0,0.0,0.0,0.0,0.0,0.0,0.0,0.0,0.0,0.0,0.0,0.0,0.0,0.0,0.0,0.0,0.0,0.0,0.0,0.0,0.0,0.0,0.0,0.0,0.0,0.0,0.0,0.0,0.0,0.0,0.0,0.0,0.0,0.0,0.0,0.0,0.0,0.0,0.0,0.0,0.0,0.0,0.0,0.0,0.0,0.0,0.0,0.0,0.0,0.0,0.0,0.0,0.0,0.0,0.0,-3.1487,-3.1628,-3.1955,-3.2692,-3.2172,-3.1768,-3.1768,-3.106,-3.0271,-2.9459,0.0,0.0,0.0,0.0,0.0,0.0,0.0,0.0,0.0,0.0,0.0,0.0,0.0,0.0,0.0,0.0,0.0,0.0,0.0,0.0,0.0,0.0,0.0,0.0,0.0,0.0,0.0,0.0,0.0,0.0,0.0,0.0,0.0,0.0,0.0,0.0,0.0,0.0,0.0,0.0,0.0,0.0,0.0,0.0,0.0,0.0,0.0,0.0,0.0,0.0,0.0,0.0,0.0,0.0,0.0,0.0,0.0,0.0,0.0,0.0,-2.8883,0.0,0.0,0.0,0.0,0.0,0.0,0.0,0.0,0.0,0.0,0.0,0.0,0.0,0.0,0.0,0.0,0.0,0.0,0.0,0.0,0.0,0.0,0.0,0.0,0.0,0.0,0.0,0.0,0.0,0.0,0.0,0.0,0.0,0.0,0.0,0.0,0.0,0.0,0.0,0.0,0.0,-3.0737,-3.0775,-3.0854,-3.1088,-3.0967,-3.087,-3.087,-3.0703,-3.0256,-2.9446,0.0,0.0,0.0,0.0,0.0,0.0,0.0,0.0,0.0,0.0,0.0,0.0,0.0,0.0,0.0,0.0,0.0,0.0,0.0,0.0,0.0,0.0,0.0,0.0,0.0,0.0,0.0,0.0,0.0,0.0,0.0,0.0,0.0,0.0,0.0,0.0,0.0,0.0,0.0,0.0,0.0,0.0,0.0,0.0,0.0,0.0,0.0,0.0,0.0,0.0,0.0,0.0,0.0,0.0,0.0,0.0,0.0,0.0,0.0,0.0,0.0,-2.9086,0.0,0.0,0.0,0.0,0.0,0.0,0.0,0.0,0.0,0.0,0.0,0.0,0.0,0.0,0.0,0.0,0.0,0.0,0.0,0.0,0.0,0.0,0.0,0.0,0.0,0.0,0.0,0.0,0.0,0.0,0.0,0.0,0.0,0.0,0.0,0.0,0.0,0.0,0.0,0.0,-3.0544,-3.0583,-3.0601,-3.0645,-3.0706,-3.0749,-3.0749,-3.0749,-3.0573,-3.0144,-2.9263,0.0,0.0,0.0,0.0,0.0,0.0,0.0,0.0,0.0,0.0,0.0,0.0,0.0,0.0,0.0,0.0,0.0,0.0,0.0,0.0,0.0,0.0,0.0,0.0,0.0,0.0,0.0,0.0,0.0,0.0,0.0,0.0,0.0,0.0,0.0,0.0,0.0,0.0,0.0,0.0,0.0,0.0,0.0,0.0,0.0,0.0,0.0,0.0,0.0,0.0,0.0,0.0,0.0,0.0,-3.1256,-3.1901,-3.1551,-3.1688,-3.2055,-2.9781,-2.8935,-2.9193,0.0,0.0,0.0,0.0,0.0,0.0,0.0,0.0,0.0,0.0,0.0,0.0,0.0,0.0,0.0,0.0,0.0,0.0,0.0,0.0,0.0,0.0,0.0,0.0,0.0,-3.3613,-3.3395,0.0,0.0,0.0,0.0,0.0,0.0,0.0,0.0,0.0,0.0,0.0,0.0,-3.0633,-3.066,-3.0706,-3.0723,-3.0829,-3.0898,-3.0898,-3.0898,-3.0898,-3.0898,-3.0039,-2.9512,0.0,0.0,0.0,0.0,0.0,0.0,0.0,0.0,0.0,0.0,0.0,0.0,0.0,0.0,0.0,0.0,0.0,0.0,0.0,0.0,0.0,0.0,0.0,0.0,0.0,0.0,0.0,0.0,0.0,0.0,0.0,0.0,-2.8222,-2.7264,0.0,0.0,0.0,0.0,0.0,0.0,0.0,0.0,0.0,0.0,0.0,0.0,0.0,0.0,-2.7981,-2.9198,-3.0206,-3.1011,-3.1704,-3.2133,-3.2241,-3.2179,-3.2038,-3.1825,-3.0768,0.0,-2.9935,-2.9619,0.0,0.0,0.0,0.0,0.0,0.0,0.0,0.0,0.0,0.0,0.0,0.0,0.0,0.0,0.0,0.0,0.0,0.0,0.0,0.0,0.0,0.0,-3.2422,-3.4062,-3.4492,-3.4492,0.0,-3.3689,-3.2868,-3.1984,0.0,0.0,0.0,0.0,0.0,0.0,0.0,0.0,-3.0675,-3.0679,-3.0732,-3.086,-3.0897,-3.0898,-3.0898,-3.0898,-3.0898,-3.0898,-3.0078,-2.959,-2.959,-2.8574,0.0,0.0,0.0,0.0,0.0,0.0,0.0,0.0,0.0,0.0,0.0,0.0,0.0,0.0,0.0,0.0,0.0,0.0,0.0,0.0,0.0,0.0,0.0,0.0,0.0,0.0,0.0,0.0,0.0,-2.7353,-2.7568,-2.5993,-2.4112,-2.276,0.0,0.0,0.0,0.0,0.0,0.0,0.0,0.0,0.0,-2.755,-2.7874,-2.8575,-2.9753,-3.0766,-3.166,-3.2402,-3.3159,-3.3534,-3.358,-3.317,-3.3131,-3.3295,-3.2135,-3.1489,-3.1232,-2.9836,-2.9066,-2.8691,0.0,0.0,0.0,0.0,0.0,-2.8906,-2.9377,0.0,0.0,0.0,0.0,0.0,0.0,0.0,0.0,0.0,0.0,0.0,0.0,0.0,0.0,-3.5015,-3.5351,-3.5371,-3.543,-3.5117,-3.4414,0.0,-3.2396,-3.1951,-3.156,0.0,0.0,0.0,0.0,0.0,-3.0813,-3.0808,-3.0829,-3.0898,-3.0898,-3.0898,-3.0898,-3.0898,-3.0898,-3.0898,-3.0547,-3.0332,-3.0332,-2.9473,-2.8567,0.0,0.0,0.0,0.0,0.0,0.0,0.0,0.0,0.0,0.0,0.0,0.0,0.0,0.0,0.0,0.0,0.0,0.0,0.0,0.0,0.0,0.0,0.0,0.0,0.0,0.0,0.0,0.0,-2.7469,-2.711,-2.5026,-2.4808,-2.4131,0.0,0.0,0.0,0.0,0.0,0.0,-2.6333,-2.6841,-2.7896,-2.9526,-2.9754,-3.0376,-3.1441,-3.2335,-3.3105,-3.3666,-3.4383,-3.4705,-3.4622,-3.4058,-3.4131,-3.451,-3.3047,-3.248,-3.2439,-3.0507,-2.947,-2.9062,-2.8423,-2.8304,-2.8493,-2.8667,-2.8727,-2.8804,-2.9462,-2.958,-2.9454,-2.9813,0.0,-3.0047,-3.0241,0.0,0.0,0.0,0.0,-3.2186,-3.3705,-3.4289,-3.4735,-3.5627,-3.589,-3.5936,-3.5968,-3.5978,-3.5522,0.0,-3.3242,-3.2773,-3.2559,0.0,0.0,0.0,0.0,-3.123,-3.123,-3.1035,-3.0898,-3.0898,-3.0898,-3.0898,-3.0898,-3.0898,-3.0898,-3.0898,-3.0898,-3.0898,-3.0898,-3.0273,-2.9492,-2.8574,0.0,0.0,0.0,0.0,0.0,0.0,0.0,0.0,0.0,0.0,0.0,0.0,0.0,0.0,0.0,0.0,0.0,0.0,0.0,0.0,0.0,0.0,0.0,0.0,0.0,0.0,0.0,0.0,0.0,-2.6602,-2.6049,0.0,0.0,0.0,0.0,-2.4433,-2.5734,-2.7066,-2.8382,-2.8487,-2.9086,-3.0413,-3.1046,-3.1689,-3.2406,-3.3742,-3.444,-3.4654,-3.5248,-3.5263,-3.4707,-3.4675,-3.4635,-3.451,-3.3047,-3.2779,-3.3262,-3.2135,-3.082,-2.945,-2.9097,-2.9359,-2.9955,-2.9655,-2.9557,-2.9628,-3.0313,-3.0025,-2.9434,-2.9662,-2.9845,-2.9999,-3.0013,-3.0196,0.0,0.0,-3.1083,-3.191,-3.2756,-3.3744,-3.47,-3.5522,-3.5859,-3.5979,-3.5925,-3.5907,-3.5658,0.0,-3.4609,-3.4316,-3.3476,0.0,-3.3262,-3.3262,-3.2617,-3.2129,-3.2129,-3.1406,-3.0898,-3.0898,-3.0898,-3.0898,-3.0898,-3.0898,-3.0898,-3.0898,-3.0898,-3.0898,-3.0898,-3.0859,-3.043,-2.9551,-2.9414,0.0,0.0,0.0,0.0,0.0,0.0,0.0,0.0,0.0,0.0,0.0,0.0,0.0,0.0,0.0,0.0,0.0,0.0,0.0,0.0,0.0,0.0,0.0,0.0,0.0,0.0,0.0,0.0,-2.7049,-2.6919,0.0,0.0,-2.5514,-2.563,-2.5869,-2.7126,-2.8442,-2.9759,-2.9819,-3.0821,-3.2991,-3.2482,-3.2677,-3.3769,-3.3829,-3.3908,-3.3955,-3.4122,-3.3922,-3.3253,-3.3253,-3.3084,-3.2641,-3.2114,-3.195,-3.2074,-3.1692,-3.0875,-2.9841,-2.9231,-2.9179,-2.9437,-2.9849,-2.9679,-2.9319,-3.0064,-2.982,-2.9181,-2.9434,-2.9731,-2.9999,-2.9999,-3.0196,-3.0513,-3.1083,-3.1833,-3.2679,-3.3526,-3.4443,-3.5233,-3.5566,-3.5693,-3.5756,-3.5773,-3.5774,-3.5528,-3.4727,-3.4113,-3.3645,-3.3314,-3.2335,-3.1594,-3.1594,-3.1359,-3.1161,-3.1161,-3.0907,-3.0712,-3.0712,-3.0754,-3.0762,-3.0762,-3.0859,-3.0664,-3.0098,-3.0059,-2.9805,-2.9258,-2.9238,-2.8828,-2.7949,-2.7891,-2.7462,0.0,0.0,0.0,0.0,0.0,0.0,0.0,0.0,0.0,0.0,0.0,0.0,0.0,0.0,0.0,0.0,0.0,0.0,0.0,0.0,0.0,0.0,0.0,0.0,0.0,0.0,-2.846,-2.7998,-2.8239,-2.8062,-2.703,-2.7126,-2.744,-2.7874,-2.8742,-2.9909,-3.1435,-3.13,-3.2093,-3.4083,-3.3305,-3.326,-3.4128,-3.3709,-3.338,-3.3155,-3.3155,-3.2826,-3.2168,-3.1943,-3.1728,-3.1548,-3.1083,-3.1069,-3.1374,-3.1143,-3.0808,-3.0395,-2.9651,-2.9516,-2.9797,-3.0209,-3.0033,-2.9568,-2.989,-2.9539,-2.904,-2.9222,-2.9514,-2.9796,-2.9796,-3.0022,-3.0401,-3.0957,-3.1988,-3.3026,-3.3603,-3.4641,-3.5547,-3.5585,-3.5618,-3.5562,-3.53,-3.5226,-3.4982,-3.4129,-3.3799,-3.3541,-3.3239,-3.2241,-3.1476,-3.1476,-3.1235,-3.1041,-3.1041,-3.0781,-3.0607,-3.0607,-3.0637,-3.0674,-3.0703,-3.0781,-3.0488,-2.9648,-2.9609,-2.9219,-2.834,-2.8301,-2.8027,-2.7441,-2.7148,-2.7008,-2.701,0.0,0.0,0.0,0.0,0.0,0.0,0.0,0.0,0.0,0.0,0.0,0.0,0.0,0.0,0.0,0.0,0.0,0.0,0.0,0.0,0.0,0.0,0.0,-2.9011,-2.9648,-2.9959,-2.9556,-3.0126,-2.9832,-2.7951,-2.8353,-2.9265,-3.0477,-3.0567,-3.1405,-3.3365,-3.2841,-3.2796,-3.3469,-3.3455,-3.344,-3.3469,-3.344,-3.311,-3.2482,-3.2482,-3.2153,-3.1452,-3.0821,-3.0864,-3.1471,-3.0072,-3.0196,-3.1265,-3.0589,-3.0658,-3.1123,-3.0412,-3.0581,-3.1167,-3.0869,-3.0699,-3.0559,-2.9862,-2.9366,-2.9012,-2.8994,-2.9181,-2.9412,-2.9412,-2.9678,-2.9999,-3.0013,-3.1397,-3.2852,-3.2852,-3.418,-3.5526,-3.5526,-3.5565,-3.5353,-3.4449,-3.427,-3.3968,-3.3045,-3.3705,-3.4135,-3.3311,-3.3138,-3.3118,-3.3118,-3.2382,0.0,-3.185,-3.1114,-3.0583,-3.0583,-3.0602,-3.0623,-3.0699,-3.0703,-3.0371,-2.9609,-2.9551,-2.918,-2.8301,-2.8223,-2.8223,-2.8262,-2.7422,-2.7832,-2.9551,0.0,0.0,0.0,0.0,0.0,0.0,0.0,0.0,0.0,0.0,0.0,0.0,0.0,0.0,0.0,0.0,0.0,0.0,0.0,0.0,0.0,0.0,-2.9011,-2.9011,-3.017,-3.1175,-3.1485,-3.1787,-3.1951,-3.1882,-3.2033,-3.2093,-3.1973,-3.1958,-3.2198,-3.2766,-3.2153,-3.2317,-3.3455,-3.2572,-3.2302,-3.2781,-3.2302,-3.1988,-3.1735,-3.1735,-3.1704,-3.1452,-3.0821,-3.0363,-3.0098,-2.9251,-2.9239,-2.9948,-2.971,-3.0251,-3.1173,-3.097,-3.1021,-3.1235,-3.1418,-3.1563,-3.1446,-3.042,-2.9948,-2.9769,-2.92,-2.9181,-2.9414,-2.957,-2.9796,-3.0028,-3.0241,-3.1123,-3.2025,-3.2025,-3.2833,-3.3641,-3.3641,-3.366,-3.3603,-3.3333,-3.3276,-3.3045,-3.2199,-3.2256,-3.2384,-3.2146,-3.1576,-3.1172,-3.1172,-3.0979,0.0,-3.0814,-3.0602,-3.0448,-3.0448,-3.0506,-3.0535,-3.0557,-3.06,-3.0046,-2.8672,-2.8574,-2.8223,-2.7383,-2.6758,-2.6719,-2.7344,-2.7129,-2.7559,0.0,0.0,0.0,0.0,0.0,0.0,0.0,0.0,0.0,0.0,0.0,0.0,0.0,0.0,0.0,0.0,0.0,0.0,0.0,0.0,0.0,0.0,-2.976,-3.0506,-3.0824,-3.1663,-3.2463,-3.3118,-3.329,-3.3396,-3.3516,-3.3245,-3.3155,-3.332,-3.2826,-3.2766,-3.3305,-3.2452,-3.2302,-3.3066,-3.2078,-3.1719,-3.2093,-3.1661,-3.1482,-3.1482,-3.1482,-3.1317,-3.1076,-3.0417,-2.9774,0.0,-2.8752,-2.8883,-2.9406,-2.9673,-3.0335,0.0,0.0,0.0,0.0,0.0,-3.1011,-3.0818,-2.9989,-2.9595,-2.9393,-2.9117,-2.9112,-2.9267,-2.9357,-2.957,-2.9799,-3.0037,-3.08,-3.1552,-3.1674,-3.2295,-3.2891,-3.2891,-3.2891,-3.2814,-3.2468,-3.2391,-3.216,-3.1314,0.0,0.0,-3.116,-3.0737,-3.0398,-3.0398,-3.0398,-3.0398,-3.0398,-3.0398,-3.0398,-3.0398,-3.0417,-3.0467,-3.0506,-3.054,0.0,0.0,0.0,-2.8379,-2.7578,-2.7051,0.0,0.0,0.0,-2.8144,-2.9394,0.0,0.0,0.0,-3.057,-3.0753,0.0,0.0,0.0,0.0,0.0,0.0,0.0,0.0,0.0,0.0,0.0,0.0,0.0,0.0,0.0,0.0,-3.1082,-3.2728,-3.3502,-3.3649,-3.3864,-3.4519,-3.4562,-3.4285,-3.377,-3.32,-3.3305,-3.4397,-3.332,-3.314,-3.4307,0.0,0.0,0.0,0.0,-3.1482,-3.1482,-3.1482,-3.1482,-3.1482,-3.1482,-3.1165,-3.0477,-2.9864,-2.922,-2.8614,-2.8446,-2.8732,-2.9361,-2.9951,-3.0601,-3.119,-3.119,-3.119,-3.1123,-3.054,-3.0016,0.0,0.0,0.0,0.0,-2.89,-2.8994,-2.9017,-2.904,-2.9203,-2.9434,-2.9643,-3.0411,-3.1202,-3.1463,-3.2071,-3.2622,-3.2622,-3.2622,-3.2429,-3.1718,-3.1545,-3.1314,-3.0552,-3.0398,-3.0398,-3.0398,-3.0398,-3.0398,-3.0398,-3.0398,-3.0398,-3.0398,-3.0398,-3.0398,-3.0398,0.0,0.0,-3.0487,-3.0487,-3.0148,-2.9337,-2.9425,-2.9141,-2.832,-2.8398,-2.8809,-2.957,-2.8848,-2.9258,-3.0898,-3.0117,-3.0137,-3.0898,-3.0898,-3.0898,0.0,0.0,0.0,0.0,0.0,0.0,0.0,0.0,0.0,0.0,0.0,0.0,0.0,0.0,0.0,-3.1388,-3.2537,-3.3648,-3.4892,-3.5107,-3.5147,-3.5316,-3.4851,-3.4676,-3.5055,-3.5011,-3.4801,-3.4502,-3.3754,-3.3425,-3.3664,-3.2437,0.0,-3.2497,-3.1884,-3.1482,-3.1482,-3.1482,-3.1482,-3.1482,0.0,0.0,-3.0477,-2.9864,-2.922,-2.8562,-2.8011,-2.814,-2.8732,-2.9316,-3.0208,-3.119,-3.119,-3.119,-3.1213,-3.1411,-3.1061,-3.0489,-3.0481,-2.998,-2.9347,-2.9082,-2.8994,-2.904,-2.9246,-2.9351,0.0,-2.9643,-2.9959,-3.0261,-3.0324,-3.0586,-3.0891,-3.0891,-3.0891,-3.0852,-3.0698,-3.0648,-3.059,-3.0417,-3.0398,-3.0398,-3.0398,-3.0398,-3.0398,-3.0398,-3.0398,-3.0398,-3.0398,-3.0398,-3.0398,-3.0398,-3.0398,-3.0398,-3.0417,-3.0417,-3.009,-2.9267,-2.9405,-2.9141,-2.832,-2.8984,-2.9434,-2.9609,-2.9434,-2.9863,-3.0898,-3.0723,-3.0742,-3.0898,-3.0898,-3.0898,0.0,0.0,0.0,0.0,0.0,0.0,0.0,0.0,0.0,0.0,0.0,-2.7745,0.0,0.0,-3.0864,-3.2586,-3.345,-3.425,-3.5316,-3.5217,-3.4988,-3.4988,-3.5009,-3.4996,-3.4996,-3.4996,-3.4996,-3.4996,-3.4367,-3.4143,-3.4472,-3.3245,-3.2662,-3.2991,-3.2048,-3.1482,-3.1482,-3.1482,-3.1302,-3.1016,-3.1016,-3.0507,-2.9535,-2.9235,-2.8727,-2.812,-2.8046,-2.8238,-2.8559,-2.9496,-3.0208,-3.0797,-3.1095,-3.119,-3.1179,-3.1001,-3.0463,-2.985,-2.965,-2.9236,-2.8757,-2.871,-2.8839,-2.904,-2.9156,-2.9181,-2.9246,-2.9494,-2.9696,-2.9877,-2.9984,-3.0196,-3.0398,-3.0398,-3.0398,-3.0398,-3.0398,-3.0398,-3.0398,-3.0398,-3.0756,-3.1064,-3.1064,-3.1391,-3.1371,-3.0533,-3.0398,-3.0398,-3.0398,-3.0398,-3.0398,-3.0398,-3.0398,-3.0398,-3.0398,-3.0398,-3.0244,-2.9867,-2.9985,-2.9888,-2.9512,-2.998,-3.0254,-3.0254,-3.0254,-3.0469,-3.0898,-3.0898,-3.0898,-3.0898,-3.0898,-3.0898,0.0,0.0,0.0,0.0,0.0,0.0,0.0,0.0,-2.7046,-2.8218,-2.8436,-2.8802,-3.0185,-3.089,-3.1741,-3.3322,-3.4067,-3.4599,-3.5246,-3.4817,-3.4382,-3.4128,-3.4696,-3.4951,-3.4517,-3.4472,-3.4756,-3.5444,-3.4741,-3.4637,-3.5459,-3.3978,-3.323,-3.3484,-3.2213,-3.1482,-3.1482,-3.1405,-3.1046,-3.0507,-3.0372,-2.9714,-2.8607,-2.8607,-2.8218,-2.7625,-2.8091,-2.8367,-2.8606,-2.9673,-3.0208,-3.0335,-3.0958,-3.1106,-3.092,-3.048,-2.9854,-2.9149,-2.8749,-2.8404,-2.8149,-2.8344,-2.8658,-2.8994,-2.8994,-2.8994,-2.9062,-2.9267,-2.9494,-2.9748,-2.9908,-3.0169,-3.0398,-3.0398,-3.0398,-3.0436,-3.0621,-3.0648,-3.0648,-3.0648,-3.1352,-3.1891,-3.1737,-3.2372,-3.2391,-3.0891,-3.0794,-3.0775,-3.0436,-3.0552,-3.059,-3.0417,-3.0398,-3.0398,-3.0398,-3.0398,-3.0417,-3.0506,-3.0557,-3.0619,-3.0703,-3.0801,-3.0879,-3.0898,-3.0898,-3.0898,-3.0898,-3.0898,-3.0898,-3.0898,-3.0898,-3.0898,-2.5308,-2.539,-2.5644,-2.6364,-2.6551,-2.7105,0.0,0.0,-2.9533,-3.0673,-3.0685,-3.0707,-3.148,-3.1664,-3.2282,-3.4021,-3.4391,-3.4539,-3.4602,-3.4535,-3.4038,-3.2871,-3.332,-3.3918,-3.4427,-3.4472,-3.4756,-3.5444,-3.4322,-3.4158,-3.5429,-3.3125,-3.2287,-3.3455,-3.2213,-3.1482,-3.1482,-3.0926,-3.0582,-3.0492,-2.9953,-2.931,-2.8607,-2.8607,-2.8218,-2.761,-2.766,-2.7993,-2.8559,-2.9225,-2.9805,-3.0335,-3.0958,-3.0801,-3.0294,-3.0869,-3.0615,-2.9929,-2.9524,-2.9158,-2.8811,-2.8505,-2.8658,-2.8994,-2.8994,-2.8994,-2.9017,-2.904,-2.9357,-2.9713,-2.9731,-3.0071,-3.0398,-3.0398,-3.0398,-3.0609,-3.1391,-3.1545,-3.1545,-3.1545,-3.2218,-3.2545,-3.1814,-3.2372,-3.2583,-3.1698,-3.216,-3.2083,-3.059,-3.1083,-3.1256,-3.0475,-3.0398,-3.0398,-3.0398,-3.0398,-3.0417,-3.0506,-3.051,-3.0576,-3.0683,-3.0703,-3.0781,-3.0898,-3.0898,-3.0898,-3.0898,-3.0898,-3.0898,-3.0898,-3.0898,-3.0898,-2.5269,-2.577,0.0,0.0,-2.7801,-2.867,-3.0405,-3.0205,-2.9964,-3.102,-3.0992,-3.1017,-3.1689,-3.1877,-3.2348,0.0,-3.3547,-3.3471,-3.386,-3.3245,-3.2407,-3.1465,-3.127,-3.1779,-3.32,-3.3335,-3.3769,-3.4831,-3.4382,-3.4307,-3.4876,-3.3484,-3.2751,-3.2916,-3.2018,-3.1482,-3.1482,-3.0851,-3.0313,-2.9968,-2.9325,-2.8652,-2.8008,-2.8008,-2.7844,-2.7625,-2.7625,-2.7944,-2.8559,-2.9134,-2.9761,-3.0335,-3.0958,-3.1004,-3.0784,-3.1089,-3.0176,-2.8789,-2.9106,-2.8826,-2.8351,-2.8154,-2.8507,-2.8994,-2.8994,-2.8994,-2.8994,-2.8994,-2.9355,-2.9827,-3.0317,-3.0433,-3.0533,-3.1044,-3.0775,-3.0494,-3.0871,-3.0948,-3.0948,-3.0948,-3.2006,-3.2795,-3.2468,-3.3526,-3.4141,-3.3276,-3.3006,-3.2641,-3.1948,-3.1756,-3.1371,-3.0494,-3.0398,-3.0398,-3.0398,-3.0398,-3.0398,-3.0448,-3.0487,-3.0539,-3.0574,-3.0662,-3.0723,-3.0781,-3.0859,-3.0898,-3.0898,-3.0898,-3.0898,-3.0898,-3.0898,-3.0898,-2.554,0.0,0.0,-2.8366,-2.9136,-3.003,-3.147,-3.0877,-3.0321,-3.1277,-3.1122,-3.0993,-3.155,-3.1641,-3.1978,-3.3022,-3.2755,-3.2569,-3.2886,-3.1973,-3.1001,-3.0328,-2.937,-2.9535,-3.1509,-3.2033,-3.2781,-3.4098,-3.4038,-3.4008,-3.4188,-3.341,-3.2826,-3.2527,-3.1884,-3.1482,-3.1482,-3.0672,-3.0028,-2.9564,-2.8727,-2.8053,-2.7625,-2.7625,-2.7625,-2.7625,-2.7625,-2.786,-2.8319,-2.9088,-2.9673,-3.0123,-3.0878,-3.1072,-3.0903,-3.0903,-2.9854,-2.8501,-2.8856,-2.8593,-2.8035,-2.794,-2.8308,-2.8863,-2.897,-2.8994,-2.8994,-2.8994,-2.9355,-2.9864,-3.0486,-3.0528,-3.0552,-3.1198,-3.0871,-3.0456,-3.0717,-3.0756,-3.0833,-3.1064,-3.2256,-3.3256,-3.3256,-3.4507,-3.5295,-3.4641,-3.4026,-3.3449,-3.2968,-3.2391,-3.1698,-3.0852,-3.0756,-3.066,-3.0417,-3.0398,-3.0398,-3.0398,-3.0448,-3.0487,-3.0506,-3.0587,-3.0667,-3.0703,-3.0801,-3.0859,-3.0898,-3.0898,-3.0898,-3.0898,-3.0898,-3.1035,-2.6332,0.0,-2.8451,-3.0033,-3.0487,-3.1002,-3.266,-3.1905,-3.111,-3.1996,-3.1444,-3.0901,-3.1257,-3.1001,-3.109,-3.2157,-3.2388,-3.2231,-3.1642,-3.0986,-3.0313,-2.9684,-2.7874,-2.747,0.0,-3.0821,-3.2108,-3.3425,-3.2931,-3.2856,-3.3499,-3.2302,-3.1884,-3.2497,-3.1884,-3.1482,-3.1482,-3.0253,-2.9609,-2.9564,-2.8284,-2.764,-2.7625,-2.7625,-2.7625,-2.7625,-2.7625,-2.7625,-2.771,-2.8904,-2.9406,-2.954,-3.074,-3.0768,-3.0142,-3.0142,-3.0091,-2.9939,-2.9228,-2.875,-2.8323,-2.8,-2.8129,-2.8471,-2.8863,-2.8994,-2.8994,-2.8994,-2.9355,-2.9696,-2.9715,-3.0056,-3.0398,-3.0417,-3.0417,-3.0629,-3.1487,-3.166,-3.1891,-3.2679,-3.3545,-3.416,-3.416,-3.4911,-3.5474,-3.5468,-3.5449,-3.4814,-3.3122,-3.2872,-3.2545,-3.1756,-3.166,-3.1314,-3.0456,-3.0398,-3.0398,-3.0398,-3.0398,-3.0417,-3.0506,-3.0498,-3.0568,-3.0703,-3.0703,-3.0762,-3.0898,-3.0898,-3.0898,-3.0898,-3.0898,-3.1348,-2.7178,0.0,-3.0685,-3.1237,-3.1786,-3.221,-3.2224,-3.1221,-3.0203,-2.9822,-2.9339,-2.8858,-2.8347,-2.8635,-2.9097,-2.9467,-2.9964,-3.0448,-3.0773,-3.0657,-3.0118,-2.9056,-2.8338,0.0,0.0,0.0,0.0,-3.2033,-3.1988,-3.2153,-3.2811,-3.2422,-3.2078,-3.1869,-3.1644,-3.1482,-3.1482,-3.0642,-2.9983,-2.9564,-2.8269,-2.7625,-2.7625,-2.7625,-2.7625,-2.7625,-2.7625,-2.781,-2.8286,-2.9088,-2.9629,-3.0081,-3.0878,-3.0751,-3.0176,-3.0649,-2.9871,-2.8552,-2.8298,-2.8147,-2.8029,-2.7957,-2.8308,-2.8839,-2.8952,-2.8994,-2.8994,-2.8994,-2.9228,-2.9664,-3.0376,-3.0345,-3.0316,-3.1078,-3.0833,-3.0475,-3.0775,-3.1295,-3.1775,-3.2045,-3.3237,-3.4199,-3.4199,-3.493,-3.5493,-3.5493,-3.5493,-3.5084,-3.391,-3.3757,-3.343,-3.2583,-3.2506,-3.2372,-3.2083,-3.1564,-3.1256,-3.1256,-3.0717,-3.0398,-3.0417,-3.0487,-3.0537,-3.0626,-3.0679,-3.0762,-3.0898,-3.0898,-3.0898,-3.0918,-3.1484,-3.1914,-2.8264,-3.0024,-3.1753,-3.2178,-3.2214,-3.2015,-3.1526,-3.0227,-2.8935,-2.819,-2.7846,-2.7382,-2.6445,-2.7204,-2.7861,-2.741,-2.8259,-2.9157,-2.9732,-2.9609,-2.9325,-2.8996,-2.8532,0.0,0.0,0.0,0.0,-3.0986,-3.1332,-3.1719,-3.2138,-3.2153,-3.1973,-3.1482,-3.1482,-3.1482,-3.1482,-3.0627,-2.9729,-2.8861,-2.8524,-2.809,-2.7625,-2.7829,-2.785,-2.7625,-2.7625,-2.781,-2.8222,-2.9042,-2.9629,-3.0081,-3.0878,-3.0903,-3.0497,-3.0429,-2.9482,-2.823,-2.823,-2.7992,-2.7707,-2.7869,-2.8308,-2.8815,-2.897,-2.8994,-2.8994,-2.8994,-2.9181,-2.964,-3.0715,-3.0715,-3.0744,-3.1853,-3.1698,-3.1295,-3.1295,-3.1737,-3.2218,-3.2526,-3.3449,-3.4295,-3.4603,-3.5141,-3.5493,-3.5493,-3.5493,-3.5295,-3.4737,-3.4661,-3.4334,-3.3449,-3.3353,-3.3237,-3.2929,-3.2429,-3.2006,-3.1718,-3.1179,-3.0717,-3.0398,-3.0448,-3.0506,-3.0602,-3.0642,-3.0735,-3.0898,-3.0898,-3.1055,-3.1387,-3.1934,-3.2519,-2.9616,-3.0803,-3.1788,-3.2865,-3.1858,-3.0577,-3.0498,-2.8963,-2.7466,-2.7146,-2.6928,-2.6499,0.0,0.0,-2.7324,-2.6179,-2.7322,-2.8462,-2.8695,-2.824,-2.8293,0.0,0.0,0.0,0.0,0.0,0.0,-3.0357,0.0,-3.1407,-3.1482,-3.1482,-3.1482,-3.1482,-3.1482,-3.1482,-3.1482,-3.0238,-2.8936,-2.7745,-2.8936,-2.8861,-2.7649,-2.8308,-2.8218,-2.7625,-2.7625,-2.7625,-2.776,-2.8904,-2.9406,-2.9585,-3.0707,-3.1106,-3.0903,-2.9536,-2.896,-2.8873,-2.8943,-2.8237,-2.7365,-2.7783,-2.8129,-2.8471,-2.8863,-2.8994,-2.8994,-2.8994,-2.9218,-2.9676,-3.0715,-3.117,-3.1603,-3.2647,-3.2878,-3.2891,-3.2891,-3.2949,-3.3218,-3.4026,-3.4237,-3.4526,-3.5372,-3.5493,-3.5493,-3.5493,-3.5493,-3.5493,-3.5493,-3.5493,-3.518,-3.4353,-3.4257,-3.393,-3.3103,-3.2987,-3.2622,-3.1814,-3.1718,-3.1314,-3.0436,-3.0398,-3.0467,-3.0602,-3.0607,-3.0708,-3.0898,-3.0898,-3.1328,-3.2148,-3.2226,-3.3105,-3.1296,-3.239,-3.3015,-3.2321,-3.1328,-3.0027,-2.8147,-2.7315,-2.663,-2.5613,-2.5367,-2.5018,0.0,0.0,0.0,-2.5888,-2.757,0.0,-3.0535,-3.1036,0.0,-3.1734,0.0,-3.0986,-3.0328,-3.0417,0.0,0.0,-3.0238,-3.0507,-3.1422,-3.1482,-3.1482,-3.1482,-3.1482,-3.1482,-3.1482,-3.0238,-2.9415,-2.9071,-2.8921,-2.8667,-2.8353,-2.8517,-2.8218,-2.7625,-2.7625,-2.786,-2.8319,-2.9088,-2.9673,-3.0117,-3.0291,-3.004,-2.9536,-2.9163,-2.8264,-2.7351,-2.7926,-2.7742,-2.7365,-2.7783,-2.8129,-2.8471,-2.8863,-2.8994,-2.8994,-2.8994,-2.9485,-3.012,-3.057,-3.1318,-3.2083,-3.2489,-3.2746,-3.2891,-3.2891,-3.341,-3.393,-3.416,-3.4718,-3.5238,-3.5468,-3.5493,-3.5493,-3.5493,-3.5493,-3.5493,-3.5493,-3.5493,-3.5411,-3.5199,-3.518,-3.5084,-3.4872,-3.4237,-3.3506,-3.2641,-3.2025,-3.1314,-3.0436,-3.0398,-3.0467,-3.0602,-3.0607,-3.0708,-3.0898,-3.0898,-3.1016,-3.1269,-3.2519,-3.332,-3.2449,-3.3256,-3.3474,-3.2128,-3.0888,-2.9405,-2.7196,-2.6437,-2.5902,-2.4988,-2.4804,0.0,-2.3401,0.0,0.0,0.0,0.0,0.0,-2.989,-3.0968,-3.1853,0.0,-3.2766,0.0,-3.1495,-3.148,-3.1317,0.0,-3.0642,-3.0761,-3.1437,-3.1482,-3.1482,-3.1482,-3.1482,-3.139,-3.1091,-3.0657,-3.0148,-2.9579,-2.949,-2.9146,-2.8607,-2.8607,-2.8218,-2.7625,0.0,-2.781,-2.8158,-2.8711,-2.9118,-2.9473,-2.9917,-2.9651,-2.9062,-2.9347,-2.8721,-2.7706,-2.7791,-2.7675,-2.7562,-2.783,-2.8362,-2.8995,-2.9417,-2.9769,-3.0063,-3.0063,-3.0375,-3.087,-3.1485,-3.2091,-3.2635,-3.3001,-3.3467,-3.3782,-3.3532,-3.416,-3.4776,-3.4776,-3.518,-3.5493,-3.5493,-3.5493,-3.5493,-3.5493,-3.5493,-3.5493,-3.5493,-3.5493,-3.5493,-3.5493,-3.5493,-3.5493,-3.5493,-3.5045,-3.4391,-3.3526,-3.2699,-3.1852,-3.1006,-3.059,-3.0467,-3.0602,-3.0607,-3.0708,-3.0898,-3.0898,-3.1094,-3.1504,-3.2793,-3.3398,-3.3428,-3.3863,-3.3646,-3.2289,-3.0617,-2.8833,-2.7107,-2.6068,-2.5321,-2.4893,0.0,-2.4383,-2.3361,-2.4335,-2.4997,-2.4098,0.0,-2.7477,-2.8623,-2.9902,-3.1221,-3.2586,-3.3365,-3.3469,-3.2721,-3.2138,-3.1719,-3.1482,-3.1482,-3.1482,-3.1482,-3.1482,-3.1437,-3.1405,-3.1315,-3.0941,-3.0253,-3.0926,-3.0657,-2.946,-3.0088,-2.9759,-2.8607,-2.8607,-2.8218,-2.7625,0.0,0.0,-2.7849,-2.8288,-2.8522,-2.8779,-2.9744,-2.9702,-2.9194,-2.9634,-2.9397,-2.8721,-2.7943,-2.7707,-2.7743,-2.7877,-2.8647,-2.962,-3.0051,-3.076,-3.1384,-3.1384,-3.1476,-3.1771,-3.2701,-3.3059,-3.3253,-3.3654,-3.4442,-3.4926,-3.4332,-3.4872,-3.5493,-3.5493,-3.5493,-3.5493,-3.5493,-3.5493,-3.5493,-3.5493,-3.5493,-3.5493,-3.5493,-3.5493,-3.5493,-3.5493,-3.5493,-3.5493,-3.5493,-3.5493,-3.5084,-3.4083,-3.343,-3.2602,-3.1564,-3.091,-3.0583,-3.0602,-3.0607,-3.0767,-3.1074,-3.1074,-3.1523,-3.2383,-3.3066,-3.3398,-3.5162,-3.5173,-3.4544,-3.3133,-3.1037,-2.8846,-2.7104,-2.5955,0.0,0.0,-2.4452,-2.3949,-2.331,-2.3736,-2.4419,-2.5154,0.0,0.0,0.0,0.0,-3.2516,0.0,0.0,0.0,0.0,0.0,0.0,0.0,0.0,0.0,-3.1482,-3.1482,-3.127,-3.0702,-3.0193,-2.9609,-2.8936,-2.9579,-2.9535,-2.8786,-2.943,-2.934,-2.8607,-2.8607,-2.8218,-2.7625,0.0,0.0,-2.9073,-2.9188,-2.9799,-3.0667,-3.0251,-3.0023,-2.977,-2.8636,-2.8129,-2.7909,-2.7148,-2.7111,-2.7445,-2.7789,-2.8497,-2.9319,-3.0002,-3.076,-3.1384,-3.1384,-3.188,-3.243,-3.2636,-3.3339,-3.3896,-3.3541,-3.43,-3.4926,-3.4332,-3.4872,-3.5493,-3.5493,-3.5493,-3.5493,-3.5493,-3.5493,-3.5493,-3.5493,-3.5493,-3.5493,-3.5493,-3.5493,-3.5493,-3.5493,-3.5493,-3.5493,-3.5493,-3.5493,-3.4834,-3.3237,-3.366,-3.2968,-3.0717,-3.1179,-3.1198,-3.0602,-3.0607,-3.104,-3.1973,-3.1973,-3.2383,-3.3203,-3.332,-3.3398,-3.5656,-3.6253,-3.614,-3.4172,-3.216,-3.0074,-2.7884,0.0,0.0,0.0,-2.4366,-2.3832,-2.3287,-2.3562,0.0,0.0,0.0,0.0,0.0,0.0,0.0,0.0,0.0,0.0,0.0,0.0,0.0,0.0,0.0,0.0,-3.1497,-3.1195,-3.0702,-3.0043,-2.9729,-2.9579,-2.9594,-2.9579,-2.9579,-2.9579,-2.9235,-2.8906,-2.8592,-2.8233,-2.7874,-2.7595,-2.72,0.0,-2.8322,-2.7906,-2.8233,-2.8948,-2.8932,-2.8907,-2.8873,-2.8552,-2.8416,-2.8366,-2.801,-2.8152,-2.856,-2.8981,-2.9525,-3.0222,-3.1159,-3.2008,-3.2651,-3.2651,-3.2632,-3.2706,-3.3128,-3.3313,-3.3369,-3.3383,-3.4029,-3.4683,-3.4839,-3.5199,-3.5493,-3.5493,-3.5493,-3.5493,-3.5493,-3.5493,-3.5493,-3.5493,-3.5493,-3.5493,-3.5493,-3.5493,-3.5493,-3.5493,-3.5493,-3.5493,-3.5493,-3.5493,-3.5141,-3.4314,-3.3795,-3.2987,-3.1756,-3.1256,-3.1102,-3.1225,-3.1266,-3.1765,-3.2773,-3.2812,-3.3027,-3.3398,-3.3398,-3.3184,-3.5754,-3.7086,-3.77,-3.5224,-3.3229,-3.1203,-2.8613,-2.6517,0.0,0.0,-2.4279,-2.3689,-2.3282,0.0,-2.3386,0.0,-2.4462,0.0,0.0,0.0,0.0,0.0,0.0,0.0,0.0,0.0,0.0,0.0,0.0,0.0,-3.1497,-3.0881,-3.0283,-2.9789,-2.9654,-2.9744,-3.0088,-2.9759,-2.9684,-2.9864,-2.9011,-2.8517,-2.8353,-2.7679,-2.745,-2.7504,-2.6841,0.0,0.0,-2.686,-2.6877,-2.7392,-2.7866,-2.8163,-2.8366,-2.8822,-2.9011,-2.8958,-2.8789,-2.8887,-2.9221,-2.9969,-3.0641,-3.1347,-3.2308,-3.3054,-3.3587,-3.3752,-3.3109,-3.2577,-3.355,-3.3254,-3.2871,-3.3597,-3.3993,-3.443,-3.5315,-3.5493,-3.5493,-3.5493,-3.5493,-3.5493,-3.5493,-3.5493,-3.5493,-3.5493,-3.5493,-3.5493,-3.5493,-3.5493,-3.5493,-3.5493,-3.5493,-3.5493,-3.5493,-3.5493,-3.543,-3.5238,-3.4122,-3.3218,-3.2679,-3.1545,-3.1109,-3.1513,-3.1564,-3.2167,-3.3301,-3.3164,-3.3398,-3.3945,-3.3398,-3.3008,-3.5965,-3.7543,-3.8608,-3.6194,-3.366,-3.115,-2.8668,0.0,-2.4823,-2.4813,-2.3988,-2.3259,-2.3212,-2.279,-2.2512,-2.2661,-2.2911,-2.363,0.0,0.0,0.0,0.0,0.0,0.0,0.0,0.0,0.0,0.0,0.0,0.0,0.0,-3.0881,-3.0477,-3.0417,-2.9879,-2.9325,-2.8786,-2.931,-2.8996,-2.7844,-2.8368,-2.8263,-2.7685,-2.6976,-2.6952,-2.7396,0.0,0.0,0.0,-2.7984,-2.8246,-2.88,-2.8873,-2.9296,-2.982,-2.9211,-2.9011,-2.889,-2.8163,-2.7725,-2.783,-2.9695,-3.1076,-3.2053,-3.2472,-3.2669,-3.2871,-3.3587,-3.2687,-3.1861,-3.3403,-3.3377,-3.3306,-3.4641,-3.4561,-3.443,-3.5315,-3.5493,-3.5493,-3.5493,-3.5493,-3.5493,-3.5493,-3.5493,-3.5493,-3.5493,-3.5493,-3.5493,-3.5493,-3.5493,-3.5493,-3.5493,-3.5493,-3.5493,-3.5493,-3.5493,-3.5161,-3.4372,-3.4911,-3.4218,-3.191,-3.2352,-3.2025,-3.066,-3.0641,-3.1507,-3.3301,-3.2519,-3.3379,-3.5703,-3.3398,-3.3086,-3.4943,-3.6837,-3.807,-3.6178,-3.3738,-3.1289,-2.9331,0.0,-2.4807,-2.4794,-2.3949,-2.3189,-2.3189,-2.2476,-2.1817,-2.1711,-2.2037,0.0,-2.3111,0.0,0.0,0.0,0.0,0.0,0.0,0.0,0.0,0.0,0.0,0.0,0.0,-2.9714,-2.916,-2.8757,-2.8502,-2.8442,-2.8607,-2.8442,-2.8308,-2.8188,-2.8053,-2.7634,-2.6976,-2.6707,-2.6507,-2.632,0.0,0.0,0.0,-2.6864,-2.7145,-2.7604,-2.7604,-2.8349,-2.933,-2.8569,-2.8569,-2.8941,-2.8619,-2.844,-2.8599,-2.9862,-3.0905,-3.1889,-3.2983,-3.333,-3.3293,-3.3128,-3.2632,-3.2284,-3.2926,-3.3547,-3.4218,-3.4923,-3.5036,-3.5084,-3.543,-3.5892,-3.6219,-3.6219,-3.6219,-3.6219,-3.6219,-3.5834,-3.5493,-3.5493,-3.5493,-3.5493,-3.5493,-3.5493,-3.5493,-3.5493,-3.5493,-3.5493,-3.5493,-3.5493,-3.5353,-3.5007,-3.4814,-3.4257,-3.3256,-3.3096,-3.2961,-3.2795,-3.2909,-3.3583,-3.485,-3.4569,-3.4687,-3.5176,-3.3633,-3.3281,-3.3392,-3.5439,-3.6882,-3.5339,-3.3167,-3.0976,0.0,0.0,-2.4798,-2.4794,-2.3949,-2.3189,-2.3189,-2.2317,-2.146,-2.1055,-2.1325,-2.1522,-2.1407,0.0,0.0,0.0,0.0,0.0,0.0,0.0,0.0,0.0,0.0,0.0,0.0,-2.8667,-2.8248,-2.8173,-2.821,-2.8308,-2.8607,-2.8113,-2.8008,-2.8293,-2.785,-2.723,-2.6572,-2.6393,-2.6023,-2.5531,0.0,0.0,0.0,-2.6028,-2.6262,-2.6691,-2.6691,-2.7621,-2.8924,-2.8366,-2.8653,-2.9279,-2.9059,-2.8938,-2.8999,-2.9655,-3.033,-3.113,-3.2643,-3.3091,-3.3018,-3.2706,-3.2779,-3.2934,-3.2778,-3.3691,-3.4754,-3.5053,-3.5304,-3.5493,-3.5493,-3.5949,-3.6353,-3.6353,-3.6546,-3.6622,-3.6392,-3.6084,-3.5776,-3.5545,-3.5493,-3.5493,-3.5493,-3.5493,-3.5493,-3.5493,-3.5493,-3.5493,-3.5493,-3.5493,-3.5493,-3.5493,-3.4949,-3.4487,-3.4237,-3.3757,-3.3653,-3.397,-3.4109,-3.4607,-3.5528,-3.5301,-3.5159,-3.5059,-3.3672,-3.3047,-3.1329,-3.3389,-3.5152,-3.3614,-3.1809,-3.0019,0.0,-2.6383,-2.4804,-2.4804,-2.3949,-2.3189,-2.3189,-2.2317,-2.146,-2.1055,-2.0632,-2.0404,-2.0655,0.0,0.0,0.0,0.0,0.0,0.0,0.0,0.0,0.0,0.0,0.0,0.0,-2.7949,-2.824,-2.952,-2.9564,-2.925,-2.8607,-2.8592,-2.8248,-2.7625,-2.7625,-2.723,-2.6572,-2.5914,-2.5516,0.0,0.0,0.0,0.0,-2.6013,-2.6262,-2.6691,-2.6691,-2.7621,-2.9011,-2.8975,-2.9448,-2.9989,-2.9245,-2.8733,-2.8479,-2.8959,-2.9347,-2.9844,-3.1071,-3.1403,-3.1586,-3.2394,-3.3183,-3.3666,-3.312,-3.3845,-3.4754,-3.5053,-3.5304,-3.5493,-3.5493,-3.5526,-3.5512,-3.5512,-3.6161,-3.6449,-3.5661,-3.618,-3.643,-3.5622,-3.5493,-3.5493,-3.5493,-3.5493,-3.5493,-3.5493,-3.5493,-3.5493,-3.5493,-3.5493,-3.5493,-3.5493,-3.5565,-3.5199,-3.4327,-3.4422,-3.4083,-3.3225,-3.3206,-3.3674,-3.4619,-3.3759,-3.4233,-3.5937,-3.3398,-3.2207,-2.9502,-3.0809,-3.1773,-3.0776,-2.9615,-2.8384,-2.7208,-2.5831,-2.4712,-2.4332,-2.3689,-2.3117,-2.2898,-2.1927,-2.115,-2.1023,-2.0379,-1.9914,0.0,0.0,0.0,0.0,0.0,0.0,0.0,0.0,0.0,0.0,0.0,0.0,0.0,0.0,-2.7305,-2.8188,-2.7769,-2.744,-2.723,-2.6782,-2.6452,-2.6228,-2.6228,-2.5884,-2.5241,-2.5031,0.0,0.0,0.0,0.0,0.0,-2.6332,-2.659,-2.6691,-2.6691,-2.73,-2.8197,-2.8197,-2.8687,-2.9265,-2.8785,-2.8687,-2.8793,-2.8665,-2.8895,-2.9259,-2.963,-3.0925,-3.2394,-3.3201,-3.322,-3.3114,-3.3658,-3.4258,-3.4754,-3.5053,-3.5304,-3.5493,-3.5493,-3.593,-3.6334,-3.6334,-3.7007,-3.7507,-3.7257,-3.693,-3.6622,-3.6372,-3.5853,-3.5699,-3.6257,-3.5853,-3.5718,-3.6257,-3.5834,-3.5493,-3.5493,-3.5493,-3.5526,-3.5584,-3.5603,-3.5495,-3.5271,-3.5391,-3.5329,-3.5052,-3.51,-3.5254,-3.5564,-3.5272,-3.5137,-3.5098,-3.4277,-3.3906,-2.7834,-2.8781,-2.9398,-2.8969,-2.8118,0.0,-2.6657,-2.5608,-2.4678,-2.4207,-2.3629,-2.3052,-2.2574,-2.1681,-2.0926,-2.0748,-2.0139,-1.969,0.0,0.0,0.0,0.0,0.0,0.0,0.0,0.0,0.0,0.0,0.0,0.0,0.0,0.0,-2.6408,-2.6811,-2.6437,-2.6213,-2.6213,-2.5809,-2.5615,-2.5615,-2.5615,-2.527,-2.4582,-2.4582,0.0,0.0,0.0,0.0,0.0,-2.6332,-2.6556,-2.6691,-2.6691,-2.7165,-2.7789,-2.7789,-2.8315,-2.8946,-2.8374,-2.8557,-2.8906,-2.8379,-2.8583,-2.9104,-2.9732,-3.0962,-3.232,-3.3128,-3.322,-3.3224,-3.3993,-3.4445,-3.4754,-3.5053,-3.5304,-3.5493,-3.5493,-3.5892,-3.6257,-3.6257,-3.693,-3.7507,-3.7507,-3.7334,-3.7199,-3.7199,-3.6757,-3.6507,-3.668,-3.6257,-3.6045,-3.6257,-3.5853,-3.5565,-3.5584,-3.5565,-3.5584,-3.5641,-3.5699,-3.5733,-3.5766,-3.5881,-3.5937,-3.5937,-3.5971,-3.5996,-3.5996,-3.5996,-3.5547,-3.4707,-3.4707,-3.4512,0.0,-2.7195,-2.7831,-2.789,0.0,0.0,-2.6554,-2.5647,0.0,-2.4309,-2.3656,-2.2912,-2.219,-2.1442,-2.0797,-2.0382,-1.9965,0.0,0.0,0.0,0.0,0.0,0.0,0.0,0.0,0.0,0.0,0.0,0.0,0.0,0.0,0.0,-2.554,-2.554,-2.5495,-2.5495,-2.554,-2.5495,-2.5465,-2.5465,-2.5465,-2.5151,-2.4507,-2.4507,0.0,0.0,0.0,0.0,0.0,-2.6049,-2.6297,-2.6691,-2.6691,-2.7131,-2.7705,-2.7705,-2.823,-2.8825,-2.8064,-2.8313,-2.8906,-2.8202,-2.8492,-2.9365,-3.0852,-3.1347,-3.1568,-3.2449,-3.322,-3.3876,-3.4147,-3.4467,-3.4774,-3.5034,-3.5343,-3.5603,-3.5603,-3.5641,-3.568,-3.568,-3.6334,-3.6892,-3.6892,-3.7565,-3.8084,-3.8084,-3.8046,-3.7738,-3.6988,-3.6834,-3.6565,-3.5949,-3.5842,-3.5803,-3.5815,-3.5746,-3.5707,-3.5699,-3.5892,-3.5977,-3.5913,-3.5973,-3.5996,-3.5996,-3.5996,-3.5996,-3.5996,-3.5996,-3.5586,-3.4785,-3.4785,-3.4355,-2.5664,0.0,-2.6012,-2.6022,-2.5704,-2.5346,0.0,-2.4911,-2.4371,-2.3627,-2.3077,-2.2531,-2.1845,-2.1023,-2.0449,-2.0314,-1.9965,0.0,0.0,0.0,0.0,0.0,0.0,0.0,0.0,0.0,0.0,0.0,0.0,0.0,0.0,0.0,-2.4821,-2.4821,-2.4343,-2.4328,-2.4852,-2.4343,-2.4073,-2.4073,-2.4073,-2.3984,-2.3849,-2.3849,0.0,0.0,0.0,0.0,-2.6556,-2.6556,-2.659,-2.6691,-2.6691,-2.681,-2.6962,-2.6962,-2.7435,-2.8047,-2.7917,-2.8358,-2.8965,-2.8786,-2.9284,-2.9989,-3.0375,-3.0907,-3.1696,-3.3109,-3.3788,-3.4123,-3.4176,-3.4595,-3.5016,-3.5088,-3.5764,-3.643,-3.643,-3.6949,-3.7411,-3.7411,-3.8104,-3.8681,-3.8681,-3.8854,-3.8988,-3.8988,-3.843,-3.818,-3.8695,-3.8234,-3.806,-3.8594,-3.8061,-3.7444,-3.6889,-3.6744,-3.6435,-3.59,-3.6516,-3.6618,-3.5997,-3.5992,-3.5996,-3.5996,-3.5996,-3.5996,-3.5996,-3.5996,-3.5898,-3.5684,-3.5684,-3.5586,-2.5377,-2.5609,-2.5766,-2.5357,-2.5367,-2.5338,-2.4894,-2.4639,-2.4283,-2.3502,-2.2922,-2.2409,-2.1698,-2.107,-2.055,0.0,-2.0296,0.0,0.0,0.0,0.0,0.0,0.0,0.0,0.0,0.0,0.0,0.0,0.0,0.0,0.0,0.0,-2.4163,-2.4163,-2.3789,-2.3774,-2.4148,-2.3789,-2.3595,-2.3595,-2.3595,-2.3595,-2.3595,-2.3595,0.0,0.0,0.0,0.0,-2.6218,-2.6556,-2.6488,-2.6234,-2.6573,-2.6691,-2.6691,-2.6691,-2.708,-2.7585,-2.7626,-2.8116,-2.8766,-2.8943,-2.9549,-3.0265,-3.0632,-3.1415,-3.2329,-3.3192,-3.3796,-3.4269,-3.4534,-3.487,-3.5122,-3.5239,-3.5729,-3.6161,-3.6161,-3.6815,-3.7411,-3.7411,-3.8104,-3.8834,-3.9273,-3.933,-3.945,-3.9927,-3.9561,-3.9296,-3.9469,-3.9103,-3.8748,-3.8507,-3.8083,-3.7478,-3.6702,-3.6949,-3.6803,-3.6005,-3.6382,-3.6445,-3.6015,-3.5996,-3.5996,-3.5996,-3.5996,-3.5996,-3.5996,-3.5996,-3.5996,-3.5996,-3.5996,-3.5996,-2.5338,-2.5844,-2.6212,-2.531,-2.5442,-2.5627,-2.493,-2.4575,-2.4192,0.0,0.0,0.0,0.0,-2.1118,0.0,0.0,0.0,0.0,0.0,0.0,0.0,0.0,0.0,0.0,0.0,0.0,0.0,0.0,0.0,0.0,0.0,0.0,0.0,-2.3595,-2.3595,-2.3595,-2.3595,-2.3595,-2.3595,-2.3595,-2.3595,-2.3595,-2.3595,-2.3595,-2.4138,0.0,0.0,0.0,-2.5642,-2.615,-2.6133,-2.5812,-2.6201,-2.6488,-2.6674,-2.6573,-2.6869,-2.7334,-2.7439,-2.7918,-2.854,-2.8905,-2.9641,-3.0503,-3.1182,-3.2236,-3.3175,-3.3262,-3.3769,-3.4449,-3.4981,-3.5122,-3.5223,-3.5446,-3.5589,-3.568,-3.568,-3.643,-3.7103,-3.7103,-3.7815,-3.8661,-3.9446,-3.9548,-3.9813,-4.0673,-4.0742,-4.0506,-3.9892,-3.982,-3.9296,-3.7959,-3.7696,-3.7278,-3.6462,-3.6938,-3.6934,-3.6054,-3.6113,-3.6133,-3.6016,-3.5996,-3.5996,-3.5996,-3.5996,-3.5996,-3.5996,-3.5996,-3.5996,-3.5996,-3.5996,-3.5996,-2.5338,-2.5882,-2.6258,-2.5251,-2.5004,-2.4896,-2.4613,-2.4155,-2.3617,0.0,0.0,0.0,0.0,-2.0431,0.0,0.0,0.0,0.0,0.0,0.0,0.0,0.0,0.0,0.0,0.0,0.0,0.0,0.0,0.0,0.0,0.0,0.0,0.0,-2.3595,-2.3595,-2.3595,-2.3595,-2.3595,-2.3595,-2.3595,-2.3595,-2.3595,-2.3595,-2.3595,-2.3851,0.0,0.0,-2.4762,-2.5558,-2.5033,-2.549,-2.642,-2.527,-2.5592,-2.6623,-2.5998,-2.6441,-2.7378,-2.8012,-2.854,-2.8929,-2.8994,-3.0008,-3.1237,-3.1347,-3.2625,-3.406,-3.4363,-3.468,-3.498,-3.5088,-3.5273,-3.5446,-3.5493,-3.6026,-3.6526,-3.6526,-3.7777,-3.8892,-3.8892,-3.9642,-4.0331,-4.0485,-4.0537,-4.0615,-4.0781,-4.08,-4.0789,-4.08,-4.0781,-4.0738,-4.0603,-3.993,-3.9149,-3.8268,-3.7643,-3.6926,-3.6055,-3.6699,-3.6777,-3.6035,-3.5996,-3.5996,-3.5996,-3.5996,-3.5996,-3.5996,-3.5996,-3.5996,-3.5996,-3.5996,-3.5996,-2.5318,-2.563,-2.5812,-2.516,-2.5171,-2.5186,-2.4625,-2.4229,-2.3777,0.0,0.0,0.0,0.0,0.0,0.0,0.0,0.0,0.0,0.0,0.0,0.0,0.0,0.0,0.0,0.0,0.0,0.0,0.0,0.0,0.0,0.0,0.0,0.0,0.0,-2.3595,-2.343,-2.3101,-2.3101,-2.3266,-2.3595,-2.3489,-2.3431,-2.3416,-2.3332,-2.3721,-2.447,0.0,-2.4677,-2.5,-2.5067,-2.5017,-2.4881,-2.4625,-2.5152,-2.6182,-2.6644,-2.7291,-2.7974,-2.854,-2.8839,-2.8994,-2.8994,-2.9787,-3.0864,-3.1459,-3.262,-3.393,-3.4699,-3.4999,-3.5122,-3.5289,-3.5417,-3.5493,-3.5493,-3.5795,-3.618,-3.6622,-3.7757,-3.883,-3.9273,-4.0119,-4.0773,-4.085,-4.0823,-4.0848,-4.0979,-4.0937,-4.0953,-4.1089,-4.1103,-4.0944,-4.0546,-3.9726,-3.8848,-3.7969,-3.7109,-3.6426,-3.6035,-3.6387,-3.6426,-3.6016,-3.5996,-3.5996,-3.5996,-3.5996,-3.5996,-3.5996,-3.5996,-3.5996,-3.5996,-3.5996,-3.5996,-2.5279,-2.5411,-2.5437,-2.5084,-2.5283,-2.543,-2.4889,-2.4561,-2.4169,0.0,0.0,0.0,0.0,0.0,0.0,0.0,0.0,0.0,0.0,0.0,0.0,0.0,0.0,0.0,0.0,0.0,0.0,0.0,0.0,0.0,0.0,0.0,0.0,0.0,-2.3385,-2.3086,-2.2458,-2.2484,-2.2682,-2.3146,-2.3006,-2.2985,-2.3072,-2.2901,-2.3382,-2.4278,-2.4278,-2.4281,-2.4255,-2.4678,-2.4374,-2.371,-2.3986,-2.4573,-2.5493,-2.713,-2.7897,-2.8193,-2.8808,-2.8994,-2.9017,-2.9067,-2.9642,-3.0448,-3.1315,-3.2333,-3.3411,-3.4482,-3.4833,-3.499,-3.5388,-3.5353,-3.5257,-3.5449,-3.5526,-3.5699,-3.6315,-3.7219,-3.8166,-3.8975,-3.989,-4.0639,-4.0947,-4.0946,-4.0959,-4.1171,-4.111,-4.1081,-4.1189,-4.1191,-4.0937,-4.0273,-3.9414,-3.8476,-3.7383,-3.6504,-3.5996,-3.5996,-3.5996,-3.5996,-3.5996,-3.5996,-3.5996,-3.5996,-3.5996,-3.5996,-3.5996,-3.5996,-3.5996,-3.5996,-3.5996,-3.5996,-2.5279,-2.543,-2.5494,-2.5103,-2.4934,-2.5001,-2.55,-2.5216,0.0,-2.3902,0.0,0.0,0.0,0.0,0.0,0.0,0.0,0.0,0.0,0.0,0.0,0.0,0.0,0.0,0.0,0.0,0.0,0.0,0.0,0.0,0.0,0.0,0.0,0.0,0.0,-2.2428,-2.1769,-2.1769,-2.1784,-2.1829,-2.1824,-2.2015,-2.2377,-2.2384,-2.2485,-2.2752,-2.2752,-2.3036,-2.3427,-2.2801,-2.3274,-2.4316,-2.3261,-2.3467,-2.4635,-2.6552,-2.7277,-2.7434,-2.8607,-2.8994,-2.904,-2.9289,-2.9911,-3.0605,-3.0885,-3.1707,-3.2746,-3.3639,-3.4064,-3.4455,-3.5282,-3.4911,-3.4507,-3.5315,-3.5565,-3.5622,-3.568,-3.6416,-3.7353,-3.8213,-3.9139,-4.0046,-4.085,-4.1096,-4.1171,-4.1191,-4.119,-4.119,-4.1191,-4.1191,-4.1172,-4.1113,-4.0332,-3.9121,-3.7441,-3.6504,-3.5996,-3.5996,-3.5996,-3.5996,-3.5996,-3.5996,-3.5996,-3.5996,-3.5996,-3.5996,-3.5996,-3.5996,-3.5996,-3.5996,-3.5996,-3.5996,-2.5442,-2.5488,-2.5503,-2.5163,-2.4802,0.0,0.0,-2.5087,-2.4473,-2.4222,-2.367,0.0,0.0,0.0,0.0,0.0,0.0,0.0,0.0,0.0,0.0,0.0,0.0,0.0,0.0,0.0,0.0,0.0,0.0,0.0,0.0,0.0,0.0,0.0,0.0,-2.1754,-2.1096,-2.1081,-2.0872,-2.0453,-2.1424,-2.1972,-2.2118,-2.2231,-2.2599,-2.309,-2.309,-2.321,-2.3376,-2.3105,-2.3038,-2.3134,-2.3347,-2.3952,-2.4879,-2.6585,-2.7351,-2.7725,-2.8864,-2.9246,-2.9289,-2.9514,-2.9795,-3.0171,-3.0928,-3.1439,-3.197,-3.2967,-3.2954,-3.3083,-3.5007,-3.5295,-3.5161,-3.5488,-3.5622,-3.5804,-3.6348,-3.681,-3.7525,-3.8897,-3.9527,-4.0103,-4.0967,-4.1175,-4.1191,-4.1191,-4.1191,-4.1191,-4.1191,-4.1191,-4.1191,-4.1191,-3.9941,-3.8613,-3.7402,-3.6504,-3.5996,-3.5996,-3.5996,-3.5996,-3.5996,-3.5996,-3.5996,-3.5996,-3.5996,-3.5996,-3.5996,-3.5996,-3.5996,-3.5996,-3.5996,-3.5996,-2.5473,-2.5478,-2.5495,-2.5177,0.0,0.0,-2.5727,-2.5262,-2.4678,-2.4645,-2.3842,0.0,0.0,0.0,0.0,0.0,0.0,0.0,0.0,0.0,0.0,0.0,0.0,0.0,0.0,0.0,0.0,0.0,0.0,0.0,0.0,0.0,0.0,0.0,0.0,0.0,-2.0585,-2.0585,-2.0415,-2.012,-2.1305,-2.181,-2.1695,-2.1966,-2.2449,-2.3054,-2.3054,-2.3054,-2.3054,-2.3054,-2.2875,-2.2676,-2.3519,-2.4183,-2.4835,-2.6159,-2.7017,-2.7664,-2.8645,-2.9211,-2.9532,-2.9731,-2.9796,-2.9943,-3.0767,-3.1016,-3.1216,-3.2238,-3.2122,-3.216,-3.4186,-3.4532,-3.4507,-3.5064,-3.5258,-3.5577,-3.6464,-3.6735,-3.724,-3.8674,-3.9234,-3.9766,-4.0644,-4.1016,-4.1191,-4.1191,-4.1191,-4.1191,-4.1191,-4.1191,-4.1094,-4.082,-3.9473,-3.8242,-3.7363,-3.6504,-3.5996,-3.5996,-3.5996,-3.5996,-3.5996,-3.5996,-3.5996,-3.5996,-3.5996,-3.5996,-3.5996,-3.5996,-3.5996,-3.5996,-3.5996,-3.5996,-2.5342,-2.5457,-2.5444,0.0,0.0,0.0,-2.619,-2.5877,-2.542,-2.5147,0.0,-2.3119,0.0,0.0,0.0,0.0,0.0,0.0,0.0,0.0,0.0,0.0,0.0,0.0,0.0,0.0,0.0,0.0,0.0,0.0,0.0,0.0,0.0,0.0,0.0,0.0,-2.028,-2.028,-2.0516,-2.0991,-2.1399,-2.1399,-2.1023,-2.143,-2.1869,-2.231,-2.231,-2.231,-2.231,-2.231,-2.266,-2.3236,-2.3566,-2.3896,-2.43,-2.5109,-2.6041,-2.7009,-2.7811,-2.8802,-2.9748,-2.9939,-2.9999,-3.0042,-3.0311,-3.0398,-3.0571,-3.1448,-3.1698,-3.1878,-3.275,-3.234,-3.2122,-3.3885,-3.4391,-3.4769,-3.5682,-3.595,-3.6269,-3.7129,-3.8008,-3.8867,-3.9746,-4.0605,-4.1191,-4.1191,-4.1191,-4.1191,-4.1191,-4.1191,-4.0879,-3.998,-3.9121,-3.8242,-3.7363,-3.6504,-3.5996,-3.5996,-3.5996,-3.5996,-3.5996,-3.5996,-3.5996,-3.5996,-3.5996,-3.5996,-3.5996,-3.5996,-3.5996,-3.5996,-3.5996,-3.5996,-2.5572,-2.5526,0.0,-2.5997,0.0,0.0,0.0,-2.6009,0.0,0.0,0.0,0.0,0.0,0.0,0.0,0.0,0.0,0.0,0.0,0.0,0.0,0.0,0.0,0.0,0.0,0.0,0.0,0.0,0.0,0.0,0.0,0.0,0.0,0.0,0.0,0.0,-1.9874,-1.9874,-2.0104,-2.0516,-2.0943,-2.1275,-2.143,-2.1899,-2.218,-2.231,-2.231,-2.2415,-2.2599,-2.2832,-2.3183,-2.3566,-2.3671,-2.3896,-2.43,-2.5109,-2.6041,-2.7046,-2.8048,-2.9063,-2.9954,-3.0196,-3.0267,-3.0299,-3.0386,-3.0398,-3.0456,-3.0775,-3.0871,-3.0929,-3.1225,-3.111,-3.1388,-3.3173,-3.4136,-3.473,-3.4995,-3.5556,-3.6269,-3.7129,-3.7519,-3.7969,-3.8848,-3.9707,-4.0293,-4.0293,-4.0801,-4.1191,-4.1191,-4.1191,-4.0879,-3.998,-3.9121,-3.8224,-3.7307,-3.6435,-3.5896,-3.5788,-3.5792,-3.5827,-3.5931,-3.5962,-3.5976,-3.5937,-3.5937,-3.5941,-3.5941,-3.584,-3.5792,-3.5797,-3.5891,-3.587,-2.5428,-2.5444,0.0,-2.644,-2.6328,-2.6049,-2.6127,0.0,0.0,0.0,0.0,0.0,0.0,0.0,0.0,0.0,0.0,0.0,0.0,0.0,0.0,0.0,0.0,0.0,0.0,0.0,0.0,0.0,0.0,0.0,0.0,0.0,0.0,0.0,0.0,0.0,-1.9929,-2.0104,-2.0431,-2.083,-2.1275,-2.1645,-2.1899,-2.218,-2.231,-2.231,-2.2398,-2.2563,-2.2746,-2.3212,-2.3522,-2.3714,-2.3855,-2.4057,-2.4377,-2.4857,-2.5742,-2.6758,-2.7392,-2.8503,-2.9679,-2.9836,-3.0121,-3.0398,-3.0417,-3.0448,-3.0448,-3.0525,-3.0546,-3.055,-3.0617,-3.0636,-3.0993,-3.2435,-3.3216,-3.3821,-3.4549,-3.5117,-3.5742,-3.6601,-3.7051,-3.7461,-3.7988,-3.8804,-3.9374,-3.9316,-4.0012,-4.057,-4.0593,-4.0586,-4.0098,-3.8885,-3.828,-3.7605,-3.6676,-3.6119,-3.5791,-3.5718,-3.5689,-3.5715,-3.579,-3.5849,-3.5856,-3.5818,-3.5818,-3.5821,-3.5815,-3.5742,-3.5689,-3.5698,-3.5788,-3.5774,-2.5091,-2.5366,0.0,-2.6697,-2.6808,0.0,-2.6385,-2.5429,-2.4832,0.0,0.0,0.0,0.0,0.0,0.0,0.0,0.0,0.0,0.0,0.0,0.0,0.0,0.0,0.0,0.0,0.0,0.0,0.0,0.0,0.0,0.0,0.0,0.0,0.0,0.0,0.0,-2.0314,-2.0764,-2.1213,0.0,-2.2032,-2.2265,-2.2349,-2.2349,-2.2349,-2.2405,-2.2678,-2.2797,-2.2848,-2.3477,-2.3756,-2.3798,-2.4113,-2.4339,-2.4528,-2.4528,-2.5284,-2.6308,-2.6308,-2.7489,-2.8986,-2.9006,-2.9583,-3.0314,-3.0359,-3.0441,-3.0521,-3.0595,-3.0607,-3.0618,-3.0689,-3.0717,-3.0906,-3.17,-3.1951,-3.248,-3.41,-3.4527,-3.4821,-3.5702,-3.6502,-3.7069,-3.7167,-3.7887,-3.8446,-3.84,-3.9014,-3.95,-3.9554,-3.9519,-3.8836,-3.7187,-3.6993,-3.6642,-3.5779,-3.5681,-3.5699,-3.568,-3.568,-3.5661,-3.5603,-3.5661,-3.5705,-3.5694,-3.5702,-3.5689,-3.5699,-3.568,-3.568,-3.568,-3.5699,-3.5689,-2.5168,-2.5839,0.0,0.0,-2.7296,-2.6428,-2.5141,-2.3832,0.0,0.0,0.0,0.0,0.0,0.0,0.0,0.0,0.0,0.0,0.0,0.0,0.0,0.0,0.0,0.0,0.0,0.0,0.0,0.0,0.0,0.0,0.0,0.0,0.0,0.0,0.0,-2.0212,-2.0314,-2.0764,-2.1213,0.0,-2.1688,-2.2051,-2.2625,-2.2625,-2.2764,-2.3014,-2.3346,-2.3482,-2.3522,-2.3917,-2.4191,-2.4338,-2.4409,-2.4561,-2.4731,-2.4731,-2.5399,-2.6308,-2.6308,-2.7125,-2.8159,-2.8225,-2.8783,-2.9467,-2.954,-3.0047,-3.0595,-3.067,-3.0687,-3.07,-3.0837,-3.0864,-3.0875,-3.0966,-3.1589,-3.2226,-3.2509,-3.3131,-3.3843,-3.4664,-3.4973,-3.5343,-3.607,-3.6832,-3.756,-3.8215,-3.8462,-3.8576,-3.8612,-3.8595,-3.8163,-3.7114,-3.6999,-3.6619,-3.57,-3.5624,-3.5603,-3.5565,-3.5545,-3.5545,-3.5526,-3.5641,-3.5682,-3.5611,-3.5611,-3.5624,-3.5622,-3.5584,-3.5545,-3.5545,-3.5603,-3.5586,-2.5167,0.0,0.0,-2.6485,0.0,-2.5143,-2.4026,-2.2686,0.0,0.0,0.0,0.0,0.0,0.0,0.0,0.0,0.0,0.0,0.0,0.0,0.0,0.0,0.0,0.0,0.0,0.0,0.0,0.0,0.0,0.0,0.0,0.0,0.0,0.0,-2.0089,-2.0314,-2.0314,-2.0975,-2.1399,-2.1612,-2.1977,-2.2495,-2.3165,-2.3021,-2.3045,-2.3212,-2.3544,-2.3692,-2.3735,-2.4173,-2.441,-2.4512,-2.4607,-2.4741,-2.4891,-2.4891,-2.5291,-2.583,-2.5849,-2.6518,-2.7351,-2.739,-2.7991,-2.8684,-2.8744,-2.9389,-3.0089,-3.014,-3.0477,-3.0803,-3.0793,-3.08,-3.0776,-3.0688,-3.1072,-3.1572,-3.187,-3.2308,-3.2987,-3.4255,-3.4507,-3.4768,-3.5659,-3.6096,-3.6635,-3.7552,-3.7607,-3.7553,-3.7607,-3.7574,-3.7209,-3.6367,-3.6271,-3.6078,-3.5603,-3.5565,-3.5545,-3.5493,-3.5493,-3.5493,-3.5493,-3.5584,-3.5603,-3.5565,-3.5565,-3.5565,-3.5565,-3.5526,-3.5493,-3.5493,-3.5545,-3.5545,-2.5032,0.0,-2.5286,-2.4947,-2.4343,0.0,-2.2893,0.0,0.0,0.0,0.0,0.0,0.0,0.0,0.0,0.0,0.0,0.0,0.0,0.0,0.0,0.0,0.0,0.0,0.0,0.0,0.0,0.0,0.0,0.0,0.0,0.0,-1.969,-1.969,-2.0158,-2.0416,-2.0416,-2.1306,-2.1731,-2.1803,-2.2521,-2.3165,-2.3692,-2.3459,-2.3369,-2.3392,-2.3671,-2.3816,-2.3881,-2.432,-2.4526,-2.4588,-2.4771,-2.4917,-2.5046,-2.5065,-2.5182,-2.5322,-2.539,-2.589,-2.6497,-2.6564,-2.7174,-2.7905,-2.7971,-2.8702,-2.9506,-2.957,-3.0187,-3.0819,-3.0713,-3.0687,-3.067,-3.0595,-3.0636,-3.0844,-3.1503,-3.1661,-3.2177,-3.3891,-3.4487,-3.4845,-3.5353,-3.5526,-3.5853,-3.6631,-3.6598,-3.6526,-3.665,-3.6559,-3.6238,-3.557,-3.5493,-3.5493,-3.5493,-3.5493,-3.5493,-3.5432,-3.5432,-3.5417,-3.5369,-3.5369,-3.5369,-3.5369,-3.5446,-3.5493,-3.5493,-3.5493,-3.5493,-3.5493,-3.5493,-3.5493,-2.4584,0.0,-2.5162,0.0,-2.3957,-2.2823,0.0,0.0,0.0,0.0,0.0,0.0,0.0,0.0,0.0,0.0,0.0,0.0,0.0,0.0,0.0,0.0,0.0,0.0,0.0,0.0,0.0,0.0,0.0,0.0,0.0,-1.9169,-1.969,-1.969,-2.0465,-2.0894,-2.0894,-2.1781,-2.2326,-2.2565,-2.3236,-2.361,-2.3714,-2.3937,-2.4074,-2.4074,-2.4113,-2.4229,-2.4391,-2.4478,-2.4663,-2.4949,-2.4962,-2.5088,-2.5264,-2.5321,-2.5351,-2.5409,-2.5466,-2.5561,-2.5673,-2.5734,-2.6352,-2.7078,-2.715,-2.8262,-2.9504,-2.9516,-3.0064,-3.0642,-3.062,-3.0607,-3.0595,-3.0532,-3.051,-3.0556,-3.0659,-3.0694,-3.116,-3.2795,-3.4372,-3.5238,-3.4526,-3.5064,-3.5622,-3.5699,-3.568,-3.568,-3.568,-3.568,-3.5622,-3.5512,-3.5493,-3.5493,-3.5493,-3.5493,-3.5398,-3.5174,-3.5138,-3.5053,-3.4832,-3.4812,-3.4812,-3.4812,-3.5254,-3.5493,-3.5493,-3.5493,-3.5493,-3.5493,-3.5493,-3.5493,-2.4438,-2.4246,-2.4045,0.0,-2.2989,-2.1702,-2.1119,0.0,0.0,0.0,0.0,0.0,0.0,0.0,0.0,0.0,0.0,0.0,0.0,0.0,0.0,0.0,0.0,0.0,0.0,0.0,0.0,0.0,0.0,0.0,-1.8968,-1.9442,-1.9818,-2.0035,-2.0665,-2.1118,-2.1337,-2.1974,-2.2517,-2.2996,-2.3459,-2.3795,-2.3996,-2.4247,-2.4357,-2.4357,-2.4357,-2.4478,-2.467,-2.4752,-2.4872,-2.501,-2.5179,-2.5282,-2.537,-2.5428,-2.5453,-2.5464,-2.5533,-2.556,-2.5568,-2.5639,-2.5885,-2.6179,-2.6203,-2.7394,-2.8713,-2.8725,-2.9629,-3.0588,-3.0549,-3.0537,-3.0525,-3.0467,-3.0448,-3.0448,-3.0448,-3.0448,-3.0929,-3.2583,-3.393,-3.468,-3.4257,-3.4545,-3.4641,-3.4122,-3.4468,-3.4776,-3.4776,-3.5062,-3.532,-3.5493,-3.5223,-3.5105,-3.5254,-3.5138,-3.4999,-3.487,-3.4889,-3.4813,-3.4694,-3.4694,-3.4694,-3.4694,-3.4926,-3.5034,-3.5034,-3.5034,-3.5034,-3.5034,-3.5034,-3.5122,0.0,0.0,-2.2303,-2.2981,-2.2061,-2.0991,0.0,0.0,0.0,0.0,0.0,0.0,0.0,0.0,0.0,0.0,0.0,0.0,0.0,0.0,0.0,0.0,0.0,0.0,0.0,0.0,0.0,0.0,0.0,0.0,-1.9479,-1.9639,-1.9839,-2.0158,-2.0698,-2.1165,-2.1565,-2.2292,-2.2875,-2.3346,-2.3717,-2.4039,-2.4284,-2.4478,-2.461,-2.466,-2.461,-2.4666,-2.4869,-2.4975,-2.5061,-2.5118,-2.533,-2.5428,-2.5434,-2.5505,-2.5526,-2.5525,-2.5601,-2.5602,-2.5617,-2.5661,-2.5629,-2.5569,-2.5563,-2.6588,-2.7784,-2.8005,-2.9106,-3.0256,-3.0429,-3.0412,-3.0369,-3.0398,-3.0355,-3.0311,-3.0398,-3.0571,-3.1025,-3.2064,-3.3122,-3.3782,-3.3511,-3.3646,-3.3555,-3.2828,-3.3288,-3.3691,-3.3691,-3.426,-3.4745,-3.4944,-3.4812,-3.4774,-3.4981,-3.4813,-3.4653,-3.4572,-3.4572,-3.4529,-3.4464,-3.4464,-3.4464,-3.4464,-3.4464,-3.4548,-3.4694,-3.4694,-3.4694,-3.4694,-3.4694,-3.4812,0.0,-2.0891,0.0,-2.1723,-2.1576,0.0,0.0,0.0,0.0,0.0,0.0,0.0,0.0,0.0,0.0,0.0,0.0,0.0,0.0,0.0,0.0,0.0,0.0,0.0,0.0,0.0,0.0,0.0,0.0,0.0,-1.893,-1.9406,-1.9726,-1.9711,-2.0565,-2.1149,-2.1513,-2.2919,-2.3649,-2.3692,-2.4211,-2.4478,-2.4495,-2.4685,-2.4884,-2.5069,-2.487,-2.485,-2.4986,-2.5063,-2.5218,-2.5399,-2.5466,-2.5492,-2.5502,-2.5578,-2.5592,-2.5588,-2.5676,-2.5652,-2.5599,-2.5591,-2.5561,-2.5515,-2.5522,-2.6101,-2.6948,-2.7772,-2.8571,-2.9371,-3.0198,-3.0228,-3.0089,-3.0343,-3.0209,-3.0089,-3.0355,-3.1064,-3.141,-3.0667,-3.1852,-3.2628,-3.1637,-3.2142,-3.2591,-3.2275,-3.2277,-3.2296,-3.2296,-3.2996,-3.3488,-3.3507,-3.4224,-3.4713,-3.4714,-3.4694,-3.4551,-3.4265,-3.4242,-3.4099,-3.3868,-3.3842,-3.3842,-3.3842,-3.3842,-3.4136,-3.4694,-3.4694,-3.4694,-3.4694,-3.4694,-3.4694,0.0,0.0,0.0,-1.9431,-1.9444,0.0,0.0,0.0,0.0,0.0,0.0,0.0,0.0,0.0,0.0,0.0,0.0,0.0,0.0,0.0,0.0,0.0,0.0,0.0,0.0,0.0,0.0,0.0,0.0,0.0,-1.9778,-1.9984,-2.0418,-2.1209,-2.1529,-2.1995,-2.26,-2.3458,-2.3888,-2.3908,-2.4437,-2.4685,-2.47,-2.485,-2.5,-2.5108,-2.5156,-2.5236,-2.5318,-2.5354,-2.5398,-2.5473,-2.5532,-2.5562,-2.5575,-2.5586,-2.5593,-2.5593,-2.5587,-2.5556,-2.5543,-2.5542,-2.5484,-2.544,-2.5438,-2.6005,-2.6677,-2.6864,-2.7873,-2.8937,-2.9127,-2.9497,-2.9829,-2.9927,-2.988,-2.9829,-2.9927,-3.0295,-3.0624,-3.0753,-3.1271,-3.1559,-3.1172,-3.1381,-3.1347,-3.0692,-3.1052,-3.1429,-3.1429,-3.2445,-3.3191,-3.3374,-3.3829,-3.4189,-3.4357,-3.4213,-3.4062,-3.3935,-3.3935,-3.3902,-3.3788,-3.3807,-3.3807,-3.3807,-3.3807,-3.3921,-3.4111,-3.4111,-3.4111,-3.4111,-3.4111,-3.4213,-2.0828,0.0,0.0,0.0,0.0,0.0,0.0,0.0,0.0,0.0,0.0,0.0,0.0,0.0,0.0,0.0,0.0,0.0,0.0,0.0,0.0,0.0,0.0,0.0,0.0,0.0,0.0,0.0,0.0,0.0,-2.028,-2.0449,-2.1022,-2.2068,-2.2201,-2.2659,-2.345,-2.3929,-2.421,-2.4262,-2.4697,-2.4898,-2.4912,-2.5087,-2.5186,-2.5249,-2.5374,-2.5452,-2.5506,-2.5524,-2.5528,-2.5544,-2.5578,-2.5603,-2.5603,-2.5565,-2.558,-2.5572,-2.5529,-2.5493,-2.5473,-2.5465,-2.5428,-2.536,-2.5301,-2.5644,-2.6082,-2.6174,-2.7205,-2.8316,-2.8458,-2.9108,-2.9678,-2.9626,-2.9643,-2.9678,-2.9607,-2.9765,-3.0032,-3.0466,-3.0561,-3.0526,-3.0471,-3.0453,-3.0227,-2.9569,-2.9962,-3.0338,-3.0338,-3.157,-3.253,-3.2713,-3.3371,-3.3876,-3.4043,-3.3902,-3.3807,-3.3807,-3.3807,-3.3807,-3.3807,-3.3807,-3.3807,-3.3807,-3.3807,-3.3807,-3.3807,-3.3807,-3.3807,-3.3807,-3.3807,-3.3902,0.0,0.0,0.0,0.0,0.0,0.0,0.0,0.0,0.0,0.0,0.0,0.0,0.0,0.0,0.0,0.0,0.0,0.0,0.0,0.0,0.0,0.0,0.0,0.0,0.0,0.0,0.0,0.0,0.0,-2.0348,-2.0333,-2.0813,-2.1411,-2.2135,-2.2488,-2.3094,-2.4007,-2.4353,-2.4626,-2.4804,-2.5018,-2.512,-2.5126,-2.5378,-2.5492,-2.5508,-2.5508,-2.5497,-2.5517,-2.558,-2.5601,-2.5592,-2.5595,-2.5592,-2.5592,-2.5531,-2.5498,-2.5495,-2.5495,-2.5437,-2.537,-2.537,-2.5331,-2.5253,-2.5046,-2.4979,-2.5133,-2.5773,-2.6544,-2.7358,-2.8258,-2.9091,-2.9625,-2.9434,-2.9514,-2.9607,-2.9414,-2.9533,-2.9678,-2.9678,-2.9678,-2.9626,-2.9414,-2.9392,-2.931,-2.904,-2.8994,-2.8994,-2.8994,-3.0393,-3.1384,-3.1384,-3.2834,-3.3807,-3.3807,-3.3807,-3.3807,-3.3807,-3.3807,-3.3807,-3.3807,-3.3807,-3.3807,-3.3807,-3.3807,-3.3807,-3.3807,-3.3807,-3.3807,-3.3807,-3.3807,-3.3807,-2.0464,0.0,0.0,0.0,0.0,0.0,0.0,0.0,0.0,0.0,0.0,0.0,0.0,0.0,0.0,0.0,0.0,0.0,0.0,0.0,0.0,0.0,0.0,0.0,0.0,0.0,0.0,0.0,-2.0731,-2.1054,-2.1573,-2.2452,-2.31,-2.3469,-2.3794,-2.4173,-2.4567,-2.4808,-2.4964,-2.5018,-2.5279,-2.5371,-2.532,-2.5392,-2.5437,-2.543,-2.5437,-2.5453,-2.5502,-2.5527,-2.5525,-2.5522,-2.5532,-2.5519,-2.5515,-2.5444,-2.5331,-2.5194,-2.5153,-2.5056,-2.4974,-2.4974,-2.4942,-2.4942,-2.4869,-2.4855,-2.4851,-2.4901,-2.5475,-2.6394,-2.7675,-2.8595,-2.9101,-2.8766,-2.8706,-2.8735,-2.8676,-2.8706,-2.8847,-2.9144,-2.9185,-2.9181,-2.9134,-2.9112,-2.9089,-2.9017,-2.8994,-2.8994,-2.8994,-3.0393,-3.1384,-3.1384,-3.2834,-3.3807,-3.3807,-3.3807,-3.3807,-3.3807,-3.3807,-3.3807,-3.3807,-3.3807,-3.3807,-3.3807,-3.3807,-3.3807,-3.3807,-3.3807,-3.3807,-3.3807,-3.3807,-3.3807,0.0,0.0,0.0,0.0,0.0,0.0,0.0,-1.9169,0.0,0.0,0.0,0.0,0.0,0.0,0.0,0.0,0.0,0.0,0.0,0.0,0.0,0.0,0.0,0.0,0.0,0.0,0.0,0.0,-2.169,-2.2109,-2.2761,-2.3386,-2.3868,-2.4154,-2.4358,-2.4622,-2.4955,-2.5046,-2.5129,-2.5236,-2.5383,-2.543,-2.5391,-2.5437,-2.5381,-2.5268,-2.5259,-2.5253,-2.521,-2.5207,-2.5321,-2.5485,-2.5376,-2.5322,-2.5313,-2.5258,-2.5118,-2.4972,-2.4936,-2.4869,-2.4804,-2.4804,-2.4804,-2.4756,-2.4516,-2.4468,-2.4402,-2.4062,-2.4748,-2.5892,-2.7084,-2.7978,-2.8482,-2.8237,-2.8183,-2.8183,-2.8183,-2.8183,-2.8342,-2.8905,-2.8863,-2.8749,-2.8749,-2.8633,-2.8533,-2.8533,-2.8533,-2.8533,-2.8533,-2.9908,-3.0885,-3.0885,-3.2296,-3.3255,-3.3255,-3.3255,-3.3255,-3.3255,-3.3255,-3.3255,-3.3255,-3.3255,-3.3255,-3.3255,-3.3255,-3.3255,-3.3255,-3.3606,-3.3807,-3.3807,-3.3807,-3.3807,0.0,0.0,0.0,0.0,0.0,0.0,-2.0751,-2.0831,0.0,0.0,0.0,0.0,0.0,0.0,0.0,0.0,0.0,0.0,0.0,0.0,0.0,0.0,0.0,0.0,0.0,0.0,-2.19,-2.2323,-2.2811,-2.3315,-2.3859,-2.3916,-2.4081,-2.4466,-2.4482,-2.4698,-2.5203,-2.5136,-2.5191,-2.5369,-2.5344,-2.534,-2.5334,-2.5387,-2.5279,-2.5082,-2.5082,-2.4959,-2.4804,-2.4741,-2.4993,-2.5405,-2.5158,-2.5082,-2.5063,-2.5,-2.4891,-2.4775,-2.4775,-2.4746,-2.4682,-2.4682,-2.4648,-2.4516,-2.4044,-2.3911,-2.3812,-2.3333,-2.4304,-2.5685,-2.6455,-2.7288,-2.7897,-2.784,-2.784,-2.784,-2.784,-2.784,-2.8037,-2.8743,-2.8608,-2.8324,-2.8324,-2.8102,-2.7897,-2.7897,-2.7897,-2.7897,-2.7897,-2.9243,-3.0198,-3.0198,-3.1597,-3.2484,-3.2484,-3.2484,-3.2484,-3.2484,-3.2484,-3.2484,-3.2484,-3.2484,-3.2484,-3.2484,-3.2484,-3.2484,-3.2484,-3.3284,-3.368,-3.368,-3.368,-3.368,0.0,0.0,0.0,0.0,0.0,0.0,-2.1023,-2.0959,-2.0911,0.0,0.0,0.0,0.0,0.0,0.0,0.0,0.0,0.0,0.0,0.0,0.0,0.0,0.0,0.0,0.0,0.0,-2.3215,-2.3307,-2.3865,-2.4223,-2.4376,-2.4566,-2.4763,-2.4955,-2.4967,-2.507,-2.5278,-2.5156,-2.513,-2.5162,-2.5053,-2.4979,-2.4917,-2.4932,-2.4922,-2.4851,-2.4851,-2.4837,-2.4775,-2.4332,-2.4449,-2.4921,-2.4879,-2.4851,-2.4865,-2.4828,-2.4712,-2.4561,-2.4561,-2.4284,-2.3905,-2.3905,-2.3744,-2.3494,-2.3401,-2.3356,-2.3333,-2.3236,-2.4304,-2.5543,-2.5702,-2.6817,-2.7811,-2.75,-2.7426,-2.7426,-2.7426,-2.7426,-2.756,-2.8037,-2.8065,-2.801,-2.801,-2.7954,-2.7897,-2.7897,-2.7897,-2.7897,-2.7897,-2.9243,-3.0198,-3.0198,-3.1597,-3.2484,-3.2484,-3.2484,-3.2484,-3.2484,-3.2484,-3.2484,-3.2484,-3.2484,-3.2484,-3.2484,-3.2484,-3.2484,-3.2484,-3.2681,-3.2745,-3.2745,-3.2745,-3.2745,0.0,0.0,0.0,-2.2281,0.0,0.0,0.0,-2.1972,-2.1848,0.0,0.0,0.0,0.0,0.0,0.0,0.0,0.0,0.0,0.0,0.0,0.0,0.0,0.0,0.0,0.0,0.0,-2.4088,-2.42,-2.4543,-2.4748,-2.4748,-2.4969,-2.5143,-2.5249,-2.5156,-2.5148,-2.5258,-2.4918,-2.4748,-2.4753,-2.4467,-2.4331,-2.43,-2.43,-2.4263,-2.4153,-2.4153,-2.4081,-2.3988,-2.371,-2.3751,-2.4026,-2.4315,-2.44,-2.44,-2.44,-2.4173,-2.3846,-2.3846,-2.3681,-2.3437,-2.3437,-2.3346,-2.3165,-2.2996,-2.3101,-2.3301,-2.3301,-2.441,-2.5542,-2.5542,-2.642,-2.7241,-2.7051,-2.6987,-2.6987,-2.6987,-2.6987,-2.7051,-2.7272,-2.7303,-2.7365,-2.7577,-2.7439,-2.7303,-2.7303,-2.7303,-2.7303,-2.7303,-2.8291,-2.9001,-2.9001,-3.0387,-3.1305,-3.1305,-3.1652,-3.186,-3.186,-3.186,-3.186,-3.186,-3.186,-3.186,-3.186,-3.186,-3.186,-3.186,-3.186,-3.2092,-3.2484,-3.2484,-3.2484,0.0,0.0,0.0,0.0,0.0,-2.2673,0.0,0.0,0.0,-2.3147,0.0,0.0,0.0,0.0,0.0,0.0,0.0,0.0,0.0,0.0,0.0,0.0,0.0,0.0,0.0,0.0,-2.4498,-2.4736,-2.4785,-2.482,-2.481,-2.4957,-2.5075,-2.5102,-2.4958,-2.4878,-2.4941,-2.4468,-2.4225,-2.4225,-2.3853,-2.3628,-2.3569,-2.3648,-2.3485,-2.32,-2.3365,-2.3307,-2.31,-2.3093,-2.3141,-2.3236,-2.3668,-2.3852,-2.3852,-2.3852,-2.3563,-2.3189,-2.3189,-2.3165,-2.3093,-2.3093,-2.3087,-2.2965,-2.273,-2.2829,-2.3038,-2.3038,-2.4036,-2.5112,-2.5112,-2.5748,-2.6419,-2.6419,-2.6419,-2.6419,-2.6539,-2.647,-2.647,-2.6657,-2.6539,-2.659,-2.7115,-2.6906,-2.6691,-2.6691,-2.6691,-2.6691,-2.6691,-2.7351,-2.7789,-2.7789,-2.9194,-3.0108,-3.0108,-3.0784,-3.119,-3.119,-3.119,-3.119,-3.119,-3.119,-3.119,-3.119,-3.119,-3.119,-3.119,-3.119,-3.1562,-3.2248,-3.2248,-3.2248,0.0,0.0,0.0,0.0,-2.3879,0.0,0.0,0.0,-2.336,-2.3218,0.0,0.0,0.0,0.0,0.0,0.0,0.0,0.0,0.0,0.0,0.0,0.0,0.0,0.0,0.0,0.0,0.0,-2.4498,-2.4275,-2.4109,-2.4112,-2.4128,-2.4134,-2.4058,-2.4052,-2.4001,-2.3953,-2.3719,-2.3593,-2.3593,-2.3388,-2.3094,-2.274,-2.3094,-2.2832,-2.2112,-2.2909,-2.3017,-2.2667,-2.2737,-2.2923,-2.3212,-2.3282,-2.3287,-2.3287,-2.3287,-2.3259,-2.3189,-2.3189,-2.3021,-2.2772,-2.2772,-2.259,-2.2405,-2.2349,-2.2111,-2.1804,-2.1804,-2.2573,-2.3372,-2.3372,-2.4374,-2.5373,-2.5373,-2.5373,-2.5486,-2.5961,-2.5726,-2.5635,-2.6539,-2.598,-2.5672,-2.6607,-2.6725,-2.6691,-2.6691,-2.6691,-2.6691,-2.6691,-2.7351,-2.7789,-2.7789,-2.9194,-3.0108,-3.0108,-3.0784,-3.119,-3.119,-3.119,-3.119,-3.119,-3.119,-3.119,-3.119,-3.119,-3.119,-3.119,-3.119,-3.1269,-3.1368,-3.1368,-3.1368,0.0,0.0,0.0,0.0,0.0,0.0,0.0,0.0,-2.3996,0.0,0.0,0.0,0.0,0.0,0.0,0.0,0.0,0.0,0.0,0.0,0.0,0.0,0.0,0.0,0.0,0.0,0.0,0.0,0.0,-2.216,-2.2476,-2.2615,-2.2794,-2.3084,-2.2663,-2.2604,-2.2878,-2.2194,-2.2034,-2.2349,-2.2057,-2.1852,-2.1691,-2.1836,-2.1703,-2.1406,-2.1778,-2.1836,-2.1691,-2.1694,-2.1811,-2.1922,-2.1922,-2.2173,-2.2565,-2.2565,-2.23,-2.1922,-2.1922,-2.1824,-2.1694,-2.1694,-2.1625,-2.1554,-2.1554,-2.1693,-2.1875,-2.1875,-2.2521,-2.3269,-2.3635,-2.4179,-2.4708,-2.5125,-2.5221,-2.5259,-2.5503,-2.5373,-2.5335,-2.5746,-2.5486,-2.5319,-2.5746,-2.5819,-2.5819,-2.5819,-2.5819,-2.5819,-2.5819,-2.6369,-2.6764,-2.6764,-2.839,-2.9448,-2.9448,-3.0531,-3.119,-3.119,-3.119,-3.119,-3.119,-3.119,-3.119,-3.119,-3.119,-3.119,-3.119,-3.119,-3.119,-3.119,-3.119,-3.119,-2.7799,0.0,0.0,0.0,0.0,0.0,0.0,0.0,0.0,0.0,0.0,0.0,0.0,0.0,0.0,0.0,0.0,0.0,0.0,0.0,0.0,0.0,0.0,0.0,0.0,0.0,0.0,0.0,-2.051,-2.0267,-2.0803,-2.0976,-2.1238,-2.1625,-2.1121,-2.1044,-2.1429,-2.0857,-2.0671,-2.091,-2.0814,-2.0651,-2.0403,-2.052,-2.0503,-2.0434,-2.0503,-2.0651,-2.0797,-2.0651,-2.0716,-2.0991,-2.083,-2.1038,-2.1467,-2.1707,-2.1442,-2.0991,-2.0991,-2.0991,-2.0991,-2.0991,-2.0991,-2.0991,-2.0991,-2.1277,-2.1593,-2.1593,-2.2049,-2.2654,-2.3348,-2.3664,-2.3941,-2.4634,-2.4736,-2.4776,-2.495,-2.4871,-2.4855,-2.5144,-2.495,-2.4831,-2.495,-2.5089,-2.5221,-2.5221,-2.5221,-2.5221,-2.5221,-2.554,-2.5762,-2.5762,-2.7429,-2.8515,-2.8515,-2.9865,-3.0699,-3.0699,-3.0699,-3.0699,-3.0699,-3.0699,-3.0699,-3.0699,-3.0699,-3.0797,-3.0958,-3.0958,-3.1055,-3.119,-3.119,-3.119,0.0,0.0,0.0,-2.6856,0.0,0.0,0.0,0.0,-2.7171,0.0,0.0,0.0,0.0,0.0,-2.3991,-2.2579,0.0,0.0,0.0,0.0,0.0,0.0,0.0,0.0,0.0,0.0,0.0,-1.9056,-1.8788,-1.8833,-1.9411,-1.9481,-1.9481,-1.9517,-1.9497,-1.9461,-1.9497,-1.9989,-1.9955,-1.9476,-1.9989,-1.9743,-1.889,-1.9271,-1.9265,-1.8991,-1.9286,-1.9763,-2.0265,-1.9677,-2.0039,-2.0959,-2.0438,-1.9982,-1.9783,-2.0699,-2.1023,-2.0991,-2.0991,-2.0991,-2.0991,-2.0991,-2.0991,-2.0991,-2.0991,-2.0698,-2.0345,-2.0345,-2.0569,-2.0925,-2.1599,-2.2269,-2.29,-2.3488,-2.3638,-2.3794,-2.4307,-2.4032,-2.3964,-2.4989,-2.4348,-2.3837,-2.4348,-2.4871,-2.5221,-2.5221,-2.5221,-2.5221,-2.5221,-2.5221,-2.5221,-2.5221,-2.6487,-2.7336,-2.7336,-2.8634,-2.9451,-2.9451,-2.9451,-2.9451,-2.9451,-2.9451,-2.9451,-2.9451,-2.9451,-2.9761,-3.0351,-3.0351,-3.0617,-3.119,-3.119,-3.119,0.0,0.0,-2.781,-2.7659,0.0,0.0,0.0,0.0,0.0,0.0,0.0,0.0,0.0,0.0,-2.3621,-2.2153,-2.1703,-2.0911,0.0,0.0,0.0,0.0,0.0,0.0,0.0,0.0,0.0,-1.8276,-1.7637,-1.7437,0.0,-1.8009,-1.8166,-1.8527,-1.8218,-1.8166,-1.8527,-1.8373,-1.8373,-1.8527,-1.8717,-1.8655,-1.8338,-1.8464,-1.8478,-1.838,-1.8478,-1.8655,-1.8835,-1.8617,-1.8769,-1.9082,-1.8881,-1.8745,-1.876,-2.0043,-2.0162,-1.9671,-2.0019,-2.0139,-2.0139,-2.0139,-2.0139,-2.0139,-2.0139,-2.005,-1.9909,-1.9909,-2.0279,-2.0857,-2.153,-2.2188,-2.2832,-2.3445,-2.3595,-2.3638,-2.3837,-2.3709,-2.3724,-2.4074,-2.3837,-2.3681,-2.3837,-2.4032,-2.4158,-2.4158,-2.4158,-2.4158,-2.4158,-2.4471,-2.4672,-2.4672,-2.587,-2.6823,-2.7246,-2.859,-2.9406,-2.9406,-2.9406,-2.9406,-2.9406,-2.9406,-2.9406,-2.9406,-2.9406,-2.9496,-2.9717,-2.9717,-2.9805,-3.0038,-3.0038,-3.0435,-3.0292,-2.9654,0.0,-2.8554,-2.8223,0.0,-2.6305,0.0,0.0,0.0,0.0,0.0,0.0,0.0,-2.29,-2.1311,-2.078,-1.9611,0.0,-1.5492,0.0,0.0,0.0,0.0,0.0,0.0,-1.5567,-1.6435,-1.5891,-1.5764,0.0,0.0,-1.6506,-1.6873,-1.6562,-1.6646,-1.7218,-1.7079,-1.7175,-1.7544,-1.7706,-1.7706,-1.7544,-1.7544,-1.7626,-1.7787,-1.7626,-1.7747,-1.8066,-1.7706,-1.7747,-1.8066,-1.7907,-1.7827,-1.7933,-1.9096,-1.9148,-1.865,-1.9006,-1.9132,-1.9132,-1.9132,-1.9244,-1.9369,-1.9207,-1.9244,-1.9406,-1.9406,-1.9727,-2.0308,-2.1396,-2.1995,-2.249,-2.3133,-2.343,-2.3535,-2.3325,-2.3445,-2.3595,-2.3595,-2.3595,-2.3595,-2.3595,-2.3595,-2.3595,-2.3595,-2.3595,-2.3595,-2.3595,-2.3921,-2.4116,-2.4116,-2.5051,-2.6056,-2.6995,-2.8106,-2.8764,-2.8764,-2.8764,-2.8764,-2.8764,-2.8764,-2.8545,-2.8044,-2.8513,-2.8606,-2.8389,-2.8851,-2.918,-2.9406,-2.9406,-2.9805]}]]